[[{"header":{"parameterUnit":"m.s-1","parameterCategory":1,"la1":30.6,"la2":28.766,"lo1":-90.7593,"lo2":-88.6598,"dx":0.0162,"dy":0.0183,"nx":116,"ny":114,"refTime":"2022-12-21T06:00:00:Z","depth":0,"parameterNumber":2,"parameterNumberName":"U-component_of_WINDS"},"data":[0.0,0.0,0.0,0.0,0.0,0.0,0.0,0.0,0.0,0.0,0.0,0.0,0.0,0.0,0.0,0.0,0.0,0.0,0.0,0.0,0.0,0.0,0.0,0.0,0.0,0.0,0.0,0.0,0.0,0.0,0.0,0.0,0.0,0.0,0.0,0.0,0.0,0.0,0.0,0.0,0.0,0.0,0.0,0.0,0.0,0.0,0.0,0.0,0.0,0.0,0.0,0.0,0.0,0.0,0.0,0.0,0.0,0.0,0.0,0.0,0.0,0.0,0.0,0.0,0.0,0.0,0.0,0.0,0.0,0.0,0.0,0.0,0.0,0.0,0.0,0.0,0.0,0.0,0.0,0.0,0.0,0.0,0.0,0.0,0.0,0.0,0.0,0.0,0.0,0.0,0.0,0.0,0.0,0.0,0.0,0.0,0.0,0.0,0.0,0.0,0.0,0.0,0.0,0.0,0.0,0.0,0.0,0.0,0.0,0.0,0.0,0.0,0.0,0.0,0.0,0.0,0.0,0.0,0.0,0.0,0.0,0.0,0.0,0.0,0.0,0.0,0.0,0.0,0.0,0.0,0.0,0.0,0.0,0.0,0.0,0.0,0.0,0.0,0.0,0.0,0.0,0.0,0.0,0.0,0.0,0.0,0.0,0.0,0.0,0.0,0.0,0.0,0.0,0.0,0.0,0.0,0.0,0.0,0.0,0.0,0.0,0.0,0.0,0.0,0.0,0.0,0.0,0.0,0.0,0.0,0.0,0.0,0.0,0.0,0.0,0.0,0.0,0.0,0.0,0.0,0.0,0.0,0.0,0.0,0.0,0.0,0.0,0.0,0.0,0.0,0.0,0.0,0.0,0.0,0.0,0.0,0.0,0.0,0.0,0.0,0.0,0.0,0.0,0.0,0.0,0.0,0.0,0.0,0.0,0.0,0.0,0.0,0.0,0.0,0.0,0.0,0.0,0.0,0.0,0.0,0.0,0.0,0.0,0.0,0.0,0.0,0.0,0.0,0.0,0.0,0.0,0.0,0.0,0.0,0.0,0.0,0.0,0.0,0.0,0.0,0.0,0.0,0.0,0.0,0.0,0.0,0.0,0.0,0.0,0.0,0.0,0.0,0.0,0.0,0.0,0.0,0.0,0.0,0.0,0.0,0.0,0.0,0.0,0.0,0.0,0.0,0.0,0.0,0.0,0.0,0.0,0.0,0.0,0.0,0.0,0.0,0.0,0.0,0.0,0.0,0.0,0.0,0.0,0.0,0.0,0.0,0.0,0.0,0.0,0.0,0.0,0.0,0.0,0.0,0.0,0.0,0.0,0.0,0.0,0.0,0.0,0.0,0.0,0.0,0.0,0.0,0.0,0.0,0.0,0.0,0.0,0.0,0.0,0.0,0.0,0.0,0.0,0.0,0.0,0.0,0.0,0.0,0.0,0.0,0.0,0.0,0.0,0.0,0.0,0.0,0.0,0.0,0.0,0.0,0.0,0.0,0.0,0.0,0.0,0.0,0.0,0.0,0.0,0.0,0.0,0.0,0.0,0.0,0.0,0.0,0.0,0.0,0.0,0.0,0.0,0.0,0.0,0.0,0.0,0.0,0.0,0.0,0.0,0.0,0.0,0.0,0.0,0.0,0.0,0.0,0.0,0.0,0.0,0.0,0.0,0.0,0.0,0.0,0.0,0.0,0.0,0.0,0.0,0.0,0.0,0.0,0.0,0.0,0.0,0.0,0.0,0.0,0.0,0.0,0.0,0.0,0.0,0.0,0.0,0.0,0.0,0.0,0.0,0.0,0.0,0.0,0.0,0.0,0.0,0.0,0.0,0.0,0.0,0.0,0.0,0.0,0.0,0.0,0.0,0.0,0.0,0.0,0.0,0.0,0.0,0.0,0.0,0.0,0.0,0.0,0.0,0.0,0.0,0.0,0.0,0.0,0.0,0.0,0.0,0.0,0.0,0.0,0.0,0.0,0.0,0.0,0.0,0.0,0.0,0.0,0.0,0.0,0.0,0.0,0.0,0.0,0.0,0.0,0.0,0.0,0.0,0.0,0.0,0.0,0.0,0.0,0.0,0.0,0.0,0.0,0.0,0.0,0.0,0.0,0.0,0.0,0.0,0.0,0.0,0.0,0.0,0.0,0.0,0.0,0.0,0.0,0.0,0.0,0.0,0.0,0.0,0.0,0.0,0.0,0.0,0.0,0.0,0.0,0.0,0.0,0.0,0.0,0.0,0.0,0.0,0.0,0.0,0.0,0.0,0.0,0.0,0.0,0.0,0.0,0.0,0.0,0.0,0.0,0.0,0.0,0.0,0.0,0.0,0.0,0.0,0.0,0.0,0.0,0.0,0.0,0.0,0.0,0.0,0.0,0.0,0.0,0.0,0.0,0.0,0.0,0.0,0.0,0.0,0.0,0.0,0.0,0.0,0.0,0.0,0.0,0.0,0.0,0.0,0.0,0.0,0.0,0.0,0.0,0.0,0.0,0.0,0.0,0.0,0.0,0.0,0.0,0.0,0.0,0.0,0.0,0.0,0.0,0.0,0.0,0.0,0.0,0.0,0.0,0.0,0.0,0.0,0.0,0.0,0.0,0.0,0.0,0.0,0.0,0.0,0.0,0.0,0.0,0.0,0.0,0.0,0.0,0.0,0.0,0.0,0.0,0.0,0.0,0.0,0.0,0.0,0.0,0.0,0.0,0.0,0.0,0.0,0.0,0.0,0.0,0.0,0.0,0.0,0.0,0.0,0.0,0.0,0.0,0.0,0.0,0.0,0.0,0.0,0.0,0.0,0.0,0.0,0.0,0.0,0.0,0.0,0.0,0.0,0.0,0.0,0.0,0.0,0.0,0.0,0.0,0.0,0.0,0.0,0.0,0.0,0.0,0.0,0.0,0.0,0.0,0.0,0.0,0.0,0.0,0.0,0.0,0.0,0.0,0.0,0.0,0.0,0.0,0.0,0.0,0.0,0.0,0.0,0.0,0.0,0.0,0.0,0.0,0.0,0.0,0.0,0.0,0.0,0.0,0.0,0.0,0.0,0.0,0.0,0.0,0.0,0.0,0.0,0.0,0.0,0.0,0.0,0.0,0.0,0.0,0.0,0.0,0.0,0.0,0.0,0.0,0.0,0.0,0.0,0.0,0.0,0.0,0.0,0.0,0.0,0.0,0.0,0.0,0.0,0.0,0.0,0.0,0.0,0.0,0.0,0.0,0.0,0.0,0.0,0.0,0.0,0.0,0.0,0.0,0.0,0.0,0.0,0.0,0.0,0.0,0.0,0.0,0.0,0.0,0.0,0.0,0.0,0.0,0.0,0.0,0.0,0.0,0.0,0.0,0.0,0.0,0.0,0.0,0.0,0.0,0.0,0.0,0.0,0.0,0.0,0.0,0.0,0.0,0.0,0.0,0.0,0.0,0.0,0.0,0.0,0.0,0.0,0.0,0.0,0.0,0.0,0.0,0.0,0.0,0.0,0.0,0.0,0.0,0.0,0.0,0.0,0.0,0.0,0.0,0.0,0.0,0.0,0.0,0.0,0.0,0.0,0.0,0.0,0.0,0.0,0.0,0.0,0.0,0.0,0.0,0.0,0.0,0.0,0.0,0.0,0.0,0.0,0.0,0.0,0.0,0.0,0.0,0.0,0.0,0.0,0.0,0.0,0.0,0.0,0.0,0.0,0.0,0.0,0.0,0.0,0.0,0.0,0.0,0.0,0.0,0.0,0.0,0.0,0.0,0.0,0.0,0.0,0.0,0.0,0.0,0.0,0.0,0.0,0.0,0.0,0.0,0.0,0.0,0.0,0.0,0.0,0.0,0.0,0.0,0.0,0.0,0.0,0.0,0.0,0.0,0.0,0.0,0.0,0.0,0.0,0.0,0.0,0.0,0.0,0.0,0.0,0.0,0.0,0.0,0.0,0.0,0.0,0.0,0.0,0.0,0.0,0.0,0.0,0.0,0.0,0.0,0.0,0.0,0.0,0.0,0.0,0.0,0.0,0.0,0.0,0.0,0.0,0.0,0.0,0.0,0.0,0.0,0.0,0.0,0.0,0.0,0.0,0.0,0.0,0.0,0.0,0.0,0.0,0.0,0.0,0.0,0.0,0.0,0.0,0.0,0.0,0.0,0.0,0.0,0.0,0.0,0.0,0.0,0.0,0.0,0.0,0.0,0.0,0.0,0.0,0.0,0.0,0.0,0.0,0.0,0.0,0.0,0.0,0.0,0.0,0.0,0.0,0.0,0.0,0.0,0.0,0.0,0.0,0.0,0.0,0.0,0.0,0.0,0.0,0.0,0.0,0.0,0.0,0.0,0.0,0.0,0.0,0.0,0.0,0.0,0.0,0.0,0.0,0.0,0.0,0.0,0.0,0.0,0.0,0.0,0.0,0.0,0.0,0.0,0.0,0.0,0.0,0.0,0.0,0.0,0.0,0.0,0.0,0.0,0.0,0.0,0.0,0.0,0.0,0.0,0.0,0.0,0.0,0.0,0.0,0.0,0.0,0.0,0.0,0.0,0.0,0.0,0.0,0.0,0.0,0.0,0.0,0.0,0.0,0.0,0.0,0.0,0.0,0.0,0.0,0.0,0.0,0.0,0.0,0.0,0.0,0.0,0.0,0.0,0.0,0.0,0.0,0.0,0.0,0.0,0.0,0.0,0.0,0.0,0.0,0.0,0.0,0.0,0.0,0.0,0.0,0.0,0.0,0.0,0.0,0.0,0.0,0.0,0.0,0.0,0.0,0.0,0.0,0.0,0.0,0.0,0.0,0.0,0.0,0.0,0.0,0.0,0.0,0.0,0.0,0.0,0.0,0.0,0.0,0.0,0.0,0.0,0.0,0.0,0.0,0.0,0.0,0.0,0.0,0.0,0.0,0.0,0.0,0.0,0.0,0.0,0.0,0.0,0.0,0.0,0.0,0.0,0.0,0.0,0.0,0.0,0.0,0.0,0.0,0.0,0.0,0.0,0.0,0.0,0.0,0.0,0.0,0.0,0.0,0.0,0.0,0.0,0.0,0.0,0.0,0.0,0.0,0.0,0.0,0.0,0.0,0.0,0.0,0.0,0.0,0.0,0.0,0.0,0.0,0.0,0.0,0.0,0.0,0.0,0.0,0.0,0.0,0.0,0.0,0.0,0.0,0.0,0.0,0.0,0.0,0.0,0.0,0.0,0.0,0.0,0.0,0.0,0.0,0.0,0.0,0.0,0.0,0.0,0.0,0.0,0.0,0.0,0.0,0.0,0.0,0.0,0.0,0.0,0.0,0.0,0.0,0.0,0.0,0.0,0.0,0.0,0.0,0.0,0.0,0.0,0.0,0.0,0.0,0.0,0.0,0.0,0.0,0.0,0.0,0.0,0.0,0.0,0.0,0.0,0.0,0.0,0.0,0.0,0.0,0.0,0.0,0.0,0.0,0.0,0.0,0.0,0.0,0.0,0.0,0.0,0.0,0.0,0.0,0.0,0.0,0.0,0.0,0.0,0.0,0.0,0.0,0.0,0.0,0.0,0.0,0.0,0.0,0.0,0.0,0.0,0.0,0.0,0.0,0.0,0.0,0.0,0.0,0.0,0.0,0.0,0.0,0.0,0.0,0.0,0.0,0.0,0.0,0.0,0.0,0.0,0.0,0.0,0.0,0.0,0.0,0.0,0.0,0.0,0.0,0.0,0.0,0.0,0.0,0.0,0.0,0.0,0.0,0.0,0.0,0.0,0.0,0.0,0.0,0.0,0.0,0.0,0.0,0.0,0.0,0.0,0.0,0.0,0.0,0.0,0.0,0.0,0.0,0.0,0.0,0.0,0.0,0.0,0.0,0.0,0.0,0.0,0.0,0.0,0.0,0.0,0.0,0.0,0.0,0.0,0.0,0.0,0.0,0.0,0.0,0.0,0.0,0.0,0.0,0.0,0.0,0.0,0.0,0.0,0.0,0.0,0.0,0.0,0.0,0.0,0.0,0.0,0.0,0.0,0.0,0.0,0.0,0.0,0.0,0.0,0.0,0.0,0.0,0.0,0.0,0.0,0.0,0.0,0.0,0.0,0.0,0.0,0.0,0.0,0.0,0.0,0.0,0.0,0.0,0.0,0.0,0.0,0.0,0.0,0.0,0.0,0.0,0.0,4.3554,4.1003,0.0,0.0,0.0,0.0,0.0,0.0,0.0,0.0,0.0,0.0,0.0,0.0,0.0,0.0,0.0,0.0,0.0,0.0,0.0,0.0,0.0,0.0,0.0,1.791,1.8413,1.8413,1.8413,0.0,0.0,0.0,0.0,0.0,0.0,0.0,0.0,0.0,0.0,2.4718,2.7752,3.0319,3.2416,3.1076,2.935,2.7404,0.0,0.0,0.0,0.0,0.0,0.0,0.0,0.0,0.0,0.0,0.0,0.0,0.0,0.0,0.0,0.0,0.0,0.0,0.0,0.0,0.0,0.0,0.0,0.0,0.0,0.0,0.0,0.0,0.0,0.0,0.0,0.0,0.0,0.0,0.0,0.0,0.0,0.0,0.0,0.0,0.0,0.0,0.0,0.0,0.0,0.0,0.0,0.0,0.0,0.0,0.0,0.0,0.0,0.0,0.0,0.0,0.0,0.0,0.0,0.0,0.0,0.0,0.0,0.0,0.0,0.0,0.0,0.0,0.0,0.0,4.6946,4.4587,0.0,0.0,0.0,0.0,0.0,0.0,0.0,0.0,0.0,0.0,0.0,0.0,0.0,0.0,0.0,0.0,0.0,0.0,0.0,0.0,0.0,1.8258,1.9418,1.9689,2.0115,2.0998,2.054,2.054,2.123,2.1972,0.0,0.0,0.0,0.0,0.0,0.0,0.0,2.7619,3.1266,3.4664,3.7764,3.7055,3.4956,3.1688,3.0204,0.0,0.0,0.0,0.0,0.0,0.0,0.0,0.0,0.0,0.0,0.0,0.0,0.0,0.0,0.0,0.0,0.0,0.0,0.0,0.0,0.0,0.0,0.0,0.0,0.0,0.0,0.0,0.0,0.0,0.0,0.0,0.0,0.0,0.0,0.0,0.0,0.0,0.0,0.0,0.0,0.0,0.0,0.0,0.0,0.0,0.0,0.0,0.0,0.0,0.0,0.0,0.0,0.0,0.0,0.0,0.0,0.0,0.0,0.0,0.0,0.0,0.0,0.0,5.079,5.1602,5.1602,5.1718,5.2569,5.373,5.0171,4.8314,4.7734,4.7618,0.0,0.0,0.0,0.0,0.0,0.0,0.0,0.0,0.0,0.0,0.0,0.0,0.0,0.0,0.0,0.0,0.0,0.0,0.0,1.8722,2.1088,2.1978,2.2745,2.3635,2.4292,2.4718,2.4834,2.495,0.0,0.0,0.0,0.0,0.0,0.0,0.0,0.0,3.5499,3.8651,4.0583,4.0466,4.0508,4.0537,3.6555,0.0,3.5898,0.0,0.0,0.0,0.0,0.0,0.0,0.0,0.0,0.0,0.0,0.0,0.0,0.0,0.0,0.0,0.0,0.0,0.0,0.0,0.0,0.0,0.0,0.0,0.0,0.0,0.0,0.0,0.0,0.0,0.0,0.0,0.0,0.0,0.0,0.0,0.0,0.0,0.0,0.0,0.0,0.0,3.6704,3.7475,0.0,0.0,0.0,0.0,0.0,0.0,0.0,0.0,0.0,0.0,0.0,0.0,0.0,4.8353,4.901,5.0171,5.1061,5.1718,5.3459,5.4271,5.431,5.5006,5.547,5.5625,5.5084,0.0,5.0364,4.9668,0.0,0.0,0.0,0.0,0.0,0.0,0.0,0.0,0.0,0.0,0.0,0.0,0.0,0.0,0.0,0.0,0.0,0.0,0.0,0.0,0.0,2.4254,2.5376,2.6265,2.6691,2.6923,2.6923,2.7348,0.0,0.0,0.0,0.0,0.0,0.0,0.0,0.0,3.9476,4.2031,4.4759,4.4251,4.4714,4.587,4.3003,4.062,3.8617,3.6093,0.0,0.0,0.0,0.0,0.0,0.0,0.0,0.0,0.0,0.0,0.0,0.0,0.0,0.0,0.0,0.0,0.0,0.0,0.0,0.0,0.0,0.0,0.0,0.0,0.0,0.0,0.0,0.0,0.0,0.0,0.0,0.0,0.0,0.0,0.0,0.0,0.0,0.0,0.0,3.7488,3.8479,4.0733,4.1789,4.2653,0.0,0.0,0.0,0.0,0.0,0.0,0.0,0.0,0.0,5.048,5.1022,5.1679,5.2569,5.3846,5.4697,5.5084,5.6824,5.7675,5.7675,5.8488,5.8874,5.8836,5.841,5.7327,5.5818,5.4,5.2956,5.2569,0.0,0.0,0.0,0.0,5.3111,5.3149,0.0,0.0,0.0,0.0,0.0,0.0,0.0,0.0,0.0,0.0,0.0,0.0,2.5414,2.6613,2.789,2.9205,2.9282,2.9282,2.9282,2.9901,2.9708,2.8431,0.0,0.0,0.0,0.0,0.0,4.2109,4.3124,4.5343,4.8564,4.79,4.8525,5.0048,4.8369,4.548,4.1729,3.9543,3.8229,3.7459,0.0,0.0,0.0,0.0,0.0,0.0,0.0,0.0,0.0,0.0,0.0,0.0,0.0,0.0,0.0,0.0,0.0,0.0,0.0,0.0,0.0,0.0,0.0,0.0,0.0,0.0,0.0,0.0,0.0,0.0,0.0,0.0,0.0,0.0,0.0,0.0,0.0,4.0771,4.1261,4.4253,4.5181,4.5916,0.0,0.0,0.0,0.0,0.0,0.0,5.0635,5.1099,5.1989,5.3459,5.4116,5.5006,5.6089,5.7327,5.8062,5.8294,5.9803,6.0538,6.0576,6.1389,6.1776,6.1737,6.1118,6.0731,6.0306,5.7521,5.6128,5.5741,5.5548,5.5161,5.489,5.578,5.6089,5.6205,0.0,0.0,0.0,0.0,0.0,0.0,0.0,0.0,0.0,0.0,0.0,2.3719,2.8509,2.9128,3.0172,3.2638,3.2831,3.2831,3.2831,3.287,3.288,3.2861,3.381,0.0,0.0,0.0,0.0,4.4816,4.6495,4.8642,5.1219,5.1141,5.2078,5.3678,5.1921,4.9696,4.7002,4.3603,4.2119,4.1774,3.8467,0.0,0.0,0.0,0.0,0.0,0.0,0.0,0.0,0.0,0.0,0.0,0.0,0.0,0.0,0.0,0.0,0.0,0.0,0.0,0.0,0.0,0.0,0.0,0.0,0.0,0.0,0.0,0.0,0.0,0.0,0.0,0.0,0.0,0.0,0.0,0.0,0.0,0.0,4.7927,4.8198,0.0,0.0,0.0,0.0,5.079,5.3072,5.4155,5.3343,5.4813,5.6089,5.7018,5.7095,5.7907,5.9609,5.9725,6.0151,6.0925,6.1853,6.2278,6.2317,6.3168,6.3555,6.3555,6.3516,6.3052,6.2008,5.8642,5.7714,5.8333,5.7521,5.7637,5.8449,5.93,5.9648,5.9764,0.0,0.0,0.0,1.9993,1.9954,1.9838,1.9606,2.0888,2.2281,2.3248,2.5724,2.8315,3.0636,3.1913,3.3383,3.5356,3.5549,3.5549,3.5549,3.6112,3.5968,3.4923,3.6783,0.0,0.0,0.0,4.5145,4.8287,4.9462,5.1063,5.3053,5.3053,5.3405,5.3951,5.3366,5.2585,5.1453,4.7467,4.5437,4.4699,4.236,4.0452,0.0,0.0,0.0,0.0,0.0,0.0,0.0,0.0,0.0,0.0,0.0,0.0,0.0,0.0,0.0,0.0,0.0,0.0,0.0,0.0,0.0,0.0,0.0,0.0,0.0,0.0,0.0,0.0,0.0,0.0,0.0,0.0,0.0,0.0,0.0,0.0,0.0,4.9745,5.0016,0.0,5.2801,5.3227,5.3614,5.4155,5.5586,5.6515,5.6747,5.7869,5.8874,5.9725,6.0306,6.0886,6.1505,6.2627,6.3323,6.3632,6.4445,6.487,6.487,6.518,6.5296,6.5296,6.5296,6.5141,6.4715,6.2975,6.1466,6.019,5.988,5.9957,6.0306,6.1195,6.1505,6.1621,0.0,0.0,0.0,1.9993,2.0186,2.0302,2.0037,2.2126,2.3983,2.4563,2.7851,3.0791,3.2493,3.4195,3.5936,3.7638,3.8063,3.8102,3.7831,3.8678,3.8689,3.7616,4.0092,0.0,0.0,4.6085,4.7975,5.0555,5.1726,5.3014,5.4459,5.4732,5.4888,5.4888,5.4888,5.4693,5.4225,5.1102,4.9111,4.7858,4.5828,4.3997,4.236,0.0,0.0,0.0,0.0,0.0,0.0,0.0,0.0,0.0,0.0,0.0,0.0,0.0,0.0,0.0,0.0,0.0,0.0,0.0,0.0,0.0,0.0,0.0,0.0,0.0,0.0,0.0,0.0,0.0,0.0,0.0,0.0,0.0,0.0,4.8377,4.9359,5.1912,5.2221,5.3111,5.5432,5.5896,5.6437,5.725,5.8372,5.9261,5.9841,6.0692,6.1543,6.2394,6.2975,6.3555,6.4135,6.5257,6.5992,6.6301,6.6804,6.7075,6.7075,6.7075,6.7075,6.7075,6.7075,6.7075,6.7036,6.6495,6.5257,6.3594,6.2433,6.1969,6.2124,6.3245,6.3671,6.3864,0.0,0.0,2.0109,1.9264,1.9838,2.0734,2.1553,2.2443,2.4215,2.7589,2.8857,3.0752,3.4118,3.6013,3.7715,3.9429,4.0346,4.0539,3.9777,4.0575,4.1141,4.133,0.0,0.0,4.7578,4.9283,5.059,5.157,5.3249,5.4537,5.5435,5.6294,5.6645,5.6645,5.6645,5.6138,5.5279,5.442,5.3053,5.1297,4.8759,4.7705,4.7393,0.0,0.0,0.0,0.0,0.0,0.0,0.0,0.0,0.0,0.0,0.0,0.0,0.0,0.0,0.0,0.0,0.0,0.0,0.0,0.0,0.0,0.0,0.0,0.0,0.0,0.0,0.0,0.0,0.0,0.0,0.0,0.0,0.0,5.1061,5.0983,5.1989,5.4619,5.4929,5.5586,5.7288,5.8217,5.9068,5.9957,6.1543,6.2472,6.2472,6.3323,6.4213,6.5064,6.5102,6.5915,6.7539,6.7539,6.7965,6.8854,6.8854,6.8854,6.8893,6.8893,6.8893,6.8893,6.8893,6.8893,6.8893,6.8893,6.8893,6.8545,6.518,6.3864,6.4058,6.5682,6.6263,6.6533,2.0218,2.0379,2.0109,1.9264,2.0347,2.1436,2.1669,2.3944,2.6459,2.8664,3.1294,3.3808,3.5974,3.8334,4.0152,4.1235,4.2125,4.255,4.237,4.3802,4.524,4.6535,0.0,0.0,5.0189,5.0773,5.239,5.5162,5.5669,5.6645,5.805,5.8285,5.8089,5.7465,5.7465,5.6996,5.6177,5.5318,5.4654,5.399,5.1414,4.9969,4.9189,0.0,0.0,0.0,0.0,0.0,0.0,0.0,0.0,0.0,0.0,0.0,0.0,0.0,0.0,0.0,0.0,0.0,0.0,0.0,0.0,0.0,0.0,0.0,0.0,0.0,0.0,0.0,0.0,0.0,0.0,0.0,5.1718,5.284,5.195,5.2917,5.4697,5.725,5.7559,5.8449,6.077,6.1195,6.1737,6.2588,6.3671,6.429,6.429,6.5644,6.6572,6.6804,6.7423,6.7965,6.8429,6.8429,6.8854,6.9667,6.9667,7.0015,7.0595,7.0595,7.0595,7.0595,7.0595,7.0595,7.0595,7.0595,7.0595,7.0402,6.8236,6.7384,6.7462,6.7926,6.8081,6.8158,2.0173,2.0102,1.9716,1.918,2.0231,2.1391,2.2094,2.4757,2.734,2.905,3.1952,3.4505,3.6207,3.903,4.1274,4.2434,4.3634,4.4369,4.4446,4.6124,4.7738,4.9132,0.0,5.0274,5.1757,5.2929,5.4515,5.6546,5.7274,5.8168,5.9104,5.9456,5.9183,5.8363,5.8714,5.8441,5.7621,5.7113,5.6879,5.6684,5.4459,5.2858,5.1609,5.0243,4.8876,4.7588,4.6856,4.5724,4.4513,4.4171,0.0,0.0,0.0,0.0,0.0,0.0,0.0,0.0,0.0,0.0,0.0,0.0,0.0,0.0,0.0,0.0,0.0,0.0,0.0,0.0,0.0,0.0,0.0,0.0,5.4581,5.6012,5.5509,5.5973,5.7327,5.988,6.019,6.1041,6.3284,6.3478,6.398,6.518,6.576,6.6224,6.6572,6.7539,6.8042,6.8042,6.8854,6.9473,6.986,7.0208,7.0827,7.164,7.164,7.191,7.2375,7.2375,7.2375,7.2375,7.2375,7.2375,7.2375,7.2375,7.2375,7.222,0.0,0.0,0.0,0.0,7.0634,7.0943,1.9973,1.9587,1.9085,1.9103,1.9799,2.1043,2.29,2.5182,2.7379,2.9321,3.1719,3.3924,3.5665,3.8798,4.1467,4.3169,4.4755,4.5838,4.6158,4.7784,4.9158,5.0145,5.1736,5.2675,5.2916,5.5269,5.6637,5.695,5.8492,5.93,5.9417,6.0198,6.008,5.93,6.0041,5.9924,5.9104,5.9104,5.9104,5.8987,5.7465,5.5825,5.4186,5.321,5.2351,5.1492,4.993,4.8915,4.8209,4.7311,0.0,0.0,0.0,0.0,0.0,0.0,0.0,0.0,0.0,0.0,0.0,0.0,0.0,0.0,0.0,0.0,0.0,0.0,0.0,0.0,0.0,0.0,0.0,0.0,5.8023,6.0228,6.0306,5.9764,6.0151,6.2433,6.2704,6.34,6.5102,6.5257,6.5953,6.7539,6.7655,6.7965,6.8777,6.897,0.0,0.0,0.0,7.0789,7.1601,7.2375,7.3187,7.4038,7.4038,7.4154,7.4347,7.4347,7.4386,7.4463,7.4463,7.4463,7.4463,7.4463,7.4541,7.4425,7.2375,7.1601,7.1678,7.2452,7.3226,7.3883,1.9143,1.9227,1.9085,1.9091,1.9838,2.1423,2.4525,2.5948,2.7804,3.0907,3.2957,3.4775,3.6477,3.9146,4.1467,4.3169,4.4253,4.5722,4.7874,4.8963,5.0255,5.1773,5.2219,5.344,5.5516,5.6168,5.7532,5.966,5.9968,6.051,6.1213,6.1369,6.0978,6.0159,6.0315,5.9924,5.9104,5.9104,5.9104,5.9065,5.8753,5.7582,5.5942,5.4342,5.3639,5.3444,5.3132,5.2897,5.2624,5.1765,5.0383,4.8902,4.8226,4.7198,0.0,0.0,0.0,0.0,0.0,0.0,0.0,0.0,0.0,0.0,0.0,0.0,0.0,0.0,0.0,0.0,0.0,0.0,0.0,5.7869,6.0151,6.2162,6.2859,6.3439,6.3942,6.4445,6.4483,6.5141,6.6843,6.7036,6.7423,6.8468,6.8545,6.8622,6.8777,7.0092,7.0827,7.0827,7.2336,7.3226,7.3419,7.3574,7.4077,7.4889,7.4889,0.0,7.6978,7.6978,7.7365,7.8022,7.8022,7.8022,7.8022,7.8022,7.8409,7.8602,7.485,7.3419,7.3419,7.3574,7.3767,7.3883,1.8335,1.8384,1.8725,1.9593,1.9754,2.1191,2.5445,2.6102,2.7155,3.0172,3.2029,3.3576,3.4853,3.729,3.9881,4.2434,4.5026,4.7076,4.8353,4.9653,5.0929,5.2182,5.277,5.4081,5.6262,5.7288,5.8632,6.0415,6.0831,6.1252,6.172,6.172,6.1486,6.1056,6.1056,6.0822,6.0393,6.0393,6.0393,6.0354,5.9924,5.9261,5.8363,5.7035,5.602,5.5318,5.5318,5.4732,5.399,5.399,5.2833,5.1364,5.1357,5.0386,4.9088,0.0,0.0,0.0,0.0,0.0,0.0,0.0,0.0,0.0,0.0,0.0,0.0,0.0,0.0,5.5006,5.5896,0.0,5.9996,6.0422,6.2317,6.3864,6.429,6.545,6.6263,6.6263,6.6263,6.6766,6.8042,6.8158,6.8506,6.9357,6.9783,7.0247,7.0672,7.191,7.2607,7.2607,7.3844,7.4502,7.4502,7.5353,7.6011,7.6397,7.6862,7.7519,7.8332,7.8332,7.8602,7.8989,7.8989,7.9028,7.9105,7.9183,7.9453,7.9583,7.7495,7.707,7.7635,7.721,7.7055,7.7016,1.7936,1.8066,1.8789,2.0353,1.9903,2.1075,2.618,2.6141,2.6497,2.9205,3.0714,3.1952,3.2986,3.5085,3.787,4.1467,4.5374,4.7811,4.8121,4.9745,5.1215,5.2414,5.3236,5.4602,5.6524,5.8246,5.953,6.0387,6.1264,6.172,6.172,6.172,6.172,6.172,6.172,6.172,6.172,6.172,6.172,6.1642,6.0939,6.0666,6.0549,5.969,5.8285,5.684,5.684,5.5825,5.4576,5.5123,5.4381,5.326,5.3555,5.2925,5.1821,5.0725,5.0957,0.0,0.0,0.0,0.0,0.0,0.0,0.0,0.0,5.2801,5.3691,5.5432,5.6321,5.7288,5.9029,6.0576,6.1892,6.2781,6.4367,6.5489,6.5489,6.6804,6.781,6.7965,6.7849,6.8081,6.897,6.9203,6.9628,7.044,7.1291,7.2104,7.28,7.369,7.4115,7.4115,7.5082,7.5624,7.5624,7.7171,7.7945,7.7945,7.8641,7.9067,7.9221,7.9221,7.9337,7.9531,7.9531,7.9641,7.977,8.0041,8.0135,8.0152,8.0306,8.1081,8.1895,8.0561,8.0034,7.9956,1.8531,1.9388,2.0349,2.1313,2.0718,2.1898,2.7082,2.652,2.6691,3.0017,3.0636,3.1333,3.2908,3.404,3.6361,4.0578,4.344,4.5645,4.7154,4.8856,5.0906,5.3265,5.3585,5.4875,5.741,5.8558,5.953,6.0387,6.1264,6.172,6.172,6.172,6.172,6.172,6.172,6.172,6.172,6.172,6.172,6.1681,6.1603,6.1564,6.1447,6.0588,5.9183,5.766,5.766,5.7074,5.6216,5.5513,5.5162,5.4736,5.3299,5.3669,5.4369,5.2757,5.2784,5.313,5.2206,5.195,5.2453,5.4619,5.4697,5.4851,0.0,5.7211,5.7211,5.8952,5.9416,5.9996,6.166,6.2743,6.3671,6.4561,6.6108,6.723,6.723,6.8042,6.8932,6.9628,6.9087,6.897,6.9783,7.0556,7.1369,7.2258,7.3109,7.3651,7.3767,7.4541,7.4966,7.4966,7.6552,7.7403,7.7403,7.837,7.8834,7.8873,7.895,7.9376,8.0072,8.0072,8.0536,8.1387,8.1504,8.16,8.1675,8.2454,8.2766,8.2844,8.3647,8.4037,8.3758,8.0639,7.9506,7.9453,2.0124,2.1033,2.1867,2.2213,2.1629,2.2462,2.6601,2.6232,2.6326,2.8762,2.9969,3.0675,3.0868,3.3421,3.6284,3.9069,4.255,4.5104,4.6264,4.8469,5.0596,5.2647,5.331,5.4645,5.6787,5.7802,5.8745,5.9645,6.0018,6.0432,6.0939,6.0939,6.1213,6.172,6.172,6.172,6.172,6.172,6.172,6.172,6.172,6.1408,6.09,6.0549,5.9339,5.7816,5.7816,5.727,0.0,5.6177,5.5708,5.5162,5.442,5.4669,5.4995,5.3789,5.4292,5.5143,5.4721,5.4503,5.4774,5.636,5.6902,5.7404,5.899,5.9455,5.988,6.1118,6.1776,6.2472,6.3671,6.5025,6.6031,6.6417,6.7462,6.8274,6.8274,6.897,6.9821,7.0672,7.0905,7.1137,7.1485,7.1833,7.2413,7.3303,7.4115,7.4618,7.4618,7.5895,7.663,7.663,7.779,7.8448,7.8448,7.9299,7.9724,7.9801,8.0343,8.0807,8.1194,8.1194,8.1436,8.1813,8.1934,8.2011,8.2029,8.2504,8.2662,8.269,8.3087,8.3533,8.3792,8.2215,8.1618,8.1541,2.1843,2.2543,2.3093,2.3158,2.25,2.2863,2.5571,2.5627,2.603,2.7777,2.9303,3.0008,2.936,3.2493,3.5201,3.6671,4.05,4.3363,4.4678,4.7424,4.9823,5.1757,5.2739,5.3974,5.5551,5.6751,5.7675,5.8398,5.8856,5.9425,6.0041,6.0041,6.0393,6.0978,6.1213,6.133,6.1369,6.1603,6.1564,6.133,6.133,6.0822,6.0002,5.9768,5.8753,5.7504,5.7738,5.727,5.6606,5.6606,5.6177,5.563,5.5396,5.5474,5.5513,5.4896,5.5856,5.7125,5.7232,5.7172,5.7327,5.8449,5.9184,5.988,6.0731,6.1582,6.2356,6.2975,6.3787,6.4561,6.5218,6.6533,6.7501,6.7501,6.8429,6.9203,6.9473,7.0208,7.1021,7.191,7.2568,7.3032,7.3264,7.3303,7.3535,7.4193,7.5005,7.5546,7.5817,7.7016,7.779,7.8061,7.8873,7.9337,7.9376,8.0188,8.0653,8.0769,8.1453,8.1801,8.1852,8.1929,8.2101,8.2326,8.247,8.2668,8.2859,8.2974,8.3008,8.3007,8.3022,8.3401,8.3947,8.3752,8.3674,8.3547,2.3411,2.3686,2.3837,2.4034,2.336,2.3099,2.4041,2.4876,2.6022,2.7786,2.8782,2.9332,2.9282,3.0868,3.23,3.3179,3.64,3.9456,4.1932,4.5297,4.8314,5.0828,5.1833,5.2809,5.3778,5.552,5.6475,5.6595,5.8281,5.909,5.9143,5.9143,5.9143,5.9222,6.0041,6.0432,6.0471,6.133,6.1213,6.0432,6.0432,5.9924,5.9065,5.8207,5.7348,5.6723,5.7504,5.727,5.6606,5.6606,5.6567,5.6411,5.5552,5.5864,5.6571,5.6512,5.7594,5.9004,5.9697,5.9841,6.019,6.1814,6.2278,6.2511,6.34,6.4251,6.487,6.4909,6.5566,6.6147,6.6147,6.6882,6.7501,6.7501,6.8893,7.0247,7.1098,7.1949,7.2839,7.3728,7.3844,7.4193,7.4966,7.5044,7.5044,7.5082,7.5856,7.6707,7.7558,7.7674,7.8099,7.8912,7.9724,8.0227,8.0367,8.1233,8.1658,8.1658,8.1826,8.1809,8.1697,8.1968,8.2573,8.3343,8.3522,8.4022,8.4804,8.4804,8.4804,8.4804,8.4804,8.4843,8.4843,8.4843,8.4843,8.4843,2.4294,2.4017,2.361,2.3186,2.2412,2.1827,2.162,2.3732,2.5793,2.693,2.8377,0.0,0.0,0.0,0.0,0.0,3.5201,3.7638,4.0152,4.3556,4.6573,4.9126,5.0627,5.1794,5.277,5.3984,5.4624,5.4713,5.5388,5.6284,5.7372,5.7434,5.805,5.9104,5.9417,5.9534,5.9573,5.9846,5.9807,5.9534,5.9534,5.9026,5.8285,5.8558,5.7816,5.6723,0.0,5.6918,5.5825,5.6411,5.6606,5.6645,5.6879,5.7153,5.76,5.8718,6.02,6.1456,6.1617,6.2027,6.2704,6.3826,6.4135,6.4329,6.518,6.6031,6.665,6.665,6.7346,6.7926,6.7926,6.8584,6.9164,6.9164,7.0131,7.1175,7.2026,7.2413,7.3109,7.4541,7.4695,7.5276,7.6707,7.5779,7.5585,7.6746,7.7094,7.7635,7.8525,7.9067,7.9492,7.9801,8.0614,8.1078,8.1117,8.1426,8.1624,8.1718,8.2513,8.3203,8.3857,8.452,8.5301,8.6129,8.6164,8.6367,8.6562,8.6015,8.5742,8.5703,8.5117,8.5234,8.5742,8.5742,8.6133,8.6445,2.4317,2.3931,2.3297,2.2266,2.1689,0.0,0.0,0.0,0.0,0.0,0.0,0.0,0.0,0.0,0.0,0.0,0.0,3.5742,3.7986,4.1622,4.4794,4.7347,4.8817,5.0124,5.1372,5.2286,5.2961,5.3345,5.3779,5.4531,5.5622,5.5642,5.6255,5.7309,5.7582,5.7738,5.7777,5.8089,5.8558,5.9026,5.8128,5.7777,5.7777,5.7426,5.6606,0.0,5.6606,5.6216,5.5435,5.6294,5.6606,5.6684,5.7192,5.8011,5.9045,6.0788,6.2406,6.3711,6.3903,6.4329,6.4948,6.6069,6.6108,6.6185,6.7307,6.7771,6.7965,6.7965,6.8429,6.8816,6.8816,6.9473,6.9976,6.9976,7.0982,7.2065,7.2955,7.3303,7.4115,7.5817,7.6049,7.6591,7.8022,7.7132,7.6978,7.8061,7.8177,7.8525,7.9376,7.9918,8.0343,8.0653,8.1233,8.1542,8.1581,8.22,8.2902,8.366,8.4416,8.5155,8.5859,8.6406,8.6953,8.75,8.75,8.75,8.7461,8.6914,8.664,8.6601,8.6054,8.6172,8.664,8.664,8.7031,8.7344,2.3551,2.3393,2.291,0.0,0.0,0.0,0.0,0.0,0.0,0.0,0.0,0.0,0.0,0.0,0.0,0.0,0.0,0.0,3.5433,3.9456,0.0,4.549,4.6419,4.7777,4.9627,5.0467,5.1356,5.2285,5.3256,5.3748,5.3865,5.3927,5.3951,5.4029,5.4849,5.524,5.5279,5.6138,5.7387,5.8636,5.6216,5.6177,5.7348,5.4966,5.4029,5.4108,5.5044,5.5318,5.5357,5.6255,5.6606,5.6684,5.6762,5.8558,6.0948,6.2616,6.4237,6.5645,6.6496,6.6631,6.692,6.8545,6.8274,6.8042,6.9628,6.9396,6.8854,6.8854,6.8893,6.8932,6.8932,6.9551,7.0054,7.0054,7.1485,7.2916,7.3767,7.4618,7.5817,0.0,0.0,0.0,0.0,0.0,7.9067,7.9105,7.9105,7.9415,8.0227,8.0266,8.0653,8.1465,8.1504,8.162,8.1813,8.3592,8.5359,8.7216,8.7255,8.7378,8.7578,8.7578,8.7578,8.7617,8.7617,8.7617,8.7617,8.7578,8.7578,8.7578,8.7578,8.7578,8.7578,8.7617,8.7617,8.7617,0.0,0.0,0.0,0.0,0.0,0.0,0.0,0.0,0.0,0.0,0.0,0.0,0.0,0.0,0.0,0.0,0.0,0.0,3.3615,3.6555,3.9649,4.2821,4.3788,4.5388,4.7724,4.8076,4.8666,4.9596,5.0528,5.1355,5.2068,5.2722,5.3366,5.4029,5.4225,5.4342,5.4342,5.4576,5.4927,5.524,5.4576,5.4576,5.4966,5.4966,5.4576,5.4186,5.5708,5.5435,5.4459,5.5357,5.645,5.7738,5.9026,6.1213,6.3494,6.449,6.5524,6.6649,6.7981,6.8296,6.8661,7.0247,7.0015,6.9473,6.9899,6.9821,6.9705,6.9705,7.0208,7.0672,7.0672,7.0827,7.0982,7.0982,7.1872,7.2916,7.3767,7.516,7.6475,7.7558,0.0,7.8989,7.9801,7.9879,8.015,8.0807,8.0266,8.0266,8.1117,8.1194,8.1271,8.1504,8.1504,8.22,8.3618,8.5475,8.6675,8.7255,8.7293,8.7689,8.8398,8.8398,8.875,8.9375,8.9375,8.9375,8.9297,8.8672,8.8398,8.8398,8.8398,8.8398,8.8476,8.9101,8.9375,8.9375,0.0,0.0,0.0,0.0,0.0,0.0,0.0,0.0,0.0,0.0,0.0,0.0,0.0,0.0,0.0,0.0,0.0,0.0,0.0,3.4737,3.756,4.023,4.1545,4.3208,4.5374,4.588,4.6717,4.8017,4.8574,4.9348,5.0267,5.0778,5.1268,5.1726,5.1726,5.1726,5.1726,5.1726,5.239,0.0,0.0,5.2429,5.3366,5.2702,5.2624,5.3053,5.4381,5.4732,5.4693,5.5591,5.6723,5.8168,6.0315,6.2228,6.3958,6.5155,6.6367,6.7494,6.8221,6.8718,6.9469,7.1407,7.0943,7.0286,7.1446,7.0827,6.9976,6.9976,7.0092,7.044,7.1175,7.0982,7.0982,7.1756,7.2607,7.3342,7.3844,7.5662,7.7287,0.0,7.9028,0.0,8.0691,8.0769,8.0962,8.1465,8.1039,8.1001,8.1465,8.1504,8.189,8.2689,8.2728,8.3971,8.6613,8.7716,8.8481,8.8945,8.9039,8.9116,8.9258,8.9258,8.9336,8.9414,8.9414,8.9219,8.8906,8.875,8.8711,8.875,8.9101,8.9258,8.9336,8.9804,9.0,9.0039,0.0,0.0,0.0,0.0,0.0,0.0,0.0,0.0,0.0,2.8933,2.9006,2.8901,2.8846,2.7498,0.0,0.0,0.0,0.0,0.0,0.0,3.5858,3.7793,3.9301,4.0965,4.2744,4.3698,4.4971,4.6618,4.6902,4.7489,4.8309,4.8398,4.8469,4.845,4.8603,4.8642,4.8642,4.8759,5.0126,5.196,4.9696,5.0165,5.1921,0.0,4.9891,5.1531,5.2507,5.399,5.5591,5.6489,5.7309,5.8441,6.1056,6.2623,6.3833,6.5473,6.7099,6.8355,6.8319,6.8885,6.9988,7.2197,7.1562,7.0943,7.3226,7.1794,6.9976,6.9976,6.9357,6.9241,7.0711,7.044,7.0479,7.2026,7.3071,7.3767,7.3883,7.5972,7.7906,7.8873,7.9724,8.0536,8.1426,8.1504,8.1504,8.1504,8.1504,8.1504,8.1504,8.1736,8.2703,8.4572,8.4878,8.6457,8.9416,8.98,9.0314,9.0957,9.0945,9.0547,8.9804,8.9726,8.9258,8.8554,8.8554,8.8203,8.7695,8.8398,8.8789,8.8945,8.9844,9.0156,9.0195,9.0312,9.0351,9.0469,0.0,0.0,0.0,0.0,0.0,0.0,0.0,2.7229,2.7823,2.8811,2.8449,2.7852,2.7131,2.6795,0.0,0.0,0.0,0.0,0.0,0.0,0.0,3.6013,3.64,3.7715,4.0113,4.1016,4.1993,4.2981,4.4526,4.5378,4.5572,4.6365,4.6715,4.6752,4.7478,4.7822,4.7861,4.8525,4.9072,4.9423,4.8993,4.9072,4.9423,4.8954,0.0,0.0,5.321,5.4888,5.6489,5.7309,5.8168,5.9339,6.1954,6.4379,6.641,6.7464,6.8427,6.9449,7.0706,7.1131,7.164,7.3264,7.2916,7.2258,7.2723,7.1369,6.9976,6.9976,6.9357,6.8893,6.9164,6.9667,7.0092,7.0402,7.1794,7.3071,7.3806,7.5469,7.721,0.0,7.9724,8.0536,8.1426,8.1504,8.1504,8.1504,8.1504,8.1504,8.1504,8.2857,8.4508,8.6314,8.7875,8.8667,8.8678,9.0256,9.0759,9.0169,8.9489,8.9062,8.8906,8.8242,8.7851,8.7695,8.7695,8.8008,8.8515,8.8633,8.9101,8.9844,9.0742,9.1054,9.1172,9.1875,9.2148,9.2187,0.0,0.0,0.0,0.0,0.0,0.0,0.0,2.7462,2.7774,2.9303,2.9652,2.9423,2.8648,2.7785,2.7295,0.0,0.0,0.0,0.0,0.0,0.0,3.4272,3.5201,3.6477,3.8102,3.8992,4.0111,4.1419,0.0,4.321,4.4226,4.4672,4.4921,4.4958,4.5372,4.5558,4.5597,4.5987,4.6417,4.6807,4.6807,4.7081,4.7549,0.0,0.0,0.0,5.3014,5.4732,5.6645,5.7035,5.8324,6.0241,6.2865,6.4867,6.6476,6.7804,6.9099,7.023,7.0862,7.1326,7.1949,7.2955,7.2568,7.191,7.191,7.0595,6.9241,6.8777,6.8042,6.7733,6.8622,6.9125,6.9667,7.0518,7.1756,7.2916,7.3767,7.5353,7.7055,7.8796,7.9724,8.0536,8.1426,8.1504,8.1504,8.1504,8.1929,8.22,8.2277,8.4881,8.6997,8.8339,8.9729,9.0321,8.9949,9.0412,9.0195,8.9336,8.8906,8.8476,8.8047,8.7695,8.75,8.7539,8.7929,8.8359,8.8789,8.9687,9.0312,9.0742,9.164,9.1992,9.2031,9.2461,9.2617,9.2617,0.0,0.0,0.0,0.0,0.0,0.0,0.0,2.7716,2.7968,3.0462,3.1295,3.1589,3.1431,2.9636,2.8362,0.0,0.0,0.0,0.0,0.0,0.0,0.0,0.0,3.5626,3.6632,0.0,0.0,4.0234,4.0438,0.0,0.0,0.0,0.0,0.0,4.3349,4.3417,4.3411,4.3606,4.4192,0.0,0.0,4.5792,4.6729,0.0,0.0,0.0,0.0,5.4693,5.6645,5.6801,5.8324,6.0553,6.2993,6.4726,6.6188,6.7928,6.9492,7.0661,7.0707,7.1194,7.1794,7.2258,7.1833,7.1253,7.1059,6.9705,6.8274,6.7384,6.6379,6.6147,6.7694,6.8119,6.8816,7.0479,7.1485,7.2491,7.3728,7.5044,7.663,7.8757,7.9569,0.0,8.1387,8.1504,8.1581,8.1774,8.2973,8.3811,8.4082,8.6886,8.8965,9.0043,9.0665,9.092,9.0742,9.0078,8.9297,8.8437,8.8437,8.8125,8.75,8.75,8.75,8.7539,8.8359,8.8828,8.9101,9.0664,9.1406,9.164,9.2344,9.2617,9.2617,9.2617,9.2617,9.2617,0.0,0.0,0.0,0.0,0.0,0.0,0.0,2.8073,2.8519,3.2503,3.2686,3.3035,3.4503,3.1993,2.9852,0.0,0.0,0.0,0.0,0.0,0.0,0.0,0.0,0.0,0.0,0.0,0.0,3.8462,3.9293,0.0,0.0,0.0,0.0,0.0,0.0,4.2531,4.2552,4.3372,0.0,0.0,0.0,0.0,0.0,0.0,0.0,0.0,0.0,5.5708,5.6723,5.7426,5.8363,5.9538,6.1352,6.4092,6.6943,6.8769,6.9922,7.0742,7.1484,7.1689,7.1678,7.1601,7.1446,7.1098,7.0286,6.8816,6.7384,6.6495,6.5064,6.4213,6.518,6.5953,6.6998,6.8738,6.9705,7.1098,7.3535,7.4038,7.5353,7.8602,0.0,7.9724,8.1349,8.1504,8.1852,8.2625,8.5127,8.6933,8.7603,8.8087,8.9155,9.0931,9.0288,8.9601,8.8945,8.8867,8.8398,8.7617,8.7617,8.7578,8.75,8.75,8.75,8.7539,8.8359,8.914,8.9961,9.0898,9.1758,9.25,9.2578,9.2617,9.2617,9.2617,9.2617,9.2617,0.0,0.0,0.0,0.0,0.0,0.0,2.9147,2.8872,2.983,3.3607,3.4907,3.5796,3.657,3.52,3.3237,3.0852,0.0,0.0,0.0,0.0,0.0,0.0,0.0,0.0,0.0,0.0,3.7328,3.8218,3.9093,0.0,0.0,0.0,0.0,0.0,0.0,4.1637,4.1631,4.1973,0.0,0.0,0.0,0.0,0.0,0.0,0.0,0.0,0.0,0.0,5.6645,5.6957,5.766,5.8679,6.0366,6.2182,6.4177,6.7058,6.9198,7.0703,7.1015,7.1363,7.1675,7.1531,7.0982,7.0286,6.9473,6.7965,6.6495,6.5644,6.4522,6.3787,6.4135,6.5296,6.6611,6.781,6.9125,7.0905,7.3535,7.3883,7.516,7.8602,7.8989,7.9647,8.1349,8.1504,8.2316,8.4314,8.6056,8.7603,8.9062,8.9261,8.9672,9.0401,8.9582,8.8994,8.8711,8.8203,8.7812,8.75,8.75,8.75,8.75,8.75,8.75,8.7578,8.8906,8.9687,9.0117,9.1523,9.2304,9.2617,9.2617,9.2617,9.2617,9.2617,9.2617,9.2617,0.0,0.0,0.0,0.0,0.0,2.7474,2.9147,2.9184,3.0251,3.3687,3.556,3.6803,3.7433,3.6752,3.5206,3.2582,3.1392,0.0,0.0,0.0,0.0,0.0,0.0,0.0,0.0,0.0,3.7444,3.8566,3.9185,3.9956,0.0,0.0,4.0935,4.0983,0.0,0.0,0.0,0.0,0.0,0.0,0.0,0.0,0.0,0.0,0.0,0.0,0.0,0.0,0.0,0.0,0.0,5.8089,5.9265,6.0571,6.2301,6.5801,6.828,7.0001,7.0467,7.1128,7.168,7.1571,7.075,6.9705,6.8661,6.7075,6.5528,6.4445,6.3555,6.3013,6.3284,6.4483,6.5915,6.7268,6.87,7.0556,7.3148,7.396,7.543,7.8602,7.9453,8.0304,8.1736,8.2122,8.3167,8.5398,8.6708,8.7987,8.9345,8.9535,8.9609,8.9609,8.8789,8.8359,8.8359,8.7773,8.75,8.75,8.75,8.75,8.75,8.75,8.7617,8.7929,8.9375,9.0156,9.0508,9.1992,9.2617,9.2617,9.2617,9.2617,9.2617,9.2617,9.2617,9.2617,0.0,0.0,0.0,0.0,0.0,0.0,2.9147,2.8663,2.9275,3.2581,3.3949,3.5227,3.6836,3.5932,3.483,3.3974,3.2516,0.0,0.0,0.0,0.0,0.0,0.0,0.0,0.0,0.0,3.7754,3.9507,3.9507,3.9956,4.0787,4.0888,4.0929,4.1017,0.0,0.0,0.0,0.0,0.0,0.0,0.0,0.0,0.0,0.0,0.0,0.0,0.0,0.0,0.0,0.0,0.0,0.0,0.0,5.9651,6.2379,6.5716,6.7328,6.8424,7.0136,7.1128,7.1719,7.1688,7.0827,6.9551,6.7887,6.6224,6.4522,6.2781,6.1737,6.1389,6.224,6.3129,6.4561,6.7075,6.8236,6.9705,7.2258,7.4038,7.6049,7.868,8.0459,8.1813,8.2703,8.3554,8.4482,8.5436,8.7214,8.8339,8.8516,8.8628,8.8711,8.8711,8.7929,8.75,8.75,8.75,8.75,8.75,8.75,8.75,8.75,8.75,8.7929,8.875,8.9609,9.0508,9.1367,9.2226,9.2617,9.2617,9.2617,9.2617,9.2617,9.2617,9.2617,9.2617,0.0,0.0,0.0,0.0,0.0,0.0,0.0,2.7494,2.8254,3.0984,3.2248,3.3559,3.5358,3.4826,3.4014,3.3259,3.2289,0.0,0.0,0.0,0.0,0.0,0.0,0.0,0.0,0.0,3.8334,3.9507,4.0655,4.1364,4.1659,4.2343,4.2675,4.2719,4.2777,4.2975,0.0,0.0,0.0,0.0,0.0,0.0,0.0,0.0,0.0,0.0,0.0,0.0,0.0,0.0,0.0,0.0,0.0,0.0,0.0,6.2289,6.4559,6.6484,6.7637,6.8444,6.9127,6.9748,6.8661,6.7268,6.6727,6.4831,6.3091,6.2511,6.1698,6.1195,6.1466,6.2704,6.4522,6.7075,6.8236,6.9899,7.3071,7.396,7.5237,7.779,8.0111,8.1852,8.2703,8.367,8.4856,8.643,8.7173,8.7871,8.8605,8.8103,8.7838,8.789,8.7617,8.75,8.75,8.75,8.75,8.75,8.75,8.75,8.75,8.75,8.7929,8.875,8.9609,9.0508,9.1367,9.2226,9.2617,9.2617,9.2617,9.2617,9.2617,9.2617,9.2617,9.2617,0.0,0.0,0.0,0.0,0.0,0.0,0.0,2.6972,2.7697,2.9853,3.0968,3.2217,3.4091,3.3729,3.3188,3.2823,3.2122,0.0,0.0,0.0,0.0,0.0,0.0,0.0,0.0,3.8233,3.9405,4.0926,4.2318,4.2976,4.3015,4.3978,4.4228,4.3976,4.437,4.4577,0.0,0.0,0.0,0.0,0.0,0.0,4.9709,0.0,0.0,0.0,0.0,0.0,0.0,0.0,0.0,0.0,0.0,0.0,0.0,0.0,6.1322,6.333,6.5523,6.662,6.7328,6.7947,6.6882,6.5644,6.5334,6.3787,6.2317,6.1969,6.1466,6.1195,6.1543,6.3013,6.5025,6.7578,6.897,7.0711,7.3496,7.4425,7.5895,7.8796,8.0807,8.2316,8.3206,8.3927,8.4901,8.6418,8.6962,8.7487,8.8156,8.7688,8.7436,8.7453,8.7457,8.7459,8.7459,8.7459,8.7459,8.7459,8.7459,8.746,8.7461,8.7461,8.8086,8.9219,8.9765,9.0664,0.0,9.2383,9.2617,9.2617,9.2617,9.2617,9.2617,9.2617,9.2617,9.2617,0.0,0.0,0.0,0.0,0.0,0.0,0.0,2.6989,2.7438,2.9113,3.0006,3.1113,3.2872,3.2562,3.2286,3.2432,0.0,0.0,0.0,0.0,0.0,0.0,0.0,0.0,0.0,3.9058,4.0733,4.3285,4.4291,4.4833,4.491,4.5829,4.5813,4.5103,4.5969,4.6325,0.0,0.0,0.0,0.0,0.0,0.0,0.0,0.0,0.0,0.0,0.0,0.0,0.0,0.0,0.0,0.0,0.0,0.0,0.0,0.0,0.0,0.0,0.0,6.5335,6.6051,6.6187,6.5509,6.4599,6.3787,6.2936,0.0,6.1273,6.1157,6.1427,6.224,6.3903,6.5992,6.8468,7.0247,7.1949,7.3806,7.5546,7.779,8.1039,8.2161,8.3128,8.4173,8.4314,8.4766,8.5832,8.6722,8.7269,8.7372,8.7408,8.7397,8.7407,8.7397,8.7408,8.7408,8.7408,8.7408,8.7408,8.7408,8.7414,8.7382,8.7382,8.8359,9.0,9.0,9.0976,9.2617,9.2617,9.2617,9.2617,9.2617,9.2617,9.2617,9.2617,9.2617,9.2617,0.0,0.0,0.0,0.0,0.0,0.0,0.0,0.0,0.0,0.0,2.9032,2.959,3.0722,3.0746,3.072,0.0,0.0,0.0,0.0,0.0,0.0,0.0,0.0,0.0,0.0,3.9625,4.1351,4.3285,4.5452,4.6844,4.754,4.9083,4.9382,4.8599,4.8886,4.8343,0.0,0.0,0.0,0.0,0.0,0.0,0.0,0.0,0.0,0.0,5.1286,5.2127,0.0,0.0,0.0,0.0,0.0,0.0,0.0,0.0,5.7521,5.7985,5.9666,0.0,6.2665,6.4077,6.3729,6.2975,0.0,6.2046,6.135,6.1157,6.1621,6.2162,6.2356,6.487,6.7539,6.9396,7.0595,7.2375,7.5392,7.7287,7.8912,8.0343,8.1271,8.2935,8.5862,8.5127,8.5385,8.7653,8.7536,8.7366,8.7381,8.742,8.7414,8.7407,8.7414,8.742,8.742,8.742,8.742,8.742,8.742,8.7381,8.7392,8.7408,8.8352,8.9992,8.9992,9.1008,9.2609,9.2616,9.2617,9.2617,9.2617,9.2617,9.2617,9.2617,9.2617,9.2617,0.0,0.0,0.0,0.0,0.0,0.0,0.0,0.0,0.0,0.0,0.0,0.0,0.0,0.0,0.0,0.0,0.0,0.0,0.0,0.0,0.0,0.0,0.0,0.0,3.9199,4.0963,4.2883,4.5026,4.7231,4.8546,4.9049,5.0317,5.0752,5.0386,5.051,4.9637,0.0,0.0,0.0,0.0,4.5838,0.0,0.0,0.0,0.0,0.0,5.0941,5.1787,0.0,5.3479,5.4567,5.5657,0.0,0.0,0.0,0.0,5.6747,5.6902,5.7753,5.9261,6.077,6.1794,6.1892,6.1814,6.1814,6.1737,6.1698,6.1698,6.2394,6.3245,6.4019,6.6301,6.8661,7.0324,7.2297,7.4695,7.7713,7.895,7.9879,8.0691,8.1929,8.3631,8.6043,8.5536,8.6038,8.8344,8.7811,8.7407,8.7407,8.7407,8.7407,8.7407,8.7407,8.7407,8.7407,8.7407,8.7407,8.7407,8.7407,8.7407,8.7407,8.7816,8.8719,9.0008,9.0438,9.1375,9.259,9.2603,9.2613,9.2617,9.2617,9.2617,9.2617,9.2617,9.2617,9.2617,0.0,0.0,0.0,0.0,0.0,0.0,0.0,0.0,0.0,0.0,0.0,0.0,0.0,0.0,0.0,0.0,0.0,0.0,0.0,0.0,0.0,0.0,0.0,3.8204,4.0549,4.2671,4.4877,4.7115,4.9243,5.0287,5.0287,5.1254,5.1615,5.1486,5.1502,5.0494,0.0,0.0,0.0,0.0,4.4587,0.0,0.0,0.0,0.0,0.0,0.0,0.0,0.0,5.3166,5.4481,5.5818,5.5973,0.0,0.0,0.0,0.0,0.0,5.7056,5.8565,5.988,5.988,6.0499,6.1118,6.1273,6.1892,6.2433,6.2588,6.34,6.4561,6.6108,6.8042,6.9899,7.1446,7.4463,7.7365,7.9531,8.0034,8.0536,8.1387,8.3051,8.4624,8.5888,8.6005,8.6756,8.8597,8.7885,8.7407,8.7407,8.7407,8.7407,8.7407,8.7407,8.7407,8.7407,8.7407,8.7407,8.7407,8.7407,8.7407,8.7446,8.8305,8.9242,9.0257,9.1116,9.1975,9.2795,9.2795,9.2707,9.2616,9.2617,9.2617,9.2617,9.2617,9.2617,9.2617,0.0,0.0,0.0,0.0,0.0,0.0,0.0,0.0,0.0,0.0,0.0,0.0,0.0,0.0,0.0,0.0,0.0,0.0,0.0,0.0,0.0,0.0,0.0,3.9437,4.0588,4.4407,4.6654,4.7115,5.1022,5.2917,5.2956,5.4503,5.4506,5.3261,5.263,5.1005,4.8787,4.8358,0.0,0.0,4.5917,0.0,0.0,0.0,0.0,0.0,0.0,0.0,0.0,5.2276,5.3166,5.4039,5.4868,0.0,0.0,0.0,0.0,0.0,5.7056,5.8565,5.988,5.988,6.0499,6.1311,6.2046,6.2317,6.2627,6.3362,6.4754,6.6108,6.7114,6.9899,7.2336,7.3342,7.574,7.7635,7.8022,7.9299,8.0536,8.1387,8.3153,8.5204,8.7642,8.7339,8.7759,8.9646,8.829,8.7407,8.7407,8.7407,8.7407,8.7407,8.7407,8.7407,8.7407,8.7407,8.7407,8.7407,8.7407,8.7407,8.7446,8.8305,8.9594,9.1155,9.1975,9.2795,9.3615,9.3615,9.3192,9.258,9.2613,9.2617,9.2617,9.2617,9.2617,9.2617,0.0,0.0,0.0,0.0,0.0,0.0,0.0,0.0,0.0,0.0,0.0,0.0,0.0,0.0,0.0,0.0,0.0,0.0,0.0,0.0,0.0,0.0,0.0,0.0,4.2671,4.5989,4.8199,4.9165,5.2066,5.3498,5.3498,5.432,5.3839,5.224,5.2414,5.1337,4.9378,4.8974,4.8086,4.6839,0.0,0.0,0.0,0.0,0.0,0.0,0.0,0.0,0.0,0.0,5.2856,5.3652,5.4542,0.0,0.0,0.0,0.0,0.0,5.7056,5.8217,5.9648,6.1466,6.2897,6.3942,6.4367,6.5528,6.634,6.5876,6.7075,6.8506,6.9396,7.1214,7.3342,7.5585,7.6939,7.8177,7.9569,8.042,8.1233,8.2084,8.4237,8.615,8.7456,8.7804,8.848,8.99,8.839,8.7407,8.7407,8.7407,8.7407,8.7407,8.7407,8.7407,8.7407,8.7876,8.811,8.811,8.7642,8.7876,8.8813,8.9711,9.0765,9.2014,9.3341,9.4122,9.4512,9.4512,9.4005,9.327,9.3259,9.299,9.2599,9.2599,9.2912,9.3224,0.0,0.0,0.0,0.0,0.0,0.0,0.0,0.0,0.0,0.0,0.0,0.0,0.0,0.0,0.0,0.0,0.0,0.0,0.0,0.0,0.0,0.0,0.0,0.0,4.47,4.7494,4.955,5.089,5.3033,5.4,5.3807,5.4041,5.3141,5.1333,5.2352,5.1706,4.9849,4.9317,4.8592,4.7735,0.0,0.0,0.0,0.0,0.0,0.0,0.0,0.0,0.0,0.0,0.0,0.0,0.0,0.0,0.0,5.5935,5.6128,5.6553,5.7637,5.8681,6.0306,6.3748,6.5102,6.5876,6.6843,6.8429,6.9473,6.8584,6.9551,7.0866,7.1756,7.2955,7.4734,7.7558,7.7983,7.8834,8.1194,8.1349,8.1658,8.2703,8.5243,8.7015,8.7309,8.8244,8.9172,8.9958,8.8383,8.7407,8.7407,8.7407,8.7407,8.7407,8.7407,8.7486,8.772,8.8383,8.8696,8.8696,8.8227,8.8696,9.0023,9.1116,9.2014,9.2912,9.4669,9.541,9.541,9.541,9.4903,9.4083,9.4083,9.3615,9.2912,9.3107,9.3341,9.3497,0.0,0.0,0.0,0.0,0.0,0.0,0.0,0.0,0.0,0.0,0.0,0.0,0.0,0.0,0.0,0.0,0.0,0.0,0.0,0.0,0.0,0.0,0.0,0.0,0.0,4.8904,5.0731,5.088,5.4216,5.5432,5.4735,5.547,5.4514,5.2264,5.3197,5.2247,4.9887,4.9901,4.9449,4.8631,4.7774,0.0,0.0,0.0,0.0,0.0,0.0,0.0,0.0,0.0,0.0,0.0,0.0,0.0,5.5045,5.578,5.6592,5.7559,5.9261,6.0886,6.2936,6.6379,6.5528,6.4909,6.8816,6.928,6.928,7.0711,7.1756,7.2684,7.3535,7.5701,7.7674,7.8718,7.8912,7.9492,8.1271,8.0923,8.1103,8.2805,8.5526,8.7551,8.8321,8.9294,8.9919,8.9984,8.8383,8.7407,8.7407,8.7407,8.7407,8.7407,8.7407,8.7798,8.8618,8.8657,8.8696,8.8696,8.9477,8.9867,9.0062,9.1663,9.2873,9.381,9.5567,9.6308,9.6308,9.6308,9.5801,9.502,9.502,9.4473,9.381,9.463,9.3927,9.2717,0.0,0.0,0.0,0.0,0.0,0.0,0.0,0.0,0.0,0.0,0.0,0.0,0.0,0.0,0.0,0.0,0.0,0.0,0.0,0.0,0.0,0.0,0.0,4.3239,4.6373,4.9851,5.1889,5.2464,5.4332,5.4813,5.4,5.431,5.3669,5.2283,5.2665,5.2343,5.1392,5.0354,4.9776,4.9488,4.86,4.7946,0.0,0.0,0.0,0.0,0.0,0.0,0.0,0.0,5.0712,5.1641,5.3033,5.4116,5.4967,5.578,5.7366,5.9068,5.9725,6.1505,6.4135,6.8081,6.7965,6.7694,7.0905,7.2181,7.2607,7.2181,7.3612,7.5044,7.5392,7.7558,7.9028,7.8293,7.9531,8.0614,8.0769,8.1039,8.1895,8.3696,8.5945,8.783,8.9182,8.9719,9.0008,8.9984,8.8383,8.7407,8.7407,8.7407,8.7407,8.7407,8.7915,8.8383,8.8696,8.9789,9.0335,9.0296,9.0101,9.0531,9.1585,9.2756,9.3771,9.4708,9.6464,9.7206,9.7206,9.7206,9.6699,9.584,9.5293,9.5215,9.5371,9.5176,9.502,9.4825,0.0,0.0,0.0,0.0,0.0,0.0,0.0,0.0,0.0,0.0,0.0,0.0,0.0,0.0,0.0,0.0,0.0,0.0,0.0,3.5276,0.0,0.0,0.0,4.3547,4.645,4.9928,5.2257,5.3412,5.4353,5.4194,5.3111,5.3382,5.3033,5.2198,5.2545,5.2576,5.2329,5.118,5.0616,5.0346,4.9456,4.8647,0.0,0.0,0.0,0.0,0.0,0.0,0.0,0.0,5.0055,5.0906,5.3188,5.4116,5.4697,5.6321,5.8294,6.0074,6.0886,6.2743,6.545,6.9396,7.0015,7.0247,7.28,7.427,7.4928,7.4347,7.5817,7.721,7.721,7.8834,7.984,7.868,8.0227,8.1465,8.1257,8.1813,8.3003,8.5149,8.6761,8.843,9.0106,9.0112,9.0008,8.9984,8.8383,8.7407,8.7407,8.7642,8.7798,8.7798,8.8657,8.9242,8.9516,9.0687,9.1428,9.1663,9.1077,9.1389,9.2522,9.3693,9.4552,9.5215,9.6933,9.7714,9.7714,9.7714,9.7362,9.6738,9.6152,9.6113,9.6347,9.6035,9.5957,9.5879,0.0,0.0,0.0,0.0,0.0,0.0,0.0,0.0,0.0,0.0,0.0,0.0,0.0,0.0,0.0,0.0,0.0,0.0,3.2891,3.5276,3.7469,3.92,4.17,4.3871,4.5616,4.902,5.1661,5.3415,5.4353,5.3923,5.2221,5.3111,5.3033,5.2276,5.3204,5.3145,5.2445,5.2463,5.2047,5.1242,5.0346,4.9527,4.8702,0.0,0.0,0.0,0.0,0.0,0.0,0.0,4.9707,5.0287,5.373,5.4194,5.4194,5.7598,5.9223,6.0499,6.3013,6.4948,6.7036,7.044,7.133,7.1988,7.4541,7.5121,7.5585,7.7326,7.837,7.8989,7.8989,7.9647,8.0227,8.0188,8.1039,8.2006,8.2883,8.3231,8.4378,8.6984,8.8121,8.9371,9.1123,9.0531,8.9984,8.9984,8.8383,8.7407,8.7407,8.8227,8.8696,8.8696,8.9555,9.0413,9.1272,9.1311,9.1702,9.2482,9.2482,9.2482,9.2561,9.4317,9.5098,9.5215,9.6933,9.7714,9.7714,9.7714,9.7714,9.7714,9.7714,9.7167,9.6503,9.7362,9.6621,9.5254,0.0,0.0,0.0,0.0,0.0,0.0,0.0,0.0,0.0,0.0,0.0,0.0,0.0,0.0,0.0,0.0,0.0,0.0,3.2891,3.5276,3.693,3.7469,3.9892,4.2079,4.3843,4.8475,5.2039,5.4392,5.4641,5.4233,5.3111,5.4,5.3962,5.3149,0.0,5.4343,5.4155,5.2874,5.2275,5.2047,5.1152,4.9956,4.869,0.0,0.0,0.0,0.0,0.0,0.0,0.0,0.0,0.0,5.373,5.5006,5.5702,5.7946,6.0499,6.2743,6.3478,6.6224,6.9396,7.164,7.2684,7.3806,7.6359,7.5972,7.5585,7.7326,7.837,7.8989,7.8989,8.015,8.0923,8.042,8.1117,8.2084,8.3115,8.3347,8.4629,8.7915,8.8515,8.9622,9.2009,9.0856,8.9984,8.9984,8.8383,8.7407,8.7407,8.8227,8.8696,8.8696,9.014,9.1038,9.1311,9.1858,9.2248,9.2482,9.2482,9.2482,9.2561,9.4317,9.5098,9.5215,9.6933,9.7714,9.7714,9.7714,9.7714,9.7714,9.7714,9.7558,9.7362,9.7597,9.7362,9.6894,0.0,0.0,0.0,0.0,0.0,0.0,0.0,0.0,3.0379,3.0379,3.0379,3.0379,0.0,0.0,0.0,3.0379,3.1929,0.0,3.2891,3.5276,3.6853,3.7199,3.9008,4.1001,4.3104,4.7581,5.0835,5.2763,5.3807,5.3846,5.2995,5.3884,5.4194,5.4039,0.0,5.4855,5.4879,5.3441,5.2693,5.2417,5.1522,5.0187,4.874,0.0,0.0,0.0,0.0,0.0,0.0,0.0,0.0,0.0,5.3227,5.4851,5.6051,5.8797,6.1543,6.398,6.5373,6.8081,7.1021,7.3071,7.3999,7.4889,7.6746,7.69,7.7055,7.8409,7.9105,7.9569,7.9918,8.0807,8.1387,8.0962,8.1398,8.2277,8.3706,8.4262,8.566,8.8826,8.951,9.0498,9.2395,9.1012,8.9984,8.9984,8.8383,8.7407,8.7407,8.854,8.9203,8.9203,9.0882,9.178,9.178,9.2248,9.2482,9.2482,9.2482,9.2678,9.3068,9.4473,9.5098,9.5215,9.6933,9.7714,9.7714,9.7714,9.7714,9.7714,9.7714,9.7714,9.7714,9.7714,9.7714,9.7636,0.0,0.0,0.0,0.0,0.0,0.0,0.0,3.0379,3.0379,3.0379,3.0379,3.0379,0.0,0.0,0.0,3.0379,3.1929,3.2891,3.2891,3.5238,3.693,3.7738,3.8753,4.0453,4.2917,4.639,4.8585,4.9475,5.2105,5.3033,5.2337,0.0,5.4039,5.4813,0.0,5.4939,5.4939,5.3994,5.3223,5.2534,5.1483,5.016,4.8777,4.8644,0.0,0.0,0.0,0.0,0.0,0.0,0.0,0.0,5.2414,5.4116,5.5586,5.9687,6.2201,6.4406,6.7771,6.9976,7.191,7.4463,7.5276,7.5662,7.6475,7.7906,7.926,7.984,8.015,8.0536,8.1271,8.1465,8.1581,8.1697,8.1815,8.2575,8.4449,8.5585,8.7148,8.9687,9.0759,9.163,9.2404,9.096,8.9984,8.9906,8.8422,8.7486,8.7407,8.9125,9.0062,8.9984,9.1624,9.2482,9.2482,9.2482,9.2482,9.2482,9.2482,9.2951,9.3849,9.4708,9.5176,9.541,9.7011,9.7714,9.7714,9.7714,9.7714,9.7714,9.7714,9.7714,9.7714,9.7714,9.7714,9.7714,0.0,0.0,0.0,0.0,0.0,0.0,3.0379,3.0379,3.0379,3.0379,3.0379,3.0379,3.0379,3.0379,0.0,3.0379,3.1929,3.2891,3.2891,3.4699,3.5853,3.6045,3.818,3.997,4.1208,4.4587,4.6806,4.7657,5.0906,5.2724,0.0,0.0,0.0,5.4813,0.0,5.5791,5.5753,5.4243,5.3546,5.3263,5.114,4.9625,4.8634,4.7942,4.7067,0.0,0.0,0.0,0.0,0.0,0.0,0.0,5.2221,5.4116,5.5354,5.8294,6.1311,6.429,6.7036,6.9512,7.191,7.4463,7.663,7.8216,7.8409,7.9221,7.9608,7.8486,7.984,8.1117,8.0691,8.1194,8.1736,8.1968,8.2026,8.2688,8.459,8.5617,8.7146,8.9696,9.0755,9.138,9.1546,9.0609,8.9711,8.9047,8.8618,8.811,8.7446,8.9711,9.0726,9.0023,9.1624,9.2482,9.2482,9.2482,9.2482,9.2482,9.2482,9.2951,9.3849,9.4708,9.584,9.7167,9.7558,9.7714,9.7714,9.7714,9.7714,9.7714,9.7714,9.7714,9.7714,9.7714,9.7714,9.7714,0.0,0.0,0.0,0.0,0.0,0.0,0.0,0.0,2.9929,3.034,3.0379,3.0379,3.0379,3.0379,0.0,0.0,3.1929,3.2891,3.2891,3.4545,3.5507,3.5495,3.7591,3.9032,3.9483,4.246,4.4601,4.5916,4.8469,5.0828,0.0,0.0,0.0,5.4851,0.0,5.6068,0.0,5.4304,5.3658,5.354,5.1479,5.0139,4.9332,4.8863,4.8196,4.7406,4.6891,0.0,0.0,0.0,0.0,0.0,0.0,0.0,5.5393,5.8333,6.1041,6.3826,6.7191,6.9667,7.2026,7.4966,7.7365,7.8873,7.8486,7.9685,8.0536,7.926,8.0034,8.1001,8.1078,8.1519,8.1853,8.2056,8.2432,8.3369,8.5266,8.6596,8.8182,9.0374,9.1402,9.176,9.135,9.0492,8.9633,8.8774,8.8696,8.8501,8.8032,9.0101,9.1077,9.0648,9.1858,9.2482,9.2482,9.2482,9.2482,9.2482,9.2482,9.3185,9.4434,9.5332,9.6464,9.7714,9.7714,9.7714,9.7714,9.7714,9.7714,9.7714,9.7714,9.7714,9.7714,9.7714,9.7714,9.7714,0.0,0.0,0.0,0.0,0.0,0.0,0.0,0.0,0.0,3.0314,3.0379,3.0379,3.0379,3.0379,3.0379,0.0,0.0,0.0,3.2891,3.4545,3.552,3.5534,3.7025,3.7913,3.7989,4.0488,4.2628,4.4369,4.6225,4.8701,0.0,0.0,0.0,5.4851,0.0,0.0,0.0,0.0,5.3931,5.3877,5.2223,5.1132,5.0541,5.037,4.9905,4.9216,4.8365,4.7971,4.784,4.7787,0.0,0.0,0.0,0.0,5.5238,5.8488,6.0731,6.3091,6.723,7.0015,7.2529,7.5817,7.7829,7.8834,7.8254,8.0111,8.1722,8.1004,8.0755,8.0926,8.1799,8.1951,8.2014,8.23,8.3095,8.4303,8.6132,8.7865,8.9516,9.1116,9.2053,9.2209,9.1155,9.0413,8.9594,8.854,8.8618,8.8696,8.8696,9.0335,9.1311,9.1311,9.2092,9.2482,9.2482,9.2482,9.2482,9.2482,9.2795,9.3771,9.5332,9.623,9.7011,9.7714,9.7714,9.7714,9.7714,9.7714,9.7714,9.7714,9.7714,9.7714,9.7714,9.7714,9.7714,9.7714,0.0,0.0,0.0,0.0,0.0,0.0,0.0,0.0,0.0,0.0,3.0379,3.0379,3.0379,3.0379,3.0379,3.0379,3.1929,3.2891,3.2891,0.0,0.0,3.5572,3.646,3.6999,3.7085,3.9611,4.1777,4.3479,4.5916,0.0,0.0,0.0,0.0,5.4907,0.0,0.0,0.0,0.0,0.0,0.0,5.3158,5.2436,5.228,5.1496,5.1154,5.105,5.0859,5.0251,4.9659,5.0332,4.9582,0.0,0.0,0.0,5.4194,5.6863,5.9377,6.2046,6.5605,6.9976,7.4193,7.6862,7.8254,7.9144,7.9724,8.1387,8.2848,8.2824,8.2245,8.1765,8.2026,8.2056,8.2359,8.3242,8.4128,8.5271,8.7001,8.8735,9.0179,9.1194,9.2053,9.1975,9.0335,9.0062,8.932,8.772,8.8266,8.8696,8.8696,9.0335,9.1311,9.1311,9.2092,9.2482,9.2482,9.2482,9.2482,9.2522,9.4044,9.5254,9.6269,9.7128,9.7597,9.7714,9.7714,9.7714,9.7714,9.7714,9.7714,9.7714,9.7714,9.7714,9.7714,9.7714,9.7714,9.7714,0.0,0.0,0.0,0.0,0.0,0.0,0.0,0.0,0.0,0.0,0.0,3.1121,3.1121,3.1545,3.1838,3.1918,3.2979,3.3853,3.4314,3.5059,3.5522,3.5611,3.5944,3.6354,3.6903,3.8489,4.0191,4.1893,4.4949,0.0,0.0,5.1927,5.3785,0.0,0.0,0.0,0.0,0.0,0.0,0.0,5.5173,5.5162,5.5517,5.4658,5.4623,5.4909,5.3866,5.2884,5.2146,5.2405,5.1633,5.0906,5.2995,0.0,0.0,0.0,5.8449,6.0654,6.5025,6.8893,7.2336,7.4928,7.6939,7.8525,7.9415,8.1039,8.2545,8.3193,8.3466,8.3424,8.3013,8.2541,8.2678,8.41,8.5078,8.6364,8.8546,8.9945,9.1038,9.1936,9.2326,9.1858,9.0179,8.9984,8.9477,8.8227,8.893,8.9633,9.014,9.1311,9.1975,9.1975,9.2326,9.2482,9.2482,9.2482,9.2756,9.3224,9.4512,9.5567,9.6425,9.7284,9.7714,9.7714,9.7714,9.7714,9.7714,9.7714,9.7714,9.7714,9.7714,9.7714,9.7714,9.7714,9.7714,9.7714,0.0,0.0,0.0,0.0,0.0,0.0,0.0,0.0,0.0,0.0,0.0,3.2072,3.2072,0.0,0.0,0.0,3.3826,3.4634,3.5483,3.556,3.5662,3.5881,3.5956,3.625,3.6903,3.7986,3.9262,4.081,0.0,0.0,4.7608,5.127,5.3243,0.0,5.5539,0.0,0.0,0.0,0.0,0.0,0.0,5.7972,5.8484,5.8059,5.8293,5.8648,5.7107,5.5924,5.5053,5.4735,5.3707,5.2801,5.431,5.4503,0.0,0.0,0.0,5.9841,6.3884,6.7173,7.0015,7.2623,7.5175,7.7365,7.8564,8.0461,8.2212,8.3178,8.4178,8.4762,8.4329,8.3554,8.3515,8.5273,8.6288,8.7646,9.0003,9.1084,9.1858,9.2482,9.2522,9.1858,9.014,8.9984,8.9555,8.8461,8.9164,9.0062,9.0921,9.1741,9.2287,9.2482,9.2482,9.2482,9.2482,9.2717,9.3263,9.4122,9.502,9.5879,9.6738,9.7401,9.7714,9.7714,9.7714,9.7714,9.7714,9.7714,9.7714,9.7714,9.7714,9.7714,9.7714,9.7714,9.7714,9.7714,0.0,0.0,0.0,0.0,0.0,0.0,0.0,0.0,0.0,0.0,0.0,3.3106,3.3106,3.3145,3.3184,3.3191,3.4,3.4805,3.5549,3.5648,3.5985,3.6704,3.6858,0.0,3.6903,3.8566,3.9881,0.0,0.0,0.0,4.8484,5.048,5.2314,5.3972,5.5697,5.6542,5.6639,0.0,0.0,0.0,0.0,6.0237,6.0358,6.1157,6.1467,6.1377,6.0466,0.0,5.8585,5.7702,5.5664,5.3669,5.4542,5.3652,5.2685,0.0,0.0,0.0,6.1348,6.4677,6.8429,7.0992,7.3451,7.574,7.7558,8.0028,8.2201,8.3173,8.4182,8.5154,8.5937,8.5351,8.5351,8.707,8.803,8.9177,9.0998,9.1994,9.2522,9.2522,9.2482,9.1858,9.014,8.9984,8.9281,8.7603,8.8266,8.9164,9.0023,9.0882,9.1702,9.2482,9.2482,9.2482,9.2482,9.3302,9.4161,9.502,9.5918,9.6777,9.7636,9.7675,9.7714,9.7714,9.7714,9.7714,9.7714,9.7714,9.7714,9.7714,9.7714,9.7714,9.7714,9.7714,9.7714,9.7714,0.0,0.0,0.0,0.0,0.0,0.0,0.0,0.0,0.0,0.0,0.0,0.0,0.0,3.4505,3.4831,3.4925,3.5236,3.5461,3.563,3.5737,0.0,3.6966,3.7003,3.7011,3.7035,3.809,0.0,0.0,0.0,4.4664,4.7816,4.9639,5.1138,5.2369,5.4139,5.5531,5.6627,5.6942,0.0,0.0,0.0,0.0,6.2896,6.2641,6.3586,0.0,0.0,0.0,0.0,6.0487,5.8738,5.688,5.6007,5.531,5.4846,5.4907,5.6209,5.8052,6.0047,6.3288,6.6761,6.9324,7.2236,7.502,7.69,7.9326,8.1483,8.2482,8.4323,8.582,8.6133,8.5508,8.5624,8.7909,8.8513,8.9516,9.1799,9.2411,9.2561,9.2522,9.2482,9.1858,9.014,9.0492,9.0335,8.9164,8.9867,9.0726,9.1546,9.1897,9.2209,9.2482,9.2482,9.2756,9.3341,9.3654,9.4512,9.5957,9.6269,9.6855,9.7714,9.7714,9.7714,9.7714,9.7714,9.7714,9.7714,9.7714,9.7714,9.7714,9.7714,9.7714,9.7714,9.7714,9.7714,9.7714,0.0,0.0,0.0,0.0,0.0,0.0,0.0,0.0,0.0,3.4158,0.0,0.0,0.0,0.0,3.5833,3.5914,3.5914,3.5889,3.5772,3.5826,3.6345,3.7449,3.7226,3.722,3.7537,3.8003,0.0,0.0,0.0,0.0,0.0,4.8786,4.9949,5.0646,5.2362,5.4097,0.0,0.0,0.0,5.9222,0.0,0.0,6.4336,0.0,0.0,0.0,0.0,0.0,0.0,6.3613,6.1927,5.9925,5.8154,5.6601,5.5345,5.48,5.5461,5.668,5.8109,6.1426,6.5042,6.7307,7.0199,7.3123,7.5569,7.7891,7.9903,8.117,8.328,8.4961,8.5273,8.531,8.6159,8.8741,8.9125,8.9945,9.2287,9.2561,9.2561,9.2522,9.2482,9.1858,9.014,9.0804,9.0804,8.9633,9.0648,9.1546,9.2053,9.2365,9.2482,9.2482,9.2482,9.2912,9.381,9.4083,9.4942,9.6386,9.6699,9.7128,9.7714,9.7714,9.7714,9.7714,9.7714,9.7714,9.7714,9.7714,9.7714,9.7714,9.7714,9.7714,9.7714,9.7714,9.7714,9.7714,0.0,0.0,0.0,0.0,0.0,0.0,0.0,0.0,3.6033,3.6033,0.0,0.0,0.0,0.0,0.0,3.6072,3.6111,3.6033,3.5913,3.5991,3.6711,3.8209,3.7563,0.0,0.0,0.0,0.0,0.0,0.0,0.0,0.0,0.0,4.8818,4.8945,5.0625,5.2378,5.4181,0.0,5.8324,5.9339,0.0,6.3555,6.4609,0.0,0.0,0.0,6.9258,6.9062,0.0,6.7148,6.513,6.2717,6.0798,5.729,5.3914,5.3973,5.5219,5.6408,0.0,0.0,0.0,6.5,6.7264,7.0018,7.3527,7.5708,7.7466,7.9246,8.1054,8.2578,8.3398,8.4983,8.6978,8.9477,8.9945,9.057,9.2287,9.2482,9.2443,9.2443,9.2482,9.1858,9.0179,9.0804,9.0609,8.8891,9.0374,9.135,9.135,9.2092,9.2482,9.2482,9.2482,9.2912,9.3849,9.4669,9.5567,9.6464,9.7284,9.7714,9.7714,9.7714,9.7714,9.7714,9.7714,9.7714,9.7714,9.7714,9.7714,9.7714,9.7714,9.7714,9.7714,9.7714,9.7714,9.7714,0.0,0.0,0.0,0.0,0.0,3.5621,3.5623,3.6363,3.6944,0.0,0.0,0.0,0.0,0.0,0.0,3.7921,3.8469,3.7997,3.6111,3.6579,3.7131,3.7567,3.7342,3.734,3.7585,0.0,0.0,0.0,0.0,0.0,0.0,0.0,0.0,0.0,5.0351,5.2381,5.4086,5.5439,0.0,5.9339,6.1954,6.3906,0.0,0.0,6.982,7.0966,7.1205,7.1556,7.1556,6.9369,6.7812,6.6005,6.1707,5.827,5.5848,5.5829,5.7074,5.8414,5.8163,0.0,0.0,0.0,0.0,0.0,7.2021,7.4513,7.6527,7.7655,8.0234,8.2382,8.2636,8.4077,8.5678,8.6984,8.8227,8.9437,9.057,9.1233,9.1624,9.1624,9.2131,9.2092,9.1038,9.1663,9.1741,9.0648,9.1585,9.217,9.217,9.2365,9.2482,9.2482,9.2482,9.3224,9.4747,9.4981,9.584,9.7323,9.7597,9.7714,9.7714,9.7714,9.7714,9.7714,9.7714,9.7714,9.7714,9.7714,9.7714,9.7714,9.7714,9.7714,9.7714,9.7714,9.7714,9.7714,0.0,0.0,3.5234,3.5234,3.5976,3.6523,3.6523,3.7578,3.8397,0.0,0.0,0.0,0.0,0.0,0.0,4.0233,4.035,3.9802,3.8274,3.7961,3.8004,3.8359,3.7656,3.7422,3.7812,3.7053,3.7521,0.0,0.0,0.0,0.0,4.4867,0.0,0.0,0.0,0.0,0.0,0.0,0.0,0.0,6.2071,0.0,0.0,6.9372,7.1329,7.2627,7.3373,7.3725,7.3686,7.2514,7.0578,6.8047,6.4297,6.0859,5.8203,5.8203,5.8672,5.9219,5.9219,6.0781,6.2773,6.418,0.0,0.0,7.0312,7.293,7.5156,7.6406,7.8787,8.0652,8.066,8.2115,8.3565,8.4369,8.5651,8.7212,8.9164,9.0218,9.0765,9.0765,9.1155,9.1272,9.0804,9.1507,9.1819,9.135,9.2053,9.2482,9.2482,9.2482,9.2482,9.2482,9.2834,9.3693,9.5098,9.5449,9.6347,9.7714,9.7714,9.7714,9.7714,9.7714,9.7714,9.7714,9.7714,9.7714,9.7714,9.7714,9.7714,9.7714,9.7714,9.7714,9.7714,9.7714,9.7714,9.7714,0.0,0.0,3.6016,3.6133,3.6875,3.75,3.7695,3.9219,4.0391,0.0,0.0,0.0,0.0,0.0,0.0,0.0,4.2461,4.1914,4.1641,4.0,3.9336,4.0,3.8359,3.7812,3.8594,3.707,3.7031,3.8594,3.9453,0.0,0.0,0.0,0.0,4.4219,4.8984,5.1875,0.0,0.0,0.0,6.0978,6.2735,6.4882,6.7459,7.0933,7.2885,7.3939,7.5579,7.5735,7.5222,7.5729,7.3065,6.9257,6.7695,6.4375,6.1093,6.0898,6.0312,5.9726,5.9531,6.0586,6.1914,6.2773,6.4101,0.0,6.8515,7.0937,7.3125,7.4922,7.6746,7.801,7.8116,7.9522,8.1005,8.1864,8.2684,8.4401,8.7798,8.9086,8.9711,8.9711,8.9867,8.9984,8.9984,9.0687,9.1155,9.1155,9.1897,9.2404,9.2482,9.2482,9.2482,9.2482,9.3341,9.4239,9.5098,9.5957,9.6855,9.7714,9.7714,9.7714,9.7714,9.7714,9.7714,9.7714,9.7714,9.7714,9.7714,9.7714,9.7714,9.7714,9.7714,9.7714,9.7714,9.7714,9.7714,9.7714,3.5742,3.5898,3.6211,3.6914,3.7773,3.8828,4.0234,4.1875,4.3476,4.4883,0.0,0.0,0.0,0.0,0.0,0.0,0.0,4.6484,4.4414,4.2617,4.1445,4.0976,3.9297,3.8437,3.8594,3.8281,3.8242,3.8594,3.9453,4.0,4.0195,0.0,0.0,0.0,4.832,5.1792,0.0,0.0,0.0,6.3672,6.539,6.7185,6.9255,7.2729,7.4993,7.6477,7.7531,7.8233,7.8429,7.6471,7.3437,7.0288,6.9247,6.7414,6.5346,6.3945,6.3437,6.3008,6.1601,6.1445,6.1914,6.2773,6.2734,0.0,6.664,6.7773,6.8828,7.1211,7.3632,7.554,7.6248,7.7765,7.917,8.0068,8.0927,8.245,8.5182,8.6939,8.7915,8.7915,8.9164,8.9984,8.9984,9.014,9.0257,9.0257,9.1038,9.1819,9.2482,9.2482,9.2482,9.2482,9.3341,9.4239,9.5098,9.5957,9.6855,9.7714,9.7714,9.7714,9.7714,9.7714,9.7714,9.7714,9.7714,9.7714,9.7714,9.7714,9.7714,9.7714,9.7714,9.7714,9.7714,9.7714,9.7714,9.7714,3.6094,3.6719,3.7422,3.7851,3.9375,4.0937,4.2266,4.4648,4.6601,0.0,0.0,0.0,0.0,0.0,0.0,0.0,0.0,0.0,4.8281,4.5781,4.4375,4.4375,4.1484,4.0078,4.0508,3.9258,3.8594,3.8594,3.9453,3.9883,3.9961,4.2969,0.0,0.0,0.0,0.0,0.0,0.0,6.0597,6.5077,6.6288,6.8357,7.1089,7.4486,7.6594,7.7804,7.8233,7.8975,7.9366,7.7179,7.5026,7.3002,7.1768,7.0171,6.8453,6.6745,6.5933,6.5117,6.293,6.2344,6.2344,6.2344,6.2031,0.0,0.0,6.5273,6.6328,6.8906,7.082,7.2538,7.4288,7.5294,7.6263,7.7547,7.8473,7.9639,8.1356,8.3816,8.5456,8.5456,8.6627,8.7564,8.7993,8.8461,8.9047,8.9945,9.0804,9.1467,9.1897,9.2287,9.2482,9.2482,9.3771,9.4669,9.5098,9.6386,9.7284,9.7714,9.7714,9.7714,9.7714,9.7714,9.7714,9.7714,9.7714,9.7714,9.7714,9.7714,9.7714,9.7714,9.7714,9.7714,9.7714,9.7714,9.7714,9.7714,3.668,3.7773,3.8906,3.9062,4.1055,4.3125,4.4492,4.7226,4.9453,0.0,0.0,0.0,0.0,0.0,0.0,0.0,0.0,0.0,5.2656,4.9609,4.8164,4.9023,4.4805,4.2812,4.3633,4.0976,3.9414,3.9101,3.9961,4.0312,4.0234,4.3476,0.0,0.0,0.0,0.0,0.0,0.0,0.0,6.6405,6.7381,6.9684,7.2846,7.593,7.796,7.9131,7.9131,7.96,7.9912,7.8194,7.6906,7.5807,7.4447,7.2846,7.1089,6.9405,0.0,0.0,0.0,0.0,0.0,6.2617,6.2187,6.2187,0.0,0.0,0.0,6.6953,6.8086,6.9414,7.1875,7.2574,7.3189,7.4357,7.5282,7.6047,7.6594,7.9483,8.1903,8.2918,8.3933,8.4753,8.5299,8.6431,8.7798,8.9398,9.0452,9.1116,9.1272,9.1936,9.2326,9.2482,9.42,9.5098,9.5098,9.6816,9.7714,9.7714,9.7714,9.7714,9.7714,9.7714,9.7714,9.7714,9.7714,9.7714,9.7714,9.7714,9.7714,9.7714,9.7714,9.7714,9.7714,9.7714,9.7714,9.7714,3.8476,3.9101,4.0,4.0781,4.2383,4.4648,4.7812,4.9297,5.1406,0.0,0.0,0.0,0.0,0.0,0.0,0.0,0.0,0.0,5.7226,5.4648,5.3516,5.4375,4.957,4.7266,4.8125,4.4844,4.2383,4.0898,4.1719,4.1758,4.1094,4.375,4.6401,0.0,5.2455,0.0,0.0,0.0,6.4526,0.0,7.0738,7.2573,7.4525,7.6399,7.9092,8.1864,8.1864,8.1903,8.1747,7.999,7.8311,7.6906,7.6711,7.5462,7.3744,7.2065,0.0,0.0,0.0,6.6484,6.5273,6.5195,6.3984,6.3086,6.3945,0.0,6.2539,6.4375,0.0,6.6601,6.8437,0.0,0.0,7.0224,7.0874,7.1206,7.0504,7.2768,7.6164,8.0732,8.2684,8.3426,8.2801,8.487,8.6666,8.7603,8.9203,9.0492,9.1272,9.1389,9.1741,9.2482,9.42,9.5098,9.5098,9.6816,9.7714,9.7714,9.7714,9.7714,9.7714,9.7714,9.7714,9.7714,9.7714,9.7714,9.7714,9.7714,9.7714,9.7714,9.7714,9.7714,9.7714,9.7714,9.7714,9.7714,3.8945,4.0078,4.1484,4.1836,4.4141,4.6797,4.9297,5.207,5.4726,0.0,0.0,0.0,0.0,0.0,0.0,0.0,0.0,6.0273,5.9414,5.7422,5.6211,5.6055,5.2031,4.9999,5.0339,4.6981,4.4879,4.4141,4.3476,4.3242,4.3476,4.6048,4.9163,5.2752,5.5665,0.0,6.2969,0.0,6.7849,7.1753,7.2963,7.5384,7.835,7.8546,8.0146,8.245,8.3386,8.3426,8.2879,8.2137,8.0771,7.9366,7.9366,7.8166,7.6419,7.4764,7.3632,7.2479,7.0233,6.9136,6.819,6.6718,6.543,6.4336,6.3672,6.1836,6.0898,6.3086,0.0,0.0,0.0,0.0,0.0,0.0,6.7898,6.8318,6.7927,7.0152,7.3315,7.7492,7.9483,8.081,8.1474,8.3855,8.5495,8.5846,8.8422,9.014,9.0531,9.1038,9.1663,9.2482,9.42,9.5098,9.5098,9.6816,9.7714,9.7714,9.7714,9.7714,9.7714,9.7714,9.7714,9.7714,9.7714,9.7714,9.7714,9.7714,9.7714,9.7714,9.7714,9.7714,9.7714,9.7714,9.7714,9.7714,4.0351,4.1484,4.2812,4.3086,4.5781,4.8789,5.1211,5.4648,5.7422,5.8789,0.0,0.0,6.1758,6.2812,0.0,0.0,6.3358,6.3122,6.2226,6.1055,6.0078,5.9449,5.5624,5.3631,5.3849,4.9817,4.7601,4.7381,4.5857,4.5349,4.5778,4.8145,5.1265,5.5062,5.7859,6.1403,6.539,0.0,7.0348,7.3393,7.4681,7.7531,8.0966,8.081,8.1669,8.3152,8.4362,8.4558,8.4167,8.3933,8.2879,8.1708,8.1708,8.0514,7.8883,7.7654,7.632,7.4853,7.2964,7.1945,7.0956,6.9135,6.7812,6.6601,6.5117,6.2617,6.1172,6.3281,6.2343,0.0,0.0,0.0,6.5273,6.434,0.0,6.5234,6.4765,6.6951,7.0035,7.3939,7.6125,7.8038,7.9756,8.2489,8.4128,8.4128,8.7329,8.9281,8.9281,9.0335,9.1311,9.2131,9.4083,9.5098,9.5098,9.6816,9.7714,9.7714,9.7714,9.7714,9.7714,9.7714,9.7714,9.7714,9.7714,9.7714,9.7714,9.7714,9.7714,9.7714,9.7714,9.7714,9.7714,9.7714,9.7714,9.7714,4.3555,4.3594,4.3906,4.4766,4.7109,5.0273,5.4492,5.668,5.875,6.125,6.2344,6.3555,0.0,0.0,0.0,0.0,6.7484,6.7633,6.6757,6.664,6.6597,6.6566,6.1674,5.9297,6.0078,5.4281,5.0863,5.0055,4.915,4.8326,4.7545,4.9241,5.1506,5.4181,5.7577,6.1052,6.457,6.7927,7.0894,7.351,7.6008,7.8624,8.1161,8.2762,8.3933,8.4714,8.4792,8.5338,8.5885,8.5026,8.4167,8.3426,8.3504,8.2332,8.0927,8.0849,7.9025,7.7013,7.6902,7.5075,7.3201,7.313,7.1825,7.0312,6.9492,6.6601,6.4414,6.5312,6.4131,6.3204,6.4184,6.5038,6.4492,6.1139,6.1291,0.0,0.0,6.1603,6.5155,7.027,7.308,7.5305,7.7062,8.0341,8.2371,8.2371,8.5534,8.7486,8.7486,8.9125,9.0452,9.1311,9.3771,9.5098,9.5098,9.6816,9.7714,9.7714,9.7714,9.7714,9.7714,9.7714,9.7714,9.7714,9.7714,9.7714,9.7714,9.7714,9.7714,9.7714,9.7714,9.7714,9.7714,9.7714,9.7714,9.7714,4.4687,4.5039,4.5508,4.582,4.8008,5.1211,5.5508,5.8086,6.0078,6.1523,6.3984,6.5819,6.6387,6.7988,6.889,6.8588,6.8815,6.8613,6.7754,6.7685,6.7219,6.6075,6.3263,6.1584,6.1271,5.6497,5.3565,5.2716,5.1268,5.0406,5.0161,5.1886,5.4033,5.6641,5.9529,6.3047,0.0,0.0,7.3588,7.7804,8.0927,8.2723,8.3504,8.3504,8.405,8.487,8.5456,8.6236,8.6939,8.6627,8.5924,8.5221,8.526,8.4089,8.2723,8.2723,8.1284,7.9689,7.9694,7.8215,7.6427,7.5304,7.4136,7.2927,7.1484,6.8945,6.7109,6.7952,6.5868,6.414,6.4999,6.4453,6.3125,6.0783,6.0159,5.9573,0.0,6.051,6.3438,6.6912,7.1089,7.4369,7.6086,7.9405,8.1669,8.2254,8.4948,8.6783,8.7368,8.8501,8.9789,9.1233,9.3771,9.5098,9.5098,9.6816,9.7714,9.7714,9.7714,9.7714,9.7714,9.7714,9.7714,9.7714,9.7714,9.7714,9.7714,9.7714,9.7714,9.7714,9.7714,9.7714,9.7714,9.7714,9.7714,9.7714,4.6518,4.6834,4.7147,4.683,4.9408,5.3003,5.7302,5.9881,6.1874,6.3358,6.6014,6.7924,6.8215,6.9767,7.0782,7.0796,7.1073,7.1026,7.0465,7.0128,6.9472,6.8375,6.6058,6.4687,6.4453,5.9612,5.6844,5.6266,5.3923,5.2632,5.2347,5.3791,5.5669,5.7894,6.0198,6.3789,6.8239,7.0543,7.433,7.9092,8.2528,8.4284,8.4753,8.4167,8.4714,8.5768,8.6002,8.6666,8.7407,8.7407,8.7017,8.6627,8.6939,8.608,8.4948,8.4948,8.3738,8.2293,8.1981,8.0654,7.9059,7.7996,7.6827,7.5577,7.4138,7.1834,7.0269,7.1069,6.8518,6.6483,6.7654,6.5936,6.3789,6.2071,6.0783,5.9729,0.0,6.0432,6.2423,6.4453,6.8708,0.0,0.0,7.757,8.0107,8.1278,8.3738,8.5573,8.6431,8.7603,8.9047,9.0765,9.3302,9.4786,9.5098,9.6816,9.7714,9.7714,9.7714,9.7714,9.7714,9.7714,9.7714,9.7714,9.7714,9.7714,9.7714,9.7714,9.7518,9.7245,9.7245,9.705,9.6855,9.7479,9.7714,9.7714,4.8954,4.9046,4.8892,4.8205,5.1479,5.563,5.9829,6.1977,6.4047,6.6589,6.8424,6.983,7.065,7.2314,7.3354,7.3354,7.4134,7.4603,7.4603,7.3822,7.3354,7.3354,7.0108,6.8669,6.9455,6.3672,6.0588,6.0397,5.7074,5.4966,5.4068,5.4927,5.6216,5.7933,5.969,6.3321,6.8279,7.0035,7.3315,7.7648,8.1083,8.3504,8.4987,8.4987,8.6002,8.7329,8.6431,8.6666,8.7407,8.7407,8.7446,8.7603,8.8383,8.8149,8.7525,8.7486,8.6275,8.4831,8.4011,8.2528,8.1161,8.1122,7.9816,7.8305,7.7488,7.534,7.3775,7.4634,7.2041,7.0152,7.1825,6.9294,6.6444,6.4765,6.2969,6.1486,6.0705,6.1252,6.211,6.2969,6.6053,0.0,0.0,0.0,7.7804,7.9561,8.2059,8.3855,8.4675,8.6431,8.8188,8.9867,9.2404,9.4161,9.5098,9.6777,9.7675,9.7714,9.7714,9.7714,9.7714,9.7714,9.7714,9.7714,9.7714,9.7714,9.7714,9.7714,9.7206,9.6464,9.6464,9.5957,9.541,9.705,9.7675,9.7714,4.993,5.0832,5.2468,5.4767,5.6133,5.7929,6.0905,6.3403,6.5394,6.6722,6.9494,7.1407,7.1646,7.3203,7.4251,7.4212,7.4408,7.4525,7.4525,7.433,7.4173,7.4173,7.2143,7.0816,7.0387,6.6366,6.3008,6.0393,5.8207,5.6411,5.4966,5.5201,5.6528,5.8831,6.0588,6.4219,6.9176,7.0933,7.5266,8.12,8.4011,8.6158,8.7681,8.7681,8.7993,8.8188,8.6666,8.6666,8.7407,8.7407,8.7837,8.8305,8.7876,8.8461,8.9203,8.8579,8.8032,8.7525,8.6666,8.5143,8.3699,8.3074,8.1636,8.0275,8.0041,7.8479,7.7151,7.7386,7.5194,7.3393,7.3783,7.1597,6.9137,6.742,6.4609,6.2813,6.3243,0.0,0.0,6.3867,0.0,0.0,7.0855,7.472,7.7804,7.9561,8.2059,8.3582,8.3816,8.6119,8.7915,8.9008,9.1507,9.3576,9.5098,9.6191,9.705,9.7714,9.7714,9.7714,9.7714,9.7714,9.7714,9.7714,9.7714,9.7714,9.7714,9.7714,9.7558,9.7362,9.7362,9.7245,9.7011,9.6816,9.7128,9.7714,5.3053,5.4029,5.5782,5.848,6.0232,6.1871,6.3672,6.5819,6.7966,6.9952,7.1909,7.3236,7.3627,7.4876,7.5696,7.5657,7.632,7.6789,7.6789,7.6438,7.6203,7.6203,7.4564,7.3432,7.2924,6.9567,6.6327,6.3204,6.0705,5.8636,5.6957,5.6567,5.7543,5.9729,6.1486,6.4921,6.9684,7.4095,7.8585,8.3035,8.5612,8.7486,0.0,8.9125,8.9047,8.8618,8.8032,8.7876,8.7954,8.7954,8.854,8.932,8.9555,9.0296,9.0999,9.0492,9.0374,9.0101,8.8852,8.7525,8.6392,8.5924,8.4519,8.3113,8.2762,8.163,8.0537,8.0185,7.835,7.6828,7.6789,7.4369,7.1675,6.9567,6.699,6.539,0.0,0.0,0.0,0.0,6.7342,6.9059,7.0035,7.4369,7.7999,8.0107,8.1942,8.3308,8.4011,8.5456,8.7017,8.8657,9.0843,9.2795,9.4512,9.5762,9.666,9.7128,9.7518,9.7714,9.7714,9.7714,9.7714,9.7714,9.7714,9.7479,9.7128,9.7128,9.6894,9.6542,9.6542,9.6542,9.6542,9.6425,9.6699,9.7128,5.7113,0.0,5.9065,6.09,6.3945,6.6478,6.7604,6.8976,7.0933,7.3771,7.4558,7.511,7.584,7.6822,7.7453,7.7453,7.8819,7.9717,7.9717,7.8975,7.8585,7.8585,7.7023,7.6086,7.5969,7.2846,6.9879,6.7146,6.3945,6.1408,5.9573,5.8597,5.9065,6.0822,6.2579,6.5897,7.0699,7.7921,8.202,8.3894,8.651,8.8149,8.9125,8.9867,8.9711,8.9125,8.975,8.9594,8.9047,8.9047,8.9672,9.0726,9.2092,9.2678,9.2834,9.2717,9.2756,9.2482,9.0921,8.9945,8.932,8.9086,8.7837,8.6392,8.5495,8.4636,8.3777,8.2957,8.1396,8.0185,8.0068,7.7179,7.4173,7.2182,7.023,6.8981,0.0,0.0,0.0,0.0,0.0,0.0,7.0074,7.4212,7.7921,8.0302,8.1708,8.3035,8.4401,8.4792,8.6002,8.8305,9.0062,9.1858,9.3771,9.5293,9.623,9.6582,9.7206,9.7597,9.7714,9.7714,9.7714,9.7675,9.7597,9.7089,9.6386,9.6269,9.584,9.5254,9.5254,9.5254,9.5371,9.6269,9.6347,9.6113,5.9729,0.0,0.0,6.5273,6.7381,6.9706,7.255,7.2767,7.2509,7.2238,7.4796,7.6653,7.6614,7.8199,7.9248,7.9248,7.9522,7.9717,7.9717,7.9561,7.9483,7.9483,7.8507,7.7609,7.6906,7.4876,7.2221,6.8942,6.6912,6.4687,6.2267,6.0705,6.0861,6.2618,6.4375,6.8708,7.4954,7.9209,8.2371,8.4792,8.7407,8.9437,9.0843,9.0999,9.0999,9.0765,9.0218,9.0374,9.0843,9.0843,9.1858,9.3068,9.2639,9.3497,9.4512,9.3771,9.4083,9.4434,9.3419,9.3029,9.2561,9.1194,9.0062,8.9086,8.8227,8.7329,8.6471,8.5612,8.405,8.2645,8.1981,7.9014,7.6984,7.796,7.5462,7.3627,0.0,0.0,0.0,0.0,0.0,7.3627,7.3627,7.5071,7.6516,7.7687,8.12,8.3113,8.2762,8.4714,8.608,8.6549,8.8266,9.0648,9.3771,9.4083,9.5332,9.7479,9.6894,9.7011,9.7714,9.7714,9.7714,9.7675,9.6933,9.6542,9.6347,9.5606,9.5645,9.6152,9.6152,9.6152,9.6269,9.7167,9.6113,9.4552,6.3164,0.0,0.0,0.0,6.9818,7.1945,7.3999,7.5133,7.5776,7.5713,7.6895,7.8065,7.8885,7.9814,8.0576,8.1005,8.1435,8.1864,8.2332,8.2332,8.2137,8.1708,8.0888,7.999,7.9131,7.7414,7.5032,7.2065,7.0348,6.8396,6.6288,6.4531,6.4648,6.6444,6.9059,7.23,7.6086,8.0459,8.3543,8.5729,8.8813,9.0804,9.2014,9.2912,9.299,9.26,9.2639,9.3224,9.3732,9.2365,9.2756,9.3888,9.4356,9.5098,9.5684,9.5254,9.5449,9.5567,9.4708,9.4473,9.4278,9.3458,9.2639,9.1858,9.1428,9.0335,8.9164,8.8305,8.6744,8.487,8.2684,8.0927,7.9795,7.9717,7.7921,7.6672,7.7101,0.0,7.5188,0.0,0.0,0.0,0.0,7.636,7.7687,7.9014,8.1044,8.2411,8.2918,8.4089,8.5182,8.608,8.7798,8.9906,9.2482,9.338,9.4669,9.6347,9.6386,9.6855,9.7714,9.7714,9.744,9.7011,9.6582,9.5879,9.5059,9.5098,9.5098,9.5137,9.6035,9.584,9.5215,9.6542,9.5645,9.4122,6.6627,6.7914,0.0,7.0336,7.2444,7.4301,7.5197,7.7183,7.8637,7.8793,7.8857,7.9448,8.0924,8.1294,8.1733,8.263,8.3293,8.3965,8.4685,8.4724,8.4458,8.3816,8.2996,8.2137,8.1278,7.9561,7.7492,7.5032,7.3549,7.1441,6.8825,6.82,6.8747,7.0348,7.3432,7.5579,7.7218,8.1825,8.4909,8.6939,9.0218,9.217,9.3185,9.4591,9.4786,9.4434,9.4903,9.5527,9.5801,9.3732,9.3732,9.4864,9.623,9.6699,9.6699,9.6699,9.6699,9.6542,9.584,9.5645,9.5606,9.541,9.4864,9.4317,9.4122,9.3068,9.1819,9.0765,8.8852,8.651,8.366,8.2801,8.2293,8.1474,8.0146,7.9366,7.9717,7.8272,7.7375,0.0,0.0,0.0,7.6711,7.7882,7.9405,8.1161,8.1278,8.1864,8.3152,8.3582,8.448,8.6041,8.7798,8.9633,9.1546,9.2873,9.4161,9.5371,9.5879,9.6699,9.7714,9.7714,9.7206,9.6386,9.6386,9.5527,9.4122,9.4825,9.4708,9.42,9.5606,9.5293,9.4239,9.5606,9.5254,9.4278,6.9554,7.107,7.2827,7.4677,7.6295,7.7619,7.853,7.9541,7.9367,7.7093,7.8961,8.0698,8.132,8.2184,8.3056,8.395,8.4067,8.4254,8.452,8.4533,8.4579,8.4668,8.3855,8.2996,8.2215,8.0459,7.8663,7.6867,7.593,7.2567,6.7097,7.0108,7.2026,7.3008,7.4876,7.7492,8.0693,8.3504,8.6158,8.8696,9.1311,9.338,9.4864,9.502,9.5527,9.6074,9.5332,9.5137,9.5176,9.4942,9.5957,9.7362,9.7518,9.7597,9.7597,9.7597,9.7597,9.7558,9.7479,9.744,9.7284,9.6464,9.623,9.5957,9.5176,9.4864,9.4278,9.26,8.9672,8.7056,8.5963,8.4441,8.4128,8.6314,8.4011,8.2489,8.3972,8.2762,8.1435,8.0732,0.0,0.0,7.9405,7.9483,8.0302,8.2059,8.2176,8.2254,8.2411,8.3855,8.5104,8.608,8.7798,8.9906,9.2365,9.2522,9.3849,9.6269,9.5567,9.6074,9.7714,9.7714,9.7206,9.6386,9.6386,9.5879,9.4981,9.5059,9.5059,9.4981,9.5176,9.5137,9.4981,9.5176,9.5137,9.4981,7.3156,7.502,7.6767,7.7429,7.8822,7.9997,8.0368,8.1608,8.1934,8.0384,8.1252,8.2279,8.3014,8.3426,8.401,8.4903,8.4981,8.5253,8.5849,8.5888,8.5915,8.5999,8.5181,8.46,8.4395,8.2176,8.0771,8.0224,7.8819,7.6633,7.3777,7.4642,7.5266,7.5696,7.7921,7.999,8.1942,8.4519,8.6783,8.8891,9.096,9.2795,9.4395,9.4903,9.5332,9.5567,9.5215,9.5098,9.5098,9.5098,9.5567,9.6152,9.6152,9.6152,9.6152,9.6152,9.6152,9.6152,9.6152,9.6152,9.6074,9.5723,9.5606,9.5527,9.5176,9.4708,9.4122,9.3419,9.0999,8.8696,8.7837,8.7095,8.6627,8.6627,8.5456,8.4636,8.4792,8.3777,8.2879,8.2528,0.0,8.1981,0.0,8.1396,8.1864,8.1552,8.1981,8.2723,8.3738,8.4441,8.569,8.7603,8.8344,8.9906,9.2482,9.3029,9.4083,9.5606,9.5801,9.6269,9.6933,9.744,9.7206,9.6347,9.5293,9.463,9.4356,9.4864,9.4473,9.3654,9.4708,9.4786,9.4317,9.4317,9.4317,9.4395,7.6549,7.8292,7.9819,8.0227,8.1207,8.2096,8.2406,8.3436,8.3961,8.3382,8.3618,8.3987,8.4359,8.463,8.5018,8.5638,8.5676,8.5948,8.663,8.6669,8.6821,8.715,8.6355,8.607,8.6451,8.3635,8.2304,8.2567,8.0576,7.8663,7.6906,7.6281,7.6789,7.835,8.0459,8.1981,8.3191,8.5768,8.772,8.9242,9.1233,9.2756,9.3888,9.4786,9.5098,9.5098,9.5098,9.5098,9.5059,9.4786,9.4708,9.4747,9.502,9.5098,9.5098,9.5098,9.5098,9.5098,9.5098,9.5098,9.5098,9.5098,9.5098,9.5098,9.5098,9.463,9.4044,9.3537,9.1819,9.014,8.9242,8.9086,8.8774,8.7798,8.7212,8.6666,8.6041,8.4987,8.4362,8.4636,8.4636,8.4089,8.2645,8.3582,8.3543,8.1864,0.0,8.3347,8.405,8.5026,8.6275,8.7876,8.8696,9.0062,9.2131,9.3263,9.4239,9.5098,9.5996,9.6542,9.6777,9.7167,9.6972,9.6308,9.4825,9.4161,9.4239,9.5137,9.4473,9.3029,9.4512,9.4552,9.3771,9.3497,9.3888,9.4552,7.94,8.0439,8.1677,8.3502,8.3693,8.395,8.5009,8.5004,8.4863,8.4863,8.5555,8.5747,8.4978,8.5593,8.6055,8.6094,8.6094,8.617,8.6396,8.6396,8.6868,8.7953,8.7204,8.7181,8.795,8.4604,8.2986,8.3191,8.0654,7.7329,7.3342,7.3342,7.608,8.1005,8.1903,8.323,8.4941,8.7564,8.9164,9.0218,9.2756,9.3771,9.3888,9.4786,9.5098,9.5098,9.5098,9.5098,9.4981,9.4122,9.381,9.3966,9.4825,9.5098,9.5098,9.5098,9.5098,9.5098,9.5098,9.5098,9.5098,9.5098,9.5098,9.5098,9.5098,9.5098,9.4591,9.2873,9.1858,9.1038,9.014,8.9984,9.0257,9.1116,8.9789,8.8657,8.8657,8.7173,8.6392,8.7251,8.7368,8.7017,8.6119,8.6041,8.5338,8.3582,0.0,8.405,8.2411,8.5534,8.6978,8.6158,8.8657,9.0413,9.1311,9.299,9.4239,9.5098,9.5996,9.6855,9.7675,9.6816,9.6425,9.6347,9.5488,9.5098,9.5137,9.6035,9.5371,9.3888,9.4747,9.4552,9.3693,9.2834,9.4161,9.5996,8.1285,8.267,8.3894,8.4489,8.4966,8.5434,8.576,8.6274,8.6594,8.6588,8.7786,8.8363,8.755,8.7204,8.7012,8.7012,8.7512,8.7897,8.7974,8.7974,8.8149,8.845,8.8236,8.8004,8.7794,8.6124,8.5113,8.4761,8.3348,8.1714,7.9851,7.9376,8.0357,8.2591,8.4185,8.5534,8.6705,8.8735,9.0101,9.096,9.178,9.2334,9.2741,9.3162,9.3142,9.2938,9.3055,9.3029,9.2899,9.2744,9.269,9.2791,9.3209,9.3341,9.3341,9.3341,9.3341,9.3341,9.3341,9.3341,9.3341,9.3341,9.3341,9.3341,9.3341,9.3341,9.3185,9.26,9.1858,9.1389,9.1663,9.1272,9.096,9.1233,9.0843,9.0257,8.9672,8.8618,8.7759,8.7446,8.6861,8.6158,8.5299,8.5768,8.6119,8.6158,8.7525,8.7329,8.5026,8.651,8.7837,8.8735,8.9555,9.0687,9.2092,9.3849,9.4825,9.5137,9.6582,9.7128,9.6777,9.5918,9.5527,9.5488,9.4591,9.42,9.4278,9.5137,9.4825,9.3966,9.541,9.5449,9.4591,9.3693,9.4278,9.5215,8.3555,8.4593,8.544,8.5786,8.6247,8.6709,8.7017,8.7517,8.7897,8.7858,8.8782,8.9282,8.8782,8.8479,8.8243,8.7897,8.8397,8.8709,8.8709,8.8709,8.8825,8.9133,8.8829,8.8825,8.9013,8.7555,8.6781,8.6817,8.5694,8.4876,8.43,8.3887,8.417,8.5043,8.6373,8.7438,8.8326,8.974,9.0637,9.1184,9.1403,9.1768,9.2121,9.221,9.2137,9.1936,9.2031,9.2034,9.1936,9.2031,9.2104,9.2121,9.2224,9.2288,9.2312,9.2468,9.2482,9.2475,9.2403,9.2393,9.2383,9.23,9.2288,9.2288,9.2288,9.2288,9.2288,9.2288,9.1883,9.1671,9.2178,9.1844,9.1547,9.1547,9.1547,9.1236,9.0327,8.9827,8.9462,8.9213,8.8509,8.772,8.6822,8.6939,8.69,8.6471,8.8032,8.8305,8.6666,8.772,8.8579,8.9008,8.9984,9.1155,9.2482,9.4552,9.5606,9.5606,9.7011,9.7401,9.6855,9.6308,9.5723,9.5059,9.4512,9.4083,9.3888,9.4747,9.4786,9.4395,9.5488,9.5371,9.4512,9.3615,9.3849,9.4395,8.6017,8.6209,8.6478,8.7325,8.7478,8.7748,8.8589,8.8705,8.8705,8.8777,8.8777,8.882,8.8871,8.9524,8.971,8.8931,8.8867,8.8871,8.8871,8.8871,8.9217,8.9983,8.9252,8.956,9.1095,8.8786,8.8065,8.8991,8.7522,8.686,8.686,8.6842,8.7269,8.8067,8.839,8.8973,8.9713,9.0624,9.0974,9.1038,9.1646,9.1894,9.1894,9.1915,9.1894,9.1872,9.1872,9.1872,9.1872,9.1872,9.1894,9.1894,9.1915,9.1915,9.1957,9.2334,9.2468,9.2412,9.2224,9.2182,9.2152,9.1957,9.1915,9.1915,9.1915,9.1915,9.1915,9.1915,9.1899,9.191,9.191,9.188,9.1915,9.1894,9.1894,9.1622,9.0785,9.0794,9.1203,9.202,9.1582,9.0875,9.0062,8.9281,8.7837,8.5495,8.6783,8.772,8.7759,8.9242,8.932,8.7642,9.0062,9.1741,9.2482,9.5098,9.6425,9.6503,9.7323,9.7636,9.7518,9.7518,9.6582,9.4903,9.4903,9.4473,9.3888,9.4747,9.5137,9.5176,9.5176,9.4669,9.3771,9.2912,9.3146,9.3771,8.6786,8.7094,8.7363,8.8248,8.8363,8.8474,8.8666,8.8705,8.8936,8.9542,8.9619,8.9855,9.0556,9.0787,9.0825,9.0594,9.0633,9.0598,9.0598,9.0598,9.0675,9.0902,9.071,9.0479,9.021,8.9633,8.9128,8.8765,8.8405,8.8244,8.8205,8.8362,8.8585,8.8804,8.9698,9.0188,9.0422,9.1277,9.1685,9.1666,9.1859,9.1766,9.1618,9.1811,9.1683,9.1392,9.155,9.1504,9.1392,9.155,9.1592,9.1618,9.185,9.1915,9.1936,9.1995,9.2013,9.2013,9.1957,9.1957,9.1977,9.1915,9.1915,9.1915,9.1915,9.1915,9.1915,9.1915,9.1897,9.1879,9.1879,9.1897,9.1911,9.1912,9.1888,9.1849,9.1616,9.1051,9.081,9.114,9.0496,9.0022,9.0016,8.9828,8.9984,9.0648,9.0492,9.0648,9.1272,9.1116,9.0492,8.9437,9.1233,9.2326,9.2482,9.5098,9.6738,9.7401,9.7597,9.7011,9.5723,9.5723,9.4747,9.3107,9.3107,9.338,9.3888,9.4747,9.5488,9.6074,9.6074,9.5567,9.4708,9.381,9.4044,9.4552,8.7825,8.7979,8.8132,8.8632,8.8979,8.9282,8.9244,8.9556,8.9979,9.0471,9.0509,9.0668,9.1133,9.121,9.121,9.121,9.121,9.121,9.121,9.121,9.121,9.121,9.121,9.0979,9.0517,9.0479,9.0287,8.9825,8.9825,8.9825,8.9825,8.9948,9.0011,9.0041,9.074,9.0996,9.1035,9.15,9.1718,9.1694,9.1604,9.1504,9.1392,9.1533,9.1423,9.1206,9.1297,9.1303,9.1245,9.1329,9.1392,9.1423,9.1533,9.1589,9.1589,9.1589,9.1733,9.1894,9.1742,9.1718,9.1708,9.1577,9.1589,9.1589,9.1589,9.1589,9.1589,9.1589,9.1589,9.1589,9.1589,9.1589,9.16,9.1561,9.16,9.16,9.16,9.1251,9.1179,9.1721,9.1121,9.0735,9.0958,9.0667,9.0686,9.1311,9.1311,9.1507,9.1936,9.1897,9.1624,9.1155,9.2404,9.3497,9.4278,9.6074,9.7245,9.7714,9.7714,9.7206,9.6308,9.6308,9.5332,9.3693,9.3693,9.3966,9.4395,9.4473,9.5488,9.6894,9.5684,9.5176,9.4942,9.3654,9.3497,9.3771,8.8863,8.8863,8.8902,8.9056,8.9633,9.0094,9.009,9.071,9.121,9.121,9.121,9.121,9.121,9.121,9.121,9.121,9.121,9.121,9.121,9.121,9.121,9.121,9.121,9.121,9.121,9.121,9.121,9.121,9.121,9.121,9.121,9.121,9.121,9.121,9.1354,9.1436,9.1436,9.1436,9.1436,9.1436,9.127,9.121,9.121,9.121,9.121,9.121,9.121,9.121,9.121,9.121,9.121,9.121,9.121,9.121,9.121,9.121,9.1475,9.1757,9.1522,9.1436,9.1415,9.1241,9.121,9.121,9.121,9.121,9.121,9.121,9.121,9.121,9.121,9.121,9.1287,9.1556,9.1479,9.1479,9.1748,9.1824,9.2122,9.2886,9.2547,9.2286,9.2526,9.191,9.1275,9.0742,9.1421,9.1858,9.1858,9.2522,9.2951,9.3068,9.3693,9.4825,9.6582,9.7323,9.7714,9.7714,9.7714,9.7636,9.7518,9.7362,9.6503,9.5098,9.4825,9.4864,9.502,9.4161,9.5176,9.705,9.4708,9.4317,9.4903,9.3146,9.2678,9.2834,8.9594,8.971,8.994,9.0671,9.0902,9.1018,9.0979,9.1095,9.121,9.121,9.121,9.121,9.121,9.121,9.121,9.121,9.121,9.121,9.121,9.121,9.121,9.121,9.121,9.121,9.121,9.121,9.121,9.121,9.121,9.121,9.121,9.121,9.121,9.121,9.1241,9.1241,9.1241,9.1241,9.1241,9.1241,9.1206,9.121,9.121,9.121,9.121,9.121,9.121,9.121,9.121,9.121,9.121,9.121,9.121,9.121,9.121,9.121,9.1241,9.127,9.1275,9.1241,9.1241,9.121,9.121,9.121,9.121,9.121,9.121,9.121,9.121,9.121,9.121,9.121,9.1672,9.3095,9.2749,9.2787,9.421,9.382,9.3495,9.3853,9.3833,9.3853,9.4035,9.4129,9.4145,9.4056,9.4354,9.4512,9.4512,9.463,9.502,9.5762,9.5215,9.5723,9.7479,9.7636,9.7714,9.7714,9.7714,9.7323,9.6582,9.584,9.5371,9.502,9.3537,9.3732,9.502,9.4161,9.4473,9.5371,9.4239,9.4317,9.4903,9.3146,9.3419,9.4473,9.0517,9.0594,9.0748,9.1133,9.121,9.121,9.121,9.121,9.121,9.121,9.121,9.121,9.121,9.121,9.121,9.121,9.121,9.121,9.121,9.121,9.121,9.121,9.121,9.121,9.121,9.121,9.121,9.121,9.121,9.121,9.121,9.121,9.121,9.121,9.121,9.121,9.121,9.121,9.121,9.121,9.121,9.121,9.121,9.121,9.121,9.121,9.121,9.121,9.121,9.121,9.121,9.121,9.121,9.121,9.121,9.121,9.121,9.121,9.121,9.121,9.121,9.121,9.121,9.121,9.121,9.121,9.121,9.121,9.121,9.121,9.121,9.121,9.1595,9.2864,9.2749,9.2903,9.4134,9.3941,9.3936,9.453,9.4145,9.4157,9.4822,9.4598,9.4542,9.4793,9.4901,9.5007,9.5098,9.5098,9.5488,9.6386,9.6464,9.6894,9.7675,9.7714,9.7714,9.7714,9.7714,9.7245,9.6386,9.5996,9.5293,9.4356,9.3537,9.3654,9.4317,9.3458,9.3888,9.4981,9.3615,9.3615,9.4239,9.2951,9.299,9.3576,9.121,9.121,9.121,9.121,9.121,9.121,9.121,9.121,9.121,9.121,9.121,9.121,9.121,9.121,9.121,9.121,9.121,9.121,9.121,9.121,9.121,9.121,9.121,9.121,9.121,9.121,9.121,9.121,9.121,9.121,9.121,9.121,9.121,9.121,9.121,9.121,9.121,9.121,9.121,9.121,9.121,9.121,9.121,9.121,9.121,9.121,9.121,9.121,9.121,9.121,9.121,9.121,9.121,9.121,9.121,9.121,9.121,9.121,9.121,9.121,9.121,9.121,9.121,9.121,9.121,9.121,9.121,9.121,9.121,9.121,9.121,9.121,9.1556,9.2595,9.2633,9.2903,9.4134,9.4134,9.4326,9.5211,9.4711,9.4625,9.5432,9.5022,9.4822,9.5204,9.5307,9.5433,9.5612,9.5676,9.5996,9.6699,9.7362,9.7714,9.7714,9.7714,9.7714,9.7714,9.7714,9.7362,9.6699,9.6269,9.5488,9.4356,9.3771,9.3615,9.3732,9.2873,9.3302,9.4356,9.3029,9.3029,9.3693,9.2834,9.2639,9.2756,9.121,9.121,9.121,9.121,9.121,9.121,9.121,9.121,9.121,9.121,9.121,9.121,9.121,9.121,9.121,9.121,9.121,9.121,9.121,9.121,9.121,9.121,9.121,9.121,9.121,9.121,9.121,9.121,9.121,9.121,9.121,9.121,9.121,9.121,9.121,9.121,9.121,9.121,9.121,9.121,9.121,9.121,9.121,9.121,9.121,9.121,9.121,9.121,9.121,9.121,9.121,9.121,9.121,9.121,9.121,9.121,9.121,9.121,9.121,9.121,9.121,9.121,9.121,9.121,9.121,9.121,9.121,9.121,9.121,9.121,9.121,9.121,9.1748,9.3364,9.2979,9.3326,9.5788,9.5403,9.5211,9.6095,9.6134,9.6134,9.6209,9.6326,9.6426,9.6454,9.6877,9.7106,9.7121,9.7358,9.7558,9.7597,9.7675,9.7714,9.7714,9.7714,9.7714,9.7714,9.7714,9.7675,9.7558,9.5918,9.5567,9.6074,9.3654,9.3068,9.3732,9.2873,9.2561,9.2678,9.2561,9.3029,9.3693,9.2834,9.299,9.3576,9.121,9.121,9.121,9.121,9.121,9.121,9.121,9.121,9.121,9.121,9.121,9.121,9.121,9.121,9.121,9.121,9.121,9.121,9.121,9.121,9.121,9.121,9.121,9.121,9.121,9.121,9.121,9.121,9.121,9.121,9.121,9.121,9.121,9.121,9.121,9.121,9.121,9.121,9.121,9.121,9.121,9.121,9.121,9.121,9.121,9.121,9.121,9.121,9.121,9.121,9.121,9.121,9.121,9.121,9.121,9.121,9.121,9.121,9.121,9.121,9.121,9.121,9.121,9.121,9.121,9.121,9.121,9.121,9.121,9.121,9.121,9.121,9.1595,9.2749,9.271,9.321,9.5211,9.5211,9.5326,9.6211,9.6288,9.6288,9.6288,9.6394,9.6487,9.656,9.6747,9.7009,9.7286,9.7544,9.7714,9.7714,9.7714,9.7714,9.7714,9.7714,9.7714,9.7714,9.7714,9.7401,9.6855,9.5645,9.4981,9.4747,9.3732,9.3185,9.3068,9.381,9.3497,9.2561,9.3107,9.3185,9.3029,9.3224,9.3185,9.3107,9.121,9.121,9.121,9.121,9.121,9.121,9.121,9.121,9.121,9.121,9.121,9.121,9.121,9.121,9.121,9.121,9.121,9.121,9.121,9.121,9.121,9.121,9.121,9.121,9.121,9.121,9.121,9.121,9.121,9.121,9.121,9.121,9.121,9.121,9.121,9.121,9.121,9.121,9.121,9.121,9.121,9.121,9.121,9.121,9.121,9.121,9.121,9.121,9.121,9.121,9.121,9.121,9.121,9.121,9.121,9.121,9.121,9.121,9.121,9.121,9.121,9.121,9.121,9.121,9.121,9.121,9.121,9.121,9.121,9.121,9.121,9.121,9.1402,9.1979,9.2326,9.2979,9.4403,9.4826,9.5326,9.6211,9.6288,9.6288,9.6288,9.6288,9.6358,9.6481,9.6568,9.6799,9.7286,9.7472,9.7611,9.7714,9.7714,9.7714,9.7714,9.7714,9.7714,9.7714,9.7714,9.7401,9.6777,9.5918,9.5176,9.4591,9.4317,9.3888,9.338,9.4317,9.4005,9.2951,9.3263,9.3029,9.2561,9.3185,9.3185,9.3068,9.121,9.121,9.121,9.121,9.121,9.121,9.121,9.121,9.121,9.121,9.121,9.121,9.121,9.121,9.121,9.121,9.121,9.121,9.121,9.121,9.121,9.121,9.121,9.121,9.121,9.121,9.121,9.121,9.121,9.121,9.121,9.121,9.121,9.121,9.121,9.121,9.121,9.121,9.121,9.121,9.121,9.121,9.121,9.121,9.121,9.121,9.121,9.121,9.121,9.121,9.121,9.121,9.121,9.121,9.121,9.121,9.121,9.121,9.121,9.121,9.121,9.121,9.121,9.121,9.121,9.121,9.121,9.121,9.121,9.121,9.121,9.121,9.121,9.121,9.1941,9.2787,9.3595,9.4441,9.5326,9.6211,9.6288,9.6288,9.6288,9.6288,9.6288,9.6288,9.6481,9.6799,9.7286,9.7301,9.7409,9.7675,9.7714,9.7714,9.7714,9.7714,9.7714,9.7714,9.7714,9.7714,9.7675,9.6816,9.6386,9.6347,9.5488,9.5098,9.502,9.4161,9.381,9.3693,9.2834,9.2522,9.2482,9.2522,9.3068,9.381,9.121,9.121,9.121,9.121,9.121,9.121,9.121,9.121,9.121,9.121,9.121,9.121,9.121,9.121,9.121,9.121,9.121,9.121,9.121,9.121,9.121,9.121,9.121,9.121,9.121,9.121,9.121,9.121,9.121,9.121,9.121,9.121,9.121,9.121,9.121,9.121,9.121,9.121,9.121,9.121,9.121,9.121,9.121,9.121,9.121,9.121,9.121,9.121,9.121,9.121,9.121,9.121,9.121,9.121,9.1325,9.1941,9.2095,9.2095,9.2095,9.2095,9.1979,9.1364,9.121,9.121,9.121,9.121,9.121,9.121,9.1672,9.2095,9.2095,9.2556,9.2941,9.2941,9.271,9.2979,9.4403,9.4287,9.4634,9.6134,9.6288,9.6288,9.6288,9.6288,9.6288,9.6288,9.6481,9.6759,9.7051,9.7238,9.7409,9.7675,9.7714,9.7714,9.7714,9.7714,9.7714,9.7714,9.7714,9.7714,9.7675,9.6816,9.6386,9.6386,9.6113,9.5332,9.4278,9.5215,9.4552,9.2912,9.3263,9.3029,9.2561,9.3185,9.3185,9.3139,9.11,9.1098,9.1133,9.121,9.1171,9.1133,9.1133,9.1133,9.1133,9.1095,9.1095,9.121,9.1518,9.1595,9.1633,9.1633,9.1672,9.1672,9.1633,9.1672,9.1556,9.121,9.121,9.121,9.121,9.121,9.121,9.121,9.121,9.121,9.121,9.121,9.121,9.121,9.121,9.121,9.121,9.121,9.121,9.121,9.121,9.121,9.121,9.121,9.121,9.121,9.121,9.121,9.121,9.121,9.121,9.121,9.121,9.121,9.1364,9.2249,9.2479,9.2556,9.2903,9.2749,9.2364,9.1864,9.1479,9.121,9.121,9.121,9.1287,9.1633,9.2133,9.2595,9.2903,9.3364,9.371,9.371,9.3595,9.3826,9.4864,9.4826,9.5134,9.6172,9.6288,9.6288,9.6288,9.6288,9.6288,9.6288,9.6425,9.6628,9.6982,9.713,9.7355,9.7675,9.8026,9.8221,9.8221,9.8572,9.8377,9.7714,9.7714,9.7714,9.7675,9.7167,9.6894,9.6894,9.6894,9.6308,9.541,9.6113,9.5254,9.3576,9.4122,9.3771,9.3107,9.4005,9.3942,9.3671,9.0991,9.0947,9.0979,9.1136,9.1095,9.1018,9.1018,9.0982,9.0947,9.0908,9.0908,9.1213,9.2021,9.2213,9.229,9.2364,9.2441,9.2441,9.2287,9.2361,9.2053,9.1248,9.121,9.121,9.121,9.121,9.121,9.121,9.121,9.121,9.121,9.121,9.121,9.121,9.121,9.121,9.121,9.121,9.121,9.121,9.121,9.121,9.121,9.121,9.121,9.121,9.121,9.1248,9.1325,9.1402,9.1364,9.1325,9.1402,9.1441,9.1595,9.2479,9.271,9.2864,9.3633,9.3287,9.271,9.2633,9.2018,9.1402,9.1325,9.1325,9.1556,9.2441,9.2595,9.2864,9.3672,9.3864,9.3941,9.3941,9.4518,9.5018,9.5095,9.5711,9.6211,9.6288,9.6288,9.6288,9.6288,9.6288,9.6288,9.6288,9.6288,9.6525,9.7052,9.7099,9.7342,9.7893,9.8682,9.9119,9.9119,9.99,9.9509,9.7948,9.7948,9.7948,9.7948,9.7948,9.7948,9.7948,9.7948,9.7909,9.7753,9.6972,9.6113,9.5332,9.5332,9.4817,9.4185,9.4934,9.5065,9.4987,9.0954,9.0912,9.0908,9.0953,9.0949,9.0941,9.0941,9.0915,9.0908,9.087,9.087,9.1217,9.2023,9.2129,9.2444,9.3101,9.2638,9.233,9.2294,9.179,9.1402,9.121,9.121,9.121,9.121,9.121,9.121,9.121,9.121,9.121,9.121,9.121,9.121,9.121,9.121,9.121,9.121,9.121,9.121,9.121,9.121,9.121,9.121,9.121,9.121,9.121,9.121,9.1633,9.2326,9.2941,9.2749,9.2326,9.2941,9.3172,9.3326,9.421,9.4441,9.448,9.4672,9.4595,9.4287,9.3595,9.3287,9.2979,9.2364,9.221,9.2441,9.3249,9.3441,9.371,9.4557,9.5288,9.5749,9.5749,9.5326,9.5249,9.5903,9.5595,9.5518,9.6211,9.6288,9.6288,9.6288,9.6288,9.6288,9.6288,9.6288,9.6733,9.7644,9.7921,9.8452,9.941,9.9817,10.0017,10.0017,10.0212,10.0095,9.9744,9.9744,9.9744,9.9744,9.9744,9.9744,9.9744,9.9744,9.9353,9.869,9.8494,9.7909,9.7128,9.7128,9.689,9.6486,9.5979,9.568,9.5472,9.0799,9.0762,9.08,9.0877,9.0839,9.08,9.08,9.1179,9.1399,9.1361,9.1361,9.1782,9.3009,9.2842,9.3191,9.4439,9.3889,9.3434,9.3443,9.313,9.2592,9.1825,9.1787,9.1633,9.121,9.121,9.121,9.121,9.121,9.121,9.121,9.121,9.121,9.121,9.121,9.121,9.121,9.121,9.121,9.121,9.121,9.121,9.121,9.121,9.121,9.121,9.121,9.1748,9.2633,9.3441,9.3403,9.3133,9.3557,9.371,9.3864,9.4749,9.498,9.5095,9.5518,9.5326,9.4864,9.4441,9.4326,9.4095,9.3249,9.3056,9.3287,9.4134,9.4326,9.4595,9.5441,9.598,9.6288,9.6288,9.5903,9.5788,9.6249,9.5903,9.5788,9.6249,9.6288,9.6288,9.6288,9.6288,9.6288,9.6288,9.6673,9.72,9.7836,9.8398,9.9063,9.9858,10.0411,10.0792,10.0915,10.1305,10.15,10.15,10.0681,10.029,10.029,10.029,10.029,10.029,10.029,10.0017,9.9627,9.9627,9.9016,9.8185,9.8575,9.8329,9.7732,9.7674,9.7532,9.7185,9.0679,9.0635,9.0635,9.0837,9.0755,9.0746,9.0861,9.1514,9.1973,9.2007,9.2007,9.2584,9.4122,9.3917,9.4255,9.5637,9.5102,9.4662,9.4597,9.4593,9.409,9.2938,9.263,9.2168,9.1441,9.1287,9.121,9.121,9.121,9.121,9.121,9.121,9.121,9.121,9.121,9.121,9.121,9.121,9.121,9.121,9.121,9.121,9.121,9.121,9.121,9.121,9.121,9.1748,9.2672,9.3749,9.4057,9.3941,9.4095,9.4134,9.4287,9.5018,9.5211,9.5365,9.6095,9.5788,9.5211,9.5211,9.5211,9.5018,9.4287,9.4018,9.4172,9.5018,9.5095,9.5249,9.6134,9.6288,9.6288,9.6288,9.6288,9.6288,9.6288,9.6288,9.6288,9.6288,9.6288,9.6288,9.6288,9.6442,9.6519,9.6519,9.725,9.7896,9.8276,9.8957,9.9603,10.0183,10.101,10.149,10.1709,10.239,10.2789,10.2789,10.1383,10.0681,10.0681,10.0681,10.0681,10.0681,10.0681,10.0681,10.0681,10.0681,10.0207,9.9396,10.0107,9.9755,9.8924,9.941,9.9338,9.8824,9.0593,9.0593,9.0593,9.0635,9.0631,9.0861,9.1552,9.1743,9.2083,9.2799,9.2913,9.3262,9.4275,9.4916,9.5369,9.5598,9.4943,9.4452,9.419,9.3907,9.3906,9.4289,9.3133,9.2438,9.2322,9.1595,9.121,9.121,9.121,9.121,9.121,9.121,9.121,9.121,9.121,9.121,9.121,9.121,9.121,9.121,9.121,9.121,9.121,9.121,9.121,9.121,9.121,9.1748,9.2864,9.5172,9.5441,9.4941,9.5711,9.5942,9.598,9.6095,9.6134,9.6134,9.6288,9.6211,9.6134,9.6134,9.6134,9.6095,9.598,9.5365,9.5057,9.5942,9.5518,9.5249,9.6134,9.6288,9.6288,9.6288,9.6288,9.6288,9.6288,9.6288,9.6288,9.6288,9.6288,9.6288,9.6288,9.6942,9.7326,9.7326,9.8134,9.898,9.9749,10.0105,10.0604,10.139,10.1992,10.2304,10.2397,10.2704,10.2789,10.2789,10.2593,10.2515,10.2515,10.2515,10.2515,10.2515,10.2515,10.2515,10.2515,10.2515,10.239,10.2217,10.2178,10.1895,10.1425,10.0375,9.9516,9.8786,9.0593,9.0593,9.0593,9.0593,9.0975,9.1399,9.1743,9.2618,9.3377,9.3753,9.3829,9.4141,9.4954,9.5413,9.5598,9.5598,9.5293,9.5102,9.5064,9.4905,9.4789,9.4751,9.3674,9.2941,9.2515,9.1633,9.121,9.121,9.121,9.121,9.121,9.121,9.121,9.121,9.121,9.121,9.121,9.121,9.121,9.121,9.121,9.121,9.121,9.121,9.121,9.1325,9.2249,9.3172,9.4134,9.5749,9.6057,9.5788,9.6172,9.6288,9.6288,9.6288,9.6288,9.6288,9.6288,9.6288,9.6288,9.6288,9.6288,9.6288,9.6288,9.6019,9.5826,9.6211,9.598,9.5826,9.6249,9.6288,9.6288,9.6288,9.6288,9.6288,9.6288,9.6288,9.6288,9.6288,9.6288,9.648,9.6942,9.6903,9.7211,9.8173,9.8134,9.8673,9.9981,10.0206,10.0689,10.1696,10.1879,10.2117,10.2285,10.2417,10.2413,10.2413,10.2582,10.2694,10.2789,10.2789,10.2789,10.2789,10.2789,10.2789,10.2781,10.2683,10.249,10.2396,10.2101,10.193,10.16,10.1017,10.0519,10.0096]},{"header":{"parameterUnit":"m.s-1","parameterCategory":1,"la1":30.6,"la2":28.766,"lo1":-90.7593,"lo2":-88.6598,"dx":0.0162,"dy":0.0183,"nx":116,"ny":114,"refTime":"2022-12-21T06:00:00:Z","depth":0,"parameterNumber":3,"parameterNumberName":"V-component_of_WINDS"},"data":[0.0,0.0,0.0,0.0,0.0,0.0,0.0,0.0,0.0,0.0,0.0,0.0,0.0,0.0,0.0,0.0,0.0,0.0,0.0,0.0,0.0,0.0,0.0,0.0,0.0,0.0,0.0,0.0,0.0,0.0,0.0,0.0,0.0,0.0,0.0,0.0,0.0,0.0,0.0,0.0,0.0,0.0,0.0,0.0,0.0,0.0,0.0,0.0,0.0,0.0,0.0,0.0,0.0,0.0,0.0,0.0,0.0,0.0,0.0,0.0,0.0,0.0,0.0,0.0,0.0,0.0,0.0,0.0,0.0,0.0,0.0,0.0,0.0,0.0,0.0,0.0,0.0,0.0,0.0,0.0,0.0,0.0,0.0,0.0,0.0,0.0,0.0,0.0,0.0,0.0,0.0,0.0,0.0,0.0,0.0,0.0,0.0,0.0,0.0,0.0,0.0,0.0,0.0,0.0,0.0,0.0,0.0,0.0,0.0,0.0,0.0,0.0,0.0,0.0,0.0,0.0,0.0,0.0,0.0,0.0,0.0,0.0,0.0,0.0,0.0,0.0,0.0,0.0,0.0,0.0,0.0,0.0,0.0,0.0,0.0,0.0,0.0,0.0,0.0,0.0,0.0,0.0,0.0,0.0,0.0,0.0,0.0,0.0,0.0,0.0,0.0,0.0,0.0,0.0,0.0,0.0,0.0,0.0,0.0,0.0,0.0,0.0,0.0,0.0,0.0,0.0,0.0,0.0,0.0,0.0,0.0,0.0,0.0,0.0,0.0,0.0,0.0,0.0,0.0,0.0,0.0,0.0,0.0,0.0,0.0,0.0,0.0,0.0,0.0,0.0,0.0,0.0,0.0,0.0,0.0,0.0,0.0,0.0,0.0,0.0,0.0,0.0,0.0,0.0,0.0,0.0,0.0,0.0,0.0,0.0,0.0,0.0,0.0,0.0,0.0,0.0,0.0,0.0,0.0,0.0,0.0,0.0,0.0,0.0,0.0,0.0,0.0,0.0,0.0,0.0,0.0,0.0,0.0,0.0,0.0,0.0,0.0,0.0,0.0,0.0,0.0,0.0,0.0,0.0,0.0,0.0,0.0,0.0,0.0,0.0,0.0,0.0,0.0,0.0,0.0,0.0,0.0,0.0,0.0,0.0,0.0,0.0,0.0,0.0,0.0,0.0,0.0,0.0,0.0,0.0,0.0,0.0,0.0,0.0,0.0,0.0,0.0,0.0,0.0,0.0,0.0,0.0,0.0,0.0,0.0,0.0,0.0,0.0,0.0,0.0,0.0,0.0,0.0,0.0,0.0,0.0,0.0,0.0,0.0,0.0,0.0,0.0,0.0,0.0,0.0,0.0,0.0,0.0,0.0,0.0,0.0,0.0,0.0,0.0,0.0,0.0,0.0,0.0,0.0,0.0,0.0,0.0,0.0,0.0,0.0,0.0,0.0,0.0,0.0,0.0,0.0,0.0,0.0,0.0,0.0,0.0,0.0,0.0,0.0,0.0,0.0,0.0,0.0,0.0,0.0,0.0,0.0,0.0,0.0,0.0,0.0,0.0,0.0,0.0,0.0,0.0,0.0,0.0,0.0,0.0,0.0,0.0,0.0,0.0,0.0,0.0,0.0,0.0,0.0,0.0,0.0,0.0,0.0,0.0,0.0,0.0,0.0,0.0,0.0,0.0,0.0,0.0,0.0,0.0,0.0,0.0,0.0,0.0,0.0,0.0,0.0,0.0,0.0,0.0,0.0,0.0,0.0,0.0,0.0,0.0,0.0,0.0,0.0,0.0,0.0,0.0,0.0,0.0,0.0,0.0,0.0,0.0,0.0,0.0,0.0,0.0,0.0,0.0,0.0,0.0,0.0,0.0,0.0,0.0,0.0,0.0,0.0,0.0,0.0,0.0,0.0,0.0,0.0,0.0,0.0,0.0,0.0,0.0,0.0,0.0,0.0,0.0,0.0,0.0,0.0,0.0,0.0,0.0,0.0,0.0,0.0,0.0,0.0,0.0,0.0,0.0,0.0,0.0,0.0,0.0,0.0,0.0,0.0,0.0,0.0,0.0,0.0,0.0,0.0,0.0,0.0,0.0,0.0,0.0,0.0,0.0,0.0,0.0,0.0,0.0,0.0,0.0,0.0,0.0,0.0,0.0,0.0,0.0,0.0,0.0,0.0,0.0,0.0,0.0,0.0,0.0,0.0,0.0,0.0,0.0,0.0,0.0,0.0,0.0,0.0,0.0,0.0,0.0,0.0,0.0,0.0,0.0,0.0,0.0,0.0,0.0,0.0,0.0,0.0,0.0,0.0,0.0,0.0,0.0,0.0,0.0,0.0,0.0,0.0,0.0,0.0,0.0,0.0,0.0,0.0,0.0,0.0,0.0,0.0,0.0,0.0,0.0,0.0,0.0,0.0,0.0,0.0,0.0,0.0,0.0,0.0,0.0,0.0,0.0,0.0,0.0,0.0,0.0,0.0,0.0,0.0,0.0,0.0,0.0,0.0,0.0,0.0,0.0,0.0,0.0,0.0,0.0,0.0,0.0,0.0,0.0,0.0,0.0,0.0,0.0,0.0,0.0,0.0,0.0,0.0,0.0,0.0,0.0,0.0,0.0,0.0,0.0,0.0,0.0,0.0,0.0,0.0,0.0,0.0,0.0,0.0,0.0,0.0,0.0,0.0,0.0,0.0,0.0,0.0,0.0,0.0,0.0,0.0,0.0,0.0,0.0,0.0,0.0,0.0,0.0,0.0,0.0,0.0,0.0,0.0,0.0,0.0,0.0,0.0,0.0,0.0,0.0,0.0,0.0,0.0,0.0,0.0,0.0,0.0,0.0,0.0,0.0,0.0,0.0,0.0,0.0,0.0,0.0,0.0,0.0,0.0,0.0,0.0,0.0,0.0,0.0,0.0,0.0,0.0,0.0,0.0,0.0,0.0,0.0,0.0,0.0,0.0,0.0,0.0,0.0,0.0,0.0,0.0,0.0,0.0,0.0,0.0,0.0,0.0,0.0,0.0,0.0,0.0,0.0,0.0,0.0,0.0,0.0,0.0,0.0,0.0,0.0,0.0,0.0,0.0,0.0,0.0,0.0,0.0,0.0,0.0,0.0,0.0,0.0,0.0,0.0,0.0,0.0,0.0,0.0,0.0,0.0,0.0,0.0,0.0,0.0,0.0,0.0,0.0,0.0,0.0,0.0,0.0,0.0,0.0,0.0,0.0,0.0,0.0,0.0,0.0,0.0,0.0,0.0,0.0,0.0,0.0,0.0,0.0,0.0,0.0,0.0,0.0,0.0,0.0,0.0,0.0,0.0,0.0,0.0,0.0,0.0,0.0,0.0,0.0,0.0,0.0,0.0,0.0,0.0,0.0,0.0,0.0,0.0,0.0,0.0,0.0,0.0,0.0,0.0,0.0,0.0,0.0,0.0,0.0,0.0,0.0,0.0,0.0,0.0,0.0,0.0,0.0,0.0,0.0,0.0,0.0,0.0,0.0,0.0,0.0,0.0,0.0,0.0,0.0,0.0,0.0,0.0,0.0,0.0,0.0,0.0,0.0,0.0,0.0,0.0,0.0,0.0,0.0,0.0,0.0,0.0,0.0,0.0,0.0,0.0,0.0,0.0,0.0,0.0,0.0,0.0,0.0,0.0,0.0,0.0,0.0,0.0,0.0,0.0,0.0,0.0,0.0,0.0,0.0,0.0,0.0,0.0,0.0,0.0,0.0,0.0,0.0,0.0,0.0,0.0,0.0,0.0,0.0,0.0,0.0,0.0,0.0,0.0,0.0,0.0,0.0,0.0,0.0,0.0,0.0,0.0,0.0,0.0,0.0,0.0,0.0,0.0,0.0,0.0,0.0,0.0,0.0,0.0,0.0,0.0,0.0,0.0,0.0,0.0,0.0,0.0,0.0,0.0,0.0,0.0,0.0,0.0,0.0,0.0,0.0,0.0,0.0,0.0,0.0,0.0,0.0,0.0,0.0,0.0,0.0,0.0,0.0,0.0,0.0,0.0,0.0,0.0,0.0,0.0,0.0,0.0,0.0,0.0,0.0,0.0,0.0,0.0,0.0,0.0,0.0,0.0,0.0,0.0,0.0,0.0,0.0,0.0,0.0,0.0,0.0,0.0,0.0,0.0,0.0,0.0,0.0,0.0,0.0,0.0,0.0,0.0,0.0,0.0,0.0,0.0,0.0,0.0,0.0,0.0,0.0,0.0,0.0,0.0,0.0,0.0,0.0,0.0,0.0,0.0,0.0,0.0,0.0,0.0,0.0,0.0,0.0,0.0,0.0,0.0,0.0,0.0,0.0,0.0,0.0,0.0,0.0,0.0,0.0,0.0,0.0,0.0,0.0,0.0,0.0,0.0,0.0,0.0,0.0,0.0,0.0,0.0,0.0,0.0,0.0,0.0,0.0,0.0,0.0,0.0,0.0,0.0,0.0,0.0,0.0,0.0,0.0,0.0,0.0,0.0,0.0,0.0,0.0,0.0,0.0,0.0,0.0,0.0,0.0,0.0,0.0,0.0,0.0,0.0,0.0,0.0,0.0,0.0,0.0,0.0,0.0,0.0,0.0,0.0,0.0,0.0,0.0,0.0,0.0,0.0,0.0,0.0,0.0,0.0,0.0,0.0,0.0,0.0,0.0,0.0,0.0,0.0,0.0,0.0,0.0,0.0,0.0,0.0,0.0,0.0,0.0,0.0,0.0,0.0,0.0,0.0,0.0,0.0,0.0,0.0,0.0,0.0,0.0,0.0,0.0,0.0,0.0,0.0,0.0,0.0,0.0,0.0,0.0,0.0,0.0,0.0,0.0,0.0,0.0,0.0,0.0,0.0,0.0,0.0,0.0,0.0,0.0,0.0,0.0,0.0,0.0,0.0,0.0,0.0,0.0,0.0,0.0,0.0,0.0,0.0,0.0,0.0,0.0,0.0,0.0,0.0,0.0,0.0,0.0,0.0,0.0,0.0,0.0,0.0,0.0,0.0,0.0,0.0,0.0,0.0,0.0,0.0,0.0,0.0,0.0,0.0,0.0,0.0,0.0,0.0,0.0,0.0,0.0,0.0,0.0,0.0,0.0,0.0,0.0,0.0,0.0,0.0,0.0,0.0,0.0,0.0,0.0,0.0,0.0,0.0,0.0,0.0,0.0,0.0,0.0,0.0,0.0,0.0,0.0,0.0,0.0,0.0,0.0,0.0,0.0,0.0,0.0,0.0,0.0,0.0,0.0,0.0,0.0,0.0,0.0,0.0,0.0,0.0,0.0,0.0,0.0,0.0,0.0,0.0,0.0,0.0,0.0,0.0,0.0,0.0,0.0,0.0,0.0,0.0,0.0,0.0,0.0,0.0,0.0,0.0,0.0,0.0,0.0,0.0,0.0,0.0,0.0,0.0,0.0,0.0,0.0,0.0,0.0,0.0,0.0,0.0,0.0,0.0,0.0,0.0,0.0,0.0,0.0,0.0,0.0,0.0,0.0,0.0,0.0,0.0,0.0,0.0,0.0,0.0,0.0,0.0,0.0,0.0,0.0,0.0,0.0,0.0,0.0,0.0,0.0,0.0,0.0,0.0,0.0,0.0,0.0,0.0,0.0,0.0,0.0,0.0,0.0,0.0,0.0,0.0,0.0,0.0,0.0,0.0,0.0,0.0,0.0,0.0,0.0,0.0,0.0,0.0,0.0,0.0,0.0,0.0,0.0,0.0,0.0,0.0,0.0,0.0,0.0,0.0,0.0,0.0,0.0,0.0,0.0,0.0,0.0,0.0,0.0,0.0,0.0,0.0,0.0,0.0,0.0,0.0,0.0,0.0,0.0,0.0,0.0,0.0,0.0,0.0,0.0,0.0,0.0,0.0,0.0,0.0,0.0,0.0,0.0,0.0,0.0,0.0,0.0,0.0,0.0,0.0,0.0,0.0,0.0,0.0,0.0,0.0,0.0,0.0,0.0,0.0,0.0,0.0,0.0,0.0,0.0,0.0,0.0,0.0,0.0,0.0,0.0,0.0,0.0,0.0,0.0,0.0,0.0,0.0,0.0,0.0,0.0,0.0,0.0,0.0,0.0,0.0,0.0,0.0,0.0,0.0,0.0,0.0,0.0,0.0,0.0,0.0,-0.6412,-0.6037,0.0,0.0,0.0,0.0,0.0,0.0,0.0,0.0,0.0,0.0,0.0,0.0,0.0,0.0,0.0,0.0,0.0,0.0,0.0,0.0,0.0,0.0,0.0,-0.2517,-0.2588,-0.2588,-0.2588,0.0,0.0,0.0,0.0,0.0,0.0,0.0,0.0,0.0,0.0,-0.3474,-0.3777,-0.3387,-0.2338,-0.2446,-0.2891,-0.3425,0.0,0.0,0.0,0.0,0.0,0.0,0.0,0.0,0.0,0.0,0.0,0.0,0.0,0.0,0.0,0.0,0.0,0.0,0.0,0.0,0.0,0.0,0.0,0.0,0.0,0.0,0.0,0.0,0.0,0.0,0.0,0.0,0.0,0.0,0.0,0.0,0.0,0.0,0.0,0.0,0.0,0.0,0.0,0.0,0.0,0.0,0.0,0.0,0.0,0.0,0.0,0.0,0.0,0.0,0.0,0.0,0.0,0.0,0.0,0.0,0.0,0.0,0.0,0.0,0.0,0.0,0.0,0.0,0.0,0.0,-0.6702,-0.6365,0.0,0.0,0.0,0.0,0.0,0.0,0.0,0.0,0.0,0.0,0.0,0.0,0.0,0.0,0.0,0.0,0.0,0.0,0.0,0.0,0.0,-0.2566,-0.2729,-0.2767,-0.2827,-0.2998,-0.2887,-0.2887,-0.3031,-0.3088,0.0,0.0,0.0,0.0,0.0,0.0,0.0,-0.3882,-0.3701,-0.2652,-0.0824,-0.1051,-0.1755,-0.2633,-0.2046,0.0,0.0,0.0,0.0,0.0,0.0,0.0,0.0,0.0,0.0,0.0,0.0,0.0,0.0,0.0,0.0,0.0,0.0,0.0,0.0,0.0,0.0,0.0,0.0,0.0,0.0,0.0,0.0,0.0,0.0,0.0,0.0,0.0,0.0,0.0,0.0,0.0,0.0,0.0,0.0,0.0,0.0,0.0,0.0,0.0,0.0,0.0,0.0,0.0,0.0,0.0,0.0,0.0,0.0,0.0,0.0,0.0,0.0,0.0,0.0,0.0,0.0,0.0,-0.7138,-0.7252,-0.7252,-0.7269,-0.7388,-0.7551,-0.7051,-0.679,-0.6709,-0.6692,0.0,0.0,0.0,0.0,0.0,0.0,0.0,0.0,0.0,0.0,0.0,0.0,0.0,0.0,0.0,0.0,0.0,0.0,0.0,-0.2631,-0.2917,-0.304,-0.3197,-0.3322,-0.3414,-0.3474,-0.349,-0.3507,0.0,0.0,0.0,0.0,0.0,0.0,0.0,0.0,-0.2482,-0.1265,-0.0443,-0.0441,0.0,0.0885,-0.0718,0.0,-0.0078,0.0,0.0,0.0,0.0,0.0,0.0,0.0,0.0,0.0,0.0,0.0,0.0,0.0,0.0,0.0,0.0,0.0,0.0,0.0,0.0,0.0,0.0,0.0,0.0,0.0,0.0,0.0,0.0,0.0,0.0,0.0,0.0,0.0,0.0,0.0,0.0,0.0,0.0,0.0,0.0,0.0,-0.5731,-0.5852,0.0,0.0,0.0,0.0,0.0,0.0,0.0,0.0,0.0,0.0,0.0,0.0,0.0,-0.6796,-0.6888,-0.7051,-0.7176,-0.7269,-0.7513,-0.7627,-0.7633,-0.7731,-0.7796,-0.7818,-0.7741,0.0,-0.7078,-0.698,0.0,0.0,0.0,0.0,0.0,0.0,0.0,0.0,0.0,0.0,0.0,0.0,0.0,0.0,0.0,0.0,0.0,0.0,0.0,0.0,0.0,-0.3409,-0.3566,-0.3691,-0.3751,-0.3784,-0.3784,-0.3844,0.0,0.0,0.0,0.0,0.0,0.0,0.0,0.0,-0.112,-0.0092,0.0781,0.0772,0.1073,0.1602,0.0657,0.062,0.1096,0.0236,0.0,0.0,0.0,0.0,0.0,0.0,0.0,0.0,0.0,0.0,0.0,0.0,0.0,0.0,0.0,0.0,0.0,0.0,0.0,0.0,0.0,0.0,0.0,0.0,0.0,0.0,0.0,0.0,0.0,0.0,0.0,0.0,0.0,0.0,0.0,0.0,0.0,0.0,0.0,-0.577,-0.5751,-0.5997,-0.6059,-0.6089,0.0,0.0,0.0,0.0,0.0,0.0,0.0,0.0,0.0,-0.7095,-0.7171,-0.7263,-0.7388,-0.7568,-0.7687,-0.7741,-0.7986,-0.8106,-0.8106,-0.822,-0.8274,-0.8269,-0.8209,-0.8057,-0.7845,-0.7589,-0.7442,-0.7388,0.0,0.0,0.0,0.0,-0.7464,-0.747,0.0,0.0,0.0,0.0,0.0,0.0,0.0,0.0,0.0,0.0,0.0,0.0,-0.3572,-0.374,-0.392,-0.4105,-0.4115,-0.4115,-0.4115,-0.4202,-0.4175,-0.3996,0.0,0.0,0.0,0.0,0.0,-0.0184,0.0282,0.089,0.1696,0.1673,0.1695,0.1748,0.1689,0.1588,0.1548,0.1467,0.1001,0.0409,0.0,0.0,0.0,0.0,0.0,0.0,0.0,0.0,0.0,0.0,0.0,0.0,0.0,0.0,0.0,0.0,0.0,0.0,0.0,0.0,0.0,0.0,0.0,0.0,0.0,0.0,0.0,0.0,0.0,0.0,0.0,0.0,0.0,0.0,0.0,0.0,0.0,-0.6002,-0.5891,-0.6219,-0.635,-0.6453,0.0,0.0,0.0,0.0,0.0,0.0,-0.7116,-0.7182,-0.7307,-0.7513,-0.7606,-0.7731,-0.7883,-0.8057,-0.816,-0.8193,-0.8405,-0.8508,-0.8513,-0.8628,-0.8682,-0.8677,-0.859,-0.8535,-0.8475,-0.8084,-0.7888,-0.7834,-0.7807,-0.7752,-0.7714,-0.7839,-0.7883,-0.7899,0.0,0.0,0.0,0.0,0.0,0.0,0.0,0.0,0.0,0.0,0.0,-0.3281,-0.4007,-0.4094,-0.424,-0.466,-0.4687,-0.4687,-0.4687,-0.4693,-0.4621,-0.4472,-0.4451,0.0,0.0,0.0,0.0,0.1565,0.1624,0.1699,0.1789,0.1786,0.1819,0.1874,0.1813,0.1735,0.1641,0.1618,0.1563,0.1368,0.0839,0.0,0.0,0.0,0.0,0.0,0.0,0.0,0.0,0.0,0.0,0.0,0.0,0.0,0.0,0.0,0.0,0.0,0.0,0.0,0.0,0.0,0.0,0.0,0.0,0.0,0.0,0.0,0.0,0.0,0.0,0.0,0.0,0.0,0.0,0.0,0.0,0.0,0.0,-0.6736,-0.6774,0.0,0.0,0.0,0.0,-0.7138,-0.7459,-0.7611,-0.7497,-0.7703,-0.7883,-0.8013,-0.8024,-0.8138,-0.8378,-0.8394,-0.8454,-0.8562,-0.8693,-0.8753,-0.8758,-0.8878,-0.8932,-0.8932,-0.8927,-0.8861,-0.8715,-0.8242,-0.8111,-0.8198,-0.8084,-0.81,-0.8214,-0.8334,-0.8383,-0.8399,0.0,0.0,0.0,-0.2854,-0.2849,-0.2832,-0.2799,-0.2936,-0.3131,-0.3267,-0.3615,-0.3979,-0.4306,-0.4485,-0.4692,-0.4969,-0.4996,-0.4996,-0.4996,-0.4915,-0.4815,-0.4675,-0.3542,0.0,0.0,0.0,0.0985,0.1792,0.1727,0.1783,0.1853,0.1853,0.1865,0.1884,0.1864,0.1836,0.1797,0.1761,0.1686,0.1561,0.1387,0.1148,0.0,0.0,0.0,0.0,0.0,0.0,0.0,0.0,0.0,0.0,0.0,0.0,0.0,0.0,0.0,0.0,0.0,0.0,0.0,0.0,0.0,0.0,0.0,0.0,0.0,0.0,0.0,0.0,0.0,0.0,0.0,0.0,0.0,0.0,0.0,0.0,0.0,-0.6991,-0.7029,0.0,-0.7421,-0.7481,-0.7535,-0.7611,-0.7812,-0.7943,-0.7975,-0.8133,-0.8274,-0.8394,-0.8475,-0.8557,-0.8644,-0.8802,-0.8899,-0.8943,-0.9057,-0.9117,-0.9117,-0.916,-0.9177,-0.9177,-0.9177,-0.9155,-0.9095,-0.8851,-0.8638,-0.8459,-0.8416,-0.8426,-0.8475,-0.86,-0.8644,-0.866,0.0,0.0,0.0,-0.2854,-0.2882,-0.2898,-0.2816,-0.311,-0.3371,-0.3452,-0.3914,-0.4327,-0.4567,-0.4806,-0.505,-0.529,-0.5349,-0.5355,-0.5317,-0.5178,-0.5094,-0.4869,-0.2277,0.0,0.0,0.0905,0.178,0.1765,0.1806,0.1851,0.1902,0.1911,0.1917,0.1917,0.1917,0.191,0.1894,0.1785,0.1715,0.1776,0.17,0.1536,0.1387,0.0,0.0,0.0,0.0,0.0,0.0,0.0,0.0,0.0,0.0,0.0,0.0,0.0,0.0,0.0,0.0,0.0,0.0,0.0,0.0,0.0,0.0,0.0,0.0,0.0,0.0,0.0,0.0,0.0,0.0,0.0,0.0,0.0,0.0,-0.6907,-0.6937,-0.7296,-0.7339,-0.7464,-0.779,-0.7856,-0.7932,-0.8046,-0.8204,-0.8329,-0.841,-0.853,-0.8649,-0.8769,-0.8851,-0.8932,-0.9014,-0.9171,-0.9275,-0.9318,-0.9389,-0.9427,-0.9427,-0.9427,-0.9427,-0.9427,-0.9427,-0.9427,-0.9421,-0.9345,-0.9171,-0.8938,-0.8774,-0.8709,-0.8731,-0.8889,-0.8948,-0.8976,0.0,0.0,-0.2871,-0.2707,-0.2832,-0.2914,-0.2981,-0.3104,-0.3403,-0.3816,-0.4056,-0.4322,-0.4795,-0.5061,-0.5301,-0.5454,-0.567,-0.5697,-0.5502,-0.5432,-0.5325,-0.5075,0.0,0.0,-0.0104,0.1183,0.1877,0.1801,0.1859,0.1904,0.1936,0.1966,0.1978,0.1978,0.1978,0.196,0.193,0.19,0.1853,0.1791,0.1703,0.1666,0.1655,0.0,0.0,0.0,0.0,0.0,0.0,0.0,0.0,0.0,0.0,0.0,0.0,0.0,0.0,0.0,0.0,0.0,0.0,0.0,0.0,0.0,0.0,0.0,0.0,0.0,0.0,0.0,0.0,0.0,0.0,0.0,0.0,0.0,-0.7176,-0.7165,-0.7307,-0.7676,-0.772,-0.7812,-0.8051,-0.8182,-0.8301,-0.8426,-0.8649,-0.878,-0.878,-0.8899,-0.9024,-0.9144,-0.915,-0.9264,-0.9492,-0.9492,-0.9552,-0.9677,-0.9677,-0.9677,-0.9682,-0.9682,-0.9682,-0.9682,-0.9682,-0.9682,-0.9682,-0.9682,-0.9682,-0.9633,-0.916,-0.8976,-0.9003,-0.9231,-0.9313,-0.9351,-0.2932,-0.2909,-0.2871,-0.2707,-0.286,-0.2965,-0.2997,-0.3365,-0.3719,-0.4028,-0.4398,-0.4751,-0.5056,-0.5388,-0.5643,-0.5795,-0.592,-0.598,-0.586,-0.4411,-0.4555,-0.654,0.0,0.0,-0.0767,0.0886,0.1829,0.1926,0.1944,0.1978,0.2027,0.2035,0.2029,0.2007,0.2007,0.199,0.1962,0.1932,0.1909,0.1885,0.1795,0.1745,0.1718,0.0,0.0,0.0,0.0,0.0,0.0,0.0,0.0,0.0,0.0,0.0,0.0,0.0,0.0,0.0,0.0,0.0,0.0,0.0,0.0,0.0,0.0,0.0,0.0,0.0,0.0,0.0,0.0,0.0,0.0,0.0,-0.7269,-0.7426,-0.7301,-0.7437,-0.7687,-0.8046,-0.8089,-0.8214,-0.8541,-0.86,-0.8677,-0.8796,-0.8948,-0.9035,-0.9035,-0.9226,-0.9356,-0.9389,-0.9476,-0.9552,-0.9617,-0.9617,-0.9677,-0.9791,-0.9791,-0.984,-0.9921,-0.9921,-0.9921,-0.9921,-0.9921,-0.9921,-0.9921,-0.9921,-0.9921,-0.9894,-0.959,-0.947,-0.9481,-0.9546,-0.9568,-0.9579,-0.297,-0.2915,-0.2859,-0.2738,-0.2843,-0.3006,-0.3056,-0.3479,-0.3903,-0.4083,-0.449,-0.4849,-0.5089,-0.5485,-0.5801,-0.5964,-0.6132,-0.6236,-0.6246,-0.434,-0.4281,-0.6577,0.0,-0.1975,-0.2034,0.0115,0.1309,0.1357,0.1875,0.2031,0.2064,0.2076,0.2067,0.2038,0.205,0.2041,0.2012,0.1994,0.1986,0.1979,0.1902,0.1846,0.1802,0.1755,0.1707,0.1662,0.1329,0.1297,0.1263,0.0867,0.0,0.0,0.0,0.0,0.0,0.0,0.0,0.0,0.0,0.0,0.0,0.0,0.0,0.0,0.0,0.0,0.0,0.0,0.0,0.0,0.0,0.0,0.0,0.0,-0.7671,-0.7872,-0.7801,-0.7867,-0.8057,-0.8416,-0.8459,-0.8579,-0.8894,-0.8921,-0.8992,-0.916,-0.9242,-0.9307,-0.9356,-0.9492,-0.9563,-0.9563,-0.9677,-0.9764,-0.9818,-0.9867,-0.9954,-1.0068,-1.0068,-1.0106,-1.0172,-1.0172,-1.0172,-1.0172,-1.0172,-1.0172,-1.0172,-1.0172,-1.0172,-1.015,0.0,0.0,0.0,0.0,-0.9927,-0.997,-0.2985,-0.2927,-0.2852,-0.2727,-0.2827,-0.2957,-0.3218,-0.3539,-0.3909,-0.4121,-0.4458,-0.4768,-0.5012,-0.5453,-0.5828,-0.6067,-0.629,-0.6442,-0.6693,-0.5022,-0.4625,-0.6046,-0.4299,-0.3222,-0.3121,-0.0724,0.0618,0.0621,0.1659,0.2071,0.2075,0.2102,0.2098,0.2071,0.2097,0.2093,0.2064,0.2064,0.2064,0.206,0.2007,0.1949,0.1892,0.1858,0.1828,0.1798,0.1744,0.1708,0.1789,0.1755,0.0,0.0,0.0,0.0,0.0,0.0,0.0,0.0,0.0,0.0,0.0,0.0,0.0,0.0,0.0,0.0,0.0,0.0,0.0,0.0,0.0,0.0,0.0,0.0,-0.8155,-0.8465,-0.8475,-0.8399,-0.8454,-0.8774,-0.8812,-0.891,-0.915,-0.9171,-0.9269,-0.9492,-0.9508,-0.9552,-0.9666,-0.9693,0.0,0.0,0.0,-0.9949,-1.0063,-1.0172,-1.0286,-1.0405,-1.0405,-1.0422,-1.0449,-1.0449,-1.0454,-1.0465,-1.0465,-1.0465,-1.0465,-1.0465,-1.0476,-1.046,-1.0172,-1.0063,-1.0074,-1.0182,-1.0291,-1.0384,-0.2989,-0.2959,-0.2852,-0.2811,-0.2832,-0.3059,-0.3447,-0.3704,-0.3969,-0.4344,-0.4632,-0.4887,-0.5127,-0.5502,-0.5828,-0.6067,-0.6219,-0.6426,-0.6835,-0.6664,-0.6728,-0.7161,-0.5028,-0.3503,-0.2788,-0.0613,0.0879,0.1823,0.1963,0.2113,0.2138,0.2143,0.2129,0.2101,0.2106,0.2093,0.2064,0.2064,0.2064,0.2063,0.2052,0.2011,0.1954,0.1898,0.1873,0.1866,0.1855,0.1847,0.1838,0.1808,0.0879,-0.064,-0.2316,-0.3715,0.0,0.0,0.0,0.0,0.0,0.0,0.0,0.0,0.0,0.0,0.0,0.0,0.0,0.0,0.0,0.0,0.0,0.0,0.0,-0.8133,-0.8454,-0.8736,-0.8834,-0.8916,-0.8986,-0.9057,-0.9063,-0.9155,-0.9394,-0.9421,-0.9476,-0.9622,-0.9633,-0.9644,-0.9666,-0.9851,-0.9954,-0.9954,-1.0166,-1.0291,-1.0318,-1.034,-1.0411,-1.0525,-1.0525,0.0,-1.0819,-1.0819,-1.0873,-1.0965,-1.0965,-1.0965,-1.0965,-1.0965,-1.102,-1.1047,-1.052,-1.0318,-1.0318,-1.034,-1.0367,-1.0384,-0.3316,-0.3035,-0.2882,-0.2885,-0.2864,-0.3025,-0.3633,-0.3727,-0.3816,-0.424,-0.4501,-0.4719,-0.4898,-0.5241,-0.5605,-0.5964,-0.6328,-0.6616,-0.6796,-0.7089,-0.7271,-0.7334,-0.5779,-0.4375,-0.3441,-0.1375,0.0256,0.1318,0.1859,0.2139,0.2155,0.2155,0.2147,0.2132,0.2132,0.2124,0.2109,0.2109,0.2109,0.2108,0.2093,0.2069,0.2038,0.1992,0.1956,0.1932,0.1932,0.1911,0.1885,0.1885,0.1383,0.056,-0.1009,-0.209,-0.3002,0.0,0.0,0.0,0.0,0.0,0.0,0.0,0.0,0.0,0.0,0.0,0.0,0.0,0.0,-0.7731,-0.7856,0.0,-0.8432,-0.8492,-0.8758,-0.8976,-0.9035,-0.9198,-0.9313,-0.9313,-0.9313,-0.9383,-0.9563,-0.9579,-0.9628,-0.9748,-0.9807,-0.9873,-0.9932,-1.0106,-1.0204,-1.0204,-1.0378,-1.0471,-1.0471,-1.059,-1.0683,-1.0737,-1.0802,-1.0895,-1.1009,-1.1009,-1.1047,-1.1101,-1.1101,-1.1107,-1.1118,-1.1128,-1.1166,-1.1362,-1.1064,-1.1003,-1.0911,-1.0851,-1.0829,-1.0824,-0.3731,-0.3267,-0.2976,-0.3087,-0.293,-0.3009,-0.3738,-0.3732,-0.3724,-0.4105,-0.4317,-0.449,-0.4709,-0.4931,-0.5322,-0.5828,-0.6377,-0.6719,-0.6763,-0.6991,-0.7198,-0.7366,-0.6183,-0.5137,-0.42,-0.2034,-0.039,0.0659,0.1738,0.2155,0.2155,0.2155,0.2155,0.2155,0.2155,0.2155,0.2155,0.2155,0.2155,0.2153,0.2128,0.2119,0.2114,0.2084,0.2035,0.1985,0.1985,0.1949,0.1906,0.1925,0.1899,0.1511,-0.0,-0.0693,-0.1244,-0.3102,-0.4234,0.0,0.0,0.0,0.0,0.0,0.0,0.0,0.0,-0.7421,-0.7546,-0.779,-0.7915,-0.8051,-0.8296,-0.8513,-0.8698,-0.8823,-0.9046,-0.9204,-0.9204,-0.9389,-0.953,-0.9552,-0.9536,-0.9568,-0.9693,-0.9726,-0.9786,-0.99,-1.0019,-1.0134,-1.0231,-1.0356,-1.0416,-1.0416,-1.0552,-1.0628,-1.0628,-1.0846,-1.0954,-1.0954,-1.1052,-1.1112,-1.1134,-1.1134,-1.115,-1.1177,-1.1177,-1.0662,-0.9971,-1.0005,-1.0194,-1.0374,-1.0394,-1.0495,-1.06,-1.1143,-1.1248,-1.1237,-0.3939,-0.3637,-0.336,-0.3519,-0.3281,-0.3322,-0.4047,-0.3845,-0.3751,-0.4219,-0.4306,-0.4404,-0.4698,-0.4784,-0.511,-0.5703,-0.6105,-0.6415,-0.6627,-0.6866,-0.7154,-0.7486,-0.6224,-0.5163,-0.4392,-0.2045,-0.039,0.0659,0.1738,0.2155,0.2155,0.2155,0.2155,0.2155,0.2155,0.2155,0.2155,0.2155,0.2155,0.2154,0.2151,0.215,0.2146,0.2116,0.2067,0.2014,0.2014,0.1993,0.1963,0.1939,0.1926,0.1792,0.1512,0.0585,-0.083,-0.2419,-0.3923,-0.535,-0.6873,-0.7301,-0.7372,-0.7676,-0.7687,-0.7709,0.0,-0.804,-0.804,-0.8285,-0.835,-0.8432,-0.8666,-0.8818,-0.8948,-0.9073,-0.9291,-0.9449,-0.9449,-0.9563,-0.9688,-0.9786,-0.9709,-0.9693,-0.9807,-0.9916,-1.003,-1.0155,-1.0275,-1.0351,-1.0367,-1.0476,-1.0536,-1.0536,-1.0759,-1.0878,-1.0878,-1.1014,-1.1079,-1.1085,-1.1096,-1.1156,-1.1253,-1.1253,-1.1319,-1.1438,-1.1455,-0.9477,-0.6249,-0.6308,-0.6332,-0.6338,-0.6583,-0.6614,-0.7144,-1.0259,-1.1351,-1.1166,-0.4692,-0.4184,-0.3757,-0.3817,-0.3523,-0.3507,-0.4094,-0.392,-0.3817,-0.417,-0.4279,-0.4311,-0.4338,-0.4697,-0.5099,-0.5491,-0.598,-0.6339,-0.6502,-0.6812,-0.7111,-0.7399,-0.6546,-0.5503,-0.4345,-0.2397,-0.0769,0.0651,0.1572,0.211,0.2128,0.2128,0.2138,0.2155,0.2155,0.2155,0.2155,0.2155,0.2155,0.2155,0.2155,0.2144,0.2127,0.2114,0.2072,0.2019,0.2019,0.2,0.0,0.1962,0.1945,0.1926,0.19,0.1432,0.072,0.0117,-0.0711,-0.2408,-0.6598,-0.766,-0.7698,-0.7921,-0.7997,-0.8068,-0.8291,-0.8356,-0.8416,-0.859,-0.8682,-0.878,-0.8948,-0.9139,-0.928,-0.9334,-0.9481,-0.9595,-0.9595,-0.9693,-0.9813,-0.9932,-0.9965,-0.9998,-1.0047,-1.0095,-1.0177,-1.0302,-1.0416,-1.0487,-1.0487,-1.0666,-1.077,-1.077,-1.0933,-1.1025,-1.1025,-1.1145,-1.1204,-1.1215,-1.1291,-1.1357,-1.1411,-1.1411,-1.018,-0.8238,-1.0605,-1.0615,-0.8803,-0.4324,-0.2345,-0.2707,-0.5082,-0.6024,-0.6227,-0.7735,-0.8219,-0.8211,-0.5396,-0.4792,-0.4228,-0.4083,-0.3765,-0.3723,-0.4107,-0.4002,-0.3948,-0.4151,-0.4249,-0.4284,-0.4126,-0.4567,-0.4947,-0.5154,-0.5692,-0.6094,-0.6279,-0.6665,-0.7002,-0.7274,-0.6709,-0.5911,-0.4616,-0.3098,-0.151,0.0127,0.1156,0.1816,0.2097,0.2097,0.2109,0.2129,0.2138,0.2142,0.2143,0.2151,0.215,0.2142,0.2142,0.2124,0.2095,0.2087,0.2052,0.2008,0.2016,0.2,0.1977,0.1977,0.1962,0.1943,0.1934,0.1937,0.1939,0.1677,0.0609,-0.1621,-0.6647,-0.8035,-0.8057,-0.8214,-0.8318,-0.8416,-0.8535,-0.8655,-0.8764,-0.8851,-0.8965,-0.9073,-0.9166,-0.9351,-0.9487,-0.9487,-0.9617,-0.9726,-0.9764,-0.9867,-0.9981,-1.0106,-1.0199,-1.0264,-1.0297,-1.0302,-1.0335,-1.0427,-1.0541,-1.0617,-1.0655,-1.0824,-1.0933,-1.0971,-1.1085,-1.115,-1.1156,-1.127,-1.1335,-1.1351,-1.0362,-1.0406,-1.1504,-1.1514,-0.9899,-0.7384,-0.7941,-0.8324,-0.7978,-0.2354,0.0,-0.0362,-0.3262,-0.4371,-0.4399,-0.4389,-0.4385,-0.4561,-0.5891,-0.5414,-0.4904,-0.4292,-0.4066,-0.3969,-0.4023,-0.3996,-0.4005,-0.4091,-0.4301,-0.4318,-0.4115,-0.4338,-0.4539,-0.4737,-0.5116,-0.5545,-0.5893,-0.6366,-0.679,-0.7143,-0.6709,-0.6134,-0.5534,-0.4004,-0.2342,-0.0864,0.0127,0.116,0.2065,0.2065,0.2065,0.2068,0.2097,0.211,0.2112,0.2142,0.2138,0.211,0.211,0.2093,0.2063,0.2033,0.2003,0.1981,0.2008,0.2,0.1977,0.1977,0.1975,0.197,0.194,0.1951,0.1852,0.111,-0.1634,-0.5033,-0.7727,-0.841,-0.8459,-0.8687,-0.8753,-0.8785,-0.891,-0.903,-0.9117,-0.9122,-0.9215,-0.9296,-0.9296,-0.94,-0.9487,-0.9487,-0.9682,-0.9873,-0.9992,-1.0112,-1.0237,-1.0362,-1.0378,-1.0427,-1.0536,-1.0547,-1.0547,-1.0552,-1.0661,-1.078,-1.09,-1.0916,-1.0976,-1.109,-1.1204,-1.1275,-1.1116,-1.1417,-1.1476,-1.1476,-0.7699,-0.7877,-1.1482,-1.152,-1.1421,-1.0972,-0.3464,-0.0367,-0.037,-0.0185,0.0,-0.0,-0.0185,-0.0185,-0.0185,-0.0185,-0.0185,-0.0185,-0.668,-0.6044,-0.5397,-0.477,-0.4458,-0.4193,-0.3812,-0.3971,-0.4201,-0.4265,-0.4368,0.0,0.0,0.0,0.0,0.0,-0.4947,-0.529,-0.5643,-0.6121,-0.6545,-0.6904,-0.689,-0.6704,-0.6129,-0.4604,-0.3341,-0.2389,-0.0483,0.0737,0.1127,0.1755,0.2027,0.2064,0.2075,0.2079,0.208,0.209,0.2089,0.2079,0.2079,0.2061,0.2035,0.2045,0.2019,0.1981,0.0,0.1988,0.1949,0.197,0.1977,0.1978,0.1986,0.1996,0.1383,-0.1922,-0.3682,-0.5242,-0.8112,-0.8855,-0.8812,-0.897,-0.9014,-0.9041,-0.916,-0.928,-0.9367,-0.9367,-0.9465,-0.9546,-0.9546,-0.9639,-0.972,-0.972,-0.9856,-1.0003,-1.0123,-1.0177,-1.0275,-1.0476,-1.0498,-1.0579,-1.078,-1.065,-1.0623,-1.0786,-1.0835,-1.0911,-1.1036,-1.1112,-1.1172,-1.1215,-1.133,-1.1395,-1.14,-1.1444,-1.0565,-0.8769,-0.4144,-0.2542,-0.3845,-0.3875,-0.3911,-0.376,-0.1128,0.0,0.0,0.0,0.0,0.0,0.0,0.0,0.0,0.0,0.0,0.0,-0.703,-0.6524,-0.5863,-0.514,-0.4858,0.0,0.0,0.0,0.0,0.0,0.0,0.0,0.0,0.0,0.0,0.0,0.0,-0.5023,-0.5339,-0.585,-0.6295,-0.6654,-0.6861,-0.6822,-0.6308,-0.515,-0.4168,-0.3146,-0.1056,0.0238,0.0607,0.1579,0.1964,0.2001,0.2011,0.2016,0.2018,0.2029,0.2045,0.2061,0.203,0.2018,0.2018,0.2005,0.1977,0.0,0.1977,0.1963,0.1936,0.1966,0.1977,0.1979,0.1997,0.2026,0.1417,-0.199,-0.4638,-0.6696,-0.8697,-0.9041,-0.9128,-0.9285,-0.9291,-0.9302,-0.9459,-0.9525,-0.9552,-0.9552,-0.9617,-0.9671,-0.9671,-0.9764,-0.9835,-0.9835,-0.9976,-1.0128,-1.0253,-1.0302,-1.0416,-1.0655,-1.0688,-1.0764,-1.0965,-1.084,-1.0819,-1.0971,-1.0987,-1.1036,-1.1156,-1.1232,-1.1291,-1.1335,-1.1417,-1.146,-1.1465,-1.1552,-1.073,-0.8978,-0.5718,-0.2602,0.0,0.0,0.0,0.0,0.0,0.0,0.0,0.0,0.0,0.0,0.0,0.0,0.0,0.0,0.0,0.0,-0.6865,-0.6708,-0.6407,0.0,0.0,0.0,0.0,0.0,0.0,0.0,0.0,0.0,0.0,0.0,0.0,0.0,0.0,0.0,-0.498,-0.5545,0.0,-0.6393,-0.6524,-0.6396,-0.6093,-0.5638,-0.4606,-0.3198,-0.1627,-0.0469,0.047,0.1412,0.1884,0.1887,0.1915,0.1929,0.193,0.196,0.2004,0.2048,0.1963,0.1962,0.2003,0.1919,0.1887,0.1889,0.1922,0.1932,0.1933,0.1964,0.1977,0.1979,0.1982,0.2045,0.1862,0.041,-0.421,-0.8934,-0.905,-0.9216,-0.9405,-0.9633,-0.9595,-0.9563,-0.9786,-0.9753,-0.9677,-0.9677,-0.9682,-0.9688,-0.9688,-0.9775,-0.9845,-0.9845,-1.0047,-1.0248,-1.0367,-1.0487,-1.0655,0.0,0.0,0.0,0.0,0.0,-1.1112,-1.1118,-1.1118,-1.1161,-1.1275,-1.1281,-1.1335,-1.1449,-1.1455,-1.1471,-1.1498,-1.1748,-1.1807,-1.1482,-1.1487,-0.7453,0.0,0.0,0.0,0.0,0.0,0.0,0.0,0.0,0.0,0.0,0.0,0.0,0.0,0.0,0.0,0.0,0.0,0.0,0.0,0.0,0.0,0.0,0.0,0.0,0.0,0.0,0.0,0.0,0.0,0.0,0.0,0.0,0.0,0.0,-0.4724,-0.5137,-0.5572,-0.6018,-0.6154,-0.6278,-0.6495,-0.5903,-0.5222,-0.4557,-0.2427,-0.1121,-0.0454,0.115,0.1864,0.1887,0.1894,0.1898,0.1898,0.1906,0.1918,0.1929,0.1906,0.1906,0.1919,0.1919,0.1906,0.1892,0.1945,0.1936,0.1902,0.1933,0.1971,0.2016,0.2061,0.2138,0.1663,-0.0563,-0.1716,-0.3056,-0.6396,-0.8537,-0.965,-0.9873,-0.984,-0.9764,-0.9824,-0.9813,-0.9796,-0.9796,-0.9867,-0.9932,-0.9932,-0.9954,-0.9976,-0.9976,-1.0101,-1.0248,-1.0367,-1.0563,-1.0748,-1.09,0.0,-1.1101,-1.1215,-1.1226,-1.1264,-1.1357,-1.1281,-1.1281,-1.14,-1.1411,-1.1422,-1.1455,-1.1455,-1.1552,-1.1566,-1.1823,-1.1989,-1.1487,-1.1492,-0.7479,0.0,0.0,0.0,0.0,0.0,0.0,0.0,0.0,0.0,0.0,0.0,0.0,0.0,0.0,0.0,0.0,0.0,0.0,0.0,0.0,0.0,0.0,0.0,0.0,0.0,0.0,0.0,0.0,0.0,0.0,0.0,0.0,0.0,0.0,0.0,-0.4882,-0.5279,-0.5654,-0.5839,-0.6072,-0.6377,-0.5837,-0.5426,-0.5047,-0.3077,-0.1616,-0.0768,0.0554,0.1454,0.1806,0.1806,0.1806,0.1806,0.1806,0.1829,0.0,0.0,0.1831,0.1864,0.184,0.1838,0.1853,0.1899,0.1911,0.191,0.1941,0.1981,0.2031,0.2106,0.2173,0.1814,0.0426,0.0,-0.0884,-0.492,-0.7981,-1.0072,-1.0036,-0.997,-0.9878,-1.0041,-0.9954,-0.9835,-0.9835,-0.9851,-0.99,-1.0003,-0.9976,-0.9976,-1.0085,-1.0204,-1.0307,-1.0378,-1.0634,-1.0862,0.0,-1.1107,0.0,-1.134,-1.1351,-1.1378,-1.1449,-1.1389,-1.1384,-1.1449,-1.1455,-1.1509,-1.1437,-1.1443,-1.0683,-0.8912,-1.0964,-1.2042,-1.2105,-0.8182,-0.4281,0.0,0.0,0.0,0.0,0.0,0.0,0.0,0.0,0.0,0.0,0.0,0.0,0.0,0.0,0.0,0.0,0.0,0.0,0.0,0.0,0.0,0.0,0.0,0.0,0.0,-0.5297,-0.5114,-0.5031,-0.4892,-0.4663,0.0,0.0,0.0,0.0,0.0,0.0,-0.504,-0.5311,-0.5523,-0.5757,-0.6007,-0.5656,-0.5223,-0.49,-0.3485,-0.2177,-0.1054,-0.0,0.0846,0.1586,0.1697,0.1699,0.1699,0.1703,0.175,0.1814,0.1735,0.1752,0.1813,0.0,0.1742,0.18,0.1834,0.1885,0.1941,0.1973,0.2001,0.2041,0.2132,0.205,0.209,0.2143,0.1171,-0.0746,-0.4029,-0.7544,-1.0304,-1.0307,-1.0057,-0.997,-1.0291,-1.009,-0.9835,-0.9835,-0.9748,-0.9731,-0.9938,-0.99,-0.9905,-1.0123,-1.0269,-1.0367,-1.0384,-1.0677,-1.0949,-1.1085,-1.1204,-1.1319,-1.1444,-1.1455,-1.1455,-1.1455,-1.1455,-1.1455,-1.1455,-1.1487,-1.1623,-1.151,-1.0986,-0.9278,-0.6449,-0.8844,-1.029,-1.1168,-0.3573,0.0,0.0,0.0,0.0,0.0,0.0,0.0,0.0,0.0,0.0,0.0,0.0,0.0,0.0,0.0,0.0,0.0,0.0,0.0,0.0,0.0,0.0,0.0,0.0,-0.7042,-0.6423,-0.5927,-0.5337,-0.4911,-0.4723,-0.4604,0.0,0.0,0.0,0.0,0.0,0.0,0.0,-0.5061,-0.5116,-0.5301,-0.5638,-0.5673,-0.5435,-0.5087,-0.3798,-0.2875,-0.2189,-0.0405,0.0612,0.0714,0.1451,0.167,0.1671,0.1695,0.1714,0.1726,0.1711,0.1714,0.1726,0.171,0.0,0.0,0.1858,0.1917,0.1973,0.2001,0.2031,0.2072,0.2163,0.2108,0.2174,0.2209,0.1194,-0.0758,-0.4015,-0.7476,-1.0068,-1.0297,-1.0248,-1.0155,-1.0221,-1.003,-0.9835,-0.9835,-0.9748,-0.9682,-0.972,-0.9791,-0.9851,-0.9894,-1.009,-1.0269,-1.0373,-1.0606,-1.0851,0.0,-1.1204,-1.1319,-1.1444,-1.1455,-1.1455,-1.1455,-1.1455,-1.1455,-1.1455,-1.1645,-1.1689,-1.1747,-0.8461,-0.7952,-1.0496,-0.4928,-0.198,-0.2164,-0.0781,0.0,0.0,0.0,0.0,0.0,0.0,0.0,0.0,0.0,0.0,0.0,0.0,0.0,0.0,0.0,0.0,0.0,0.0,0.0,0.0,0.0,0.0,0.0,0.0,-0.768,-0.7118,-0.6429,-0.61,-0.5653,-0.5116,-0.4837,-0.469,0.0,0.0,0.0,0.0,0.0,0.0,-0.4817,-0.4947,-0.5127,-0.5355,-0.548,-0.537,-0.4994,0.0,-0.3591,-0.2511,-0.117,-0.0196,0.049,0.1287,0.1591,0.1592,0.1606,0.1621,0.1635,0.1635,0.1644,0.166,0.0,0.0,0.0,0.1851,0.1911,0.1978,0.1992,0.2037,0.1972,0.1783,0.1415,0.1015,0.1036,0.0603,-0.0766,-0.4024,-0.7497,-1.0112,-1.0253,-1.0199,-1.0106,-1.0106,-0.9921,-0.9731,-0.9666,-0.9563,-0.9519,-0.9644,-0.9715,-0.9791,-0.9911,-1.0085,-1.0248,-1.0367,-1.059,-1.0829,-1.1074,-1.1204,-1.1319,-1.1444,-1.1455,-1.1455,-1.1455,-1.1514,-1.1552,-1.1563,-1.1552,-1.1647,-1.163,-0.5881,-0.3549,-0.5502,-0.1775,0.0,0.0,0.0,0.0,0.0,0.0,0.0,0.0,0.0,0.0,0.0,0.0,0.0,0.0,0.0,0.0,0.0,0.0,0.0,0.0,0.0,0.0,0.0,0.0,0.0,0.0,0.0,-0.821,-0.7756,-0.7313,-0.701,-0.6571,-0.5967,-0.5359,-0.4937,0.0,0.0,0.0,0.0,0.0,0.0,0.0,0.0,-0.5007,-0.5148,0.0,0.0,-0.5029,-0.4965,0.0,0.0,0.0,0.0,0.0,0.0946,0.1327,0.1516,0.1523,0.1543,0.0,0.0,0.1599,0.1632,0.0,0.0,0.0,0.0,0.191,0.1978,0.1984,0.2037,0.1982,0.1375,-0.0282,-0.1733,-0.0445,0.0,-0.0617,-0.3242,-0.6855,-1.009,-1.0155,-1.0095,-1.0014,-0.9987,-0.9796,-0.9595,-0.947,-0.9329,-0.9296,-0.9514,-0.9574,-0.9671,-0.9905,-1.0047,-1.0188,-1.0362,-1.0547,-1.077,-1.1069,-1.1183,0.0,-1.1438,-1.1455,-1.1465,-1.1493,-1.1661,-1.1593,-1.163,-1.0668,-1.0727,-1.1854,-0.5942,-0.1785,-0.0,0.0,0.0,0.0,0.0,0.0,0.0,0.0,0.0,0.0,0.0,0.0,0.0,0.0,0.0,0.0,0.0,0.0,0.0,0.0,0.0,0.0,0.0,0.0,0.0,0.0,0.0,0.0,0.0,-0.8516,-0.8245,-0.909,-0.7923,-0.7097,-0.7334,-0.6146,-0.5264,0.0,0.0,0.0,0.0,0.0,0.0,0.0,0.0,0.0,0.0,0.0,0.0,-0.532,-0.4999,0.0,0.0,0.0,0.0,0.0,0.0,0.0835,0.1486,0.1515,0.0,0.0,0.0,0.0,0.0,0.0,0.0,0.0,0.0,0.1945,0.1981,0.2005,0.2038,0.1949,0.1339,-0.3359,-0.7331,-0.1651,0.0,-0.0,-0.0312,-0.517,-1.0074,-1.0063,-1.0041,-0.9992,-0.9878,-0.9671,-0.947,-0.9345,-0.9144,-0.9024,-0.916,-0.9269,-0.9416,-0.9661,-0.9796,-0.9992,-1.0335,-1.0405,-1.059,-1.1047,0.0,-1.1204,-1.1433,-1.1455,-1.1504,-1.1612,-1.1774,-1.1831,-1.2117,-0.8288,-0.8192,-1.2577,-1.2087,-0.8036,-0.0,0.0,0.0,0.0,0.0,0.0,0.0,0.0,0.0,0.0,0.0,0.0,0.0,0.0,0.0,0.0,0.0,0.0,0.0,0.0,0.0,0.0,0.0,0.0,0.0,0.0,0.0,0.0,-0.94,-0.9103,-0.9049,-0.9637,-0.8865,-0.8182,-0.794,-0.6842,-0.5861,-0.544,0.0,0.0,0.0,0.0,0.0,0.0,0.0,0.0,0.0,0.0,-0.5246,-0.5371,-0.532,0.0,0.0,0.0,0.0,0.0,0.0,0.0545,0.0908,0.1282,0.0,0.0,0.0,0.0,0.0,0.0,0.0,0.0,0.0,0.0,0.1978,0.1989,0.2014,0.1921,0.1713,-0.0814,-0.3925,-0.5278,-0.287,0.0,0.0,-0.3428,-0.7533,-0.9417,-0.9976,-0.9878,-0.9764,-0.9552,-0.9345,-0.9226,-0.9068,-0.8965,-0.9014,-0.9177,-0.9362,-0.953,-0.9715,-0.9965,-1.0335,-1.0384,-1.0563,-1.1047,-1.1101,-1.1194,-1.1433,-1.1455,-1.1569,-1.1662,-1.1903,-1.2117,-1.2121,-0.5851,-0.3131,-0.5133,-0.5087,-0.3497,-0.0,0.0,0.0,0.0,0.0,0.0,0.0,0.0,0.0,0.0,0.0,0.0,0.0,0.0,0.0,0.0,0.0,0.0,0.0,0.0,0.0,0.0,0.0,0.0,0.0,0.0,0.0,-0.8861,-0.94,-0.9412,-0.9538,-1.0058,-0.9611,-0.9176,-0.8901,-0.7645,-0.6605,-0.6186,-0.5747,0.0,0.0,0.0,0.0,0.0,0.0,0.0,0.0,0.0,-0.5262,-0.542,-0.5507,-0.5349,0.0,0.0,-0.3132,-0.2417,0.0,0.0,0.0,0.0,0.0,0.0,0.0,0.0,0.0,0.0,0.0,0.0,0.0,0.0,0.0,0.0,0.0,0.2029,0.194,0.1322,-0.068,-0.7352,-0.6124,-0.2292,-0.0461,-0.2484,-0.5799,-0.9105,-0.9943,-0.9796,-0.965,-0.9427,-0.9209,-0.9057,-0.8932,-0.8856,-0.8894,-0.9063,-0.9264,-0.9454,-0.9655,-0.9916,-1.028,-1.0394,-1.0601,-1.1047,-1.1166,-1.1286,-1.1487,-1.1542,-1.1688,-1.1812,-1.0838,-1.0998,-1.2358,-0.4497,0.0,0.0,0.0,0.0,0.0,0.0,0.0,0.0,0.0,0.0,0.0,0.0,0.0,0.0,0.0,0.0,0.0,0.0,0.0,0.0,0.0,0.0,0.0,0.0,0.0,0.0,0.0,0.0,0.0,0.0,0.0,0.0,-0.94,-0.9244,-0.9512,-1.0586,-1.0137,-0.9935,-1.0562,-0.8793,-0.7483,-0.7376,-0.6321,0.0,0.0,0.0,0.0,0.0,0.0,0.0,0.0,0.0,-0.5306,-0.5464,-0.5464,-0.5349,-0.5008,-0.4478,-0.3671,-0.2509,0.0,0.0,0.0,0.0,0.0,0.0,0.0,0.0,0.0,0.0,0.0,0.0,0.0,0.0,0.0,0.0,0.0,0.0,0.0,0.2083,0.068,-0.7052,-0.9313,-0.7796,-0.1683,-0.2484,-0.5802,-0.912,-0.9954,-0.9775,-0.9541,-0.9307,-0.9068,-0.8823,-0.8677,-0.8628,-0.8747,-0.8872,-0.9073,-0.9427,-0.959,-0.9796,-1.0155,-1.0405,-1.0688,-1.1058,-1.1308,-1.1498,-1.1623,-1.1743,-1.1873,-1.1817,-0.8398,-0.8117,-1.2637,-0.4645,0.0,0.0,0.0,0.0,0.0,0.0,0.0,0.0,0.0,0.0,0.0,0.0,0.0,0.0,0.0,0.0,0.0,0.0,0.0,0.0,0.0,0.0,0.0,0.0,0.0,0.0,0.0,0.0,0.0,0.0,0.0,0.0,0.0,-0.8669,-0.9112,-1.0067,-0.9552,-0.9228,-0.9309,-0.804,-0.6998,-0.639,-0.5839,0.0,0.0,0.0,0.0,0.0,0.0,0.0,0.0,0.0,-0.5388,-0.5464,-0.5714,-0.5721,-0.5577,-0.4824,-0.4297,-0.3831,-0.2523,-0.1688,0.0,0.0,0.0,0.0,0.0,0.0,0.0,0.0,0.0,0.0,0.0,0.0,0.0,0.0,0.0,0.0,0.0,0.0,0.0,-0.5587,-0.7213,-0.7575,-0.1623,-0.3887,-0.8182,-0.9492,-0.965,-0.9454,-0.9378,-0.9111,-0.8867,-0.8785,-0.8671,-0.86,-0.8638,-0.8812,-0.9068,-0.9427,-0.959,-0.9824,-1.0269,-1.0394,-1.0574,-1.0933,-1.1259,-1.1504,-1.1623,-1.1759,-1.1737,-1.1763,-1.0897,-1.0984,-1.2847,-0.3269,0.1533,0.0,0.0,0.0,0.0,0.0,0.0,0.0,0.0,0.0,0.0,0.0,0.0,0.0,0.0,0.0,0.0,0.0,0.0,0.0,0.0,0.0,0.0,0.0,0.0,0.0,0.0,0.0,0.0,0.0,0.0,0.0,0.0,-0.8375,-0.8932,-0.9628,-0.9468,-0.9238,-0.9055,-0.8098,-0.713,-0.638,-0.5881,0.0,0.0,0.0,0.0,0.0,0.0,0.0,0.0,-0.5544,-0.5626,-0.5752,-0.5947,-0.604,-0.6045,-0.5302,-0.4844,-0.4622,-0.3297,-0.2531,0.0,0.0,0.0,0.0,0.0,0.0,0.1302,0.0,0.0,0.0,0.0,0.0,0.0,0.0,0.0,0.0,0.0,0.0,0.0,0.0,-0.6987,-0.7636,-0.4295,-0.6268,-0.9313,-0.9398,-0.94,-0.9226,-0.9182,-0.8965,-0.8758,-0.8709,-0.8638,-0.86,-0.8649,-0.8856,-0.9139,-0.9497,-0.9693,-0.9938,-1.0329,-1.046,-1.0666,-1.1074,-1.1357,-1.1569,-1.1694,-1.1609,-1.0801,-0.8511,-0.8948,-0.8809,-0.7519,-0.1148,0.2099,0.1145,0.0763,0.0572,0.0572,0.0572,0.0572,0.0572,0.0572,0.0382,0.0,0.0,0.0,0.0,0.0,0.0,0.0,0.0,0.0,0.0,0.0,0.0,0.0,0.0,0.0,0.0,0.0,0.0,0.0,0.0,0.0,0.0,0.0,-0.8187,-0.8717,-0.9249,-0.9533,-0.9661,-0.9504,-0.8573,-0.7751,-0.7116,0.0,0.0,0.0,0.0,0.0,0.0,0.0,0.0,0.0,-0.5837,-0.5997,-0.6083,-0.6225,-0.6301,-0.6312,-0.5932,-0.5422,-0.4741,-0.4325,-0.3341,0.0,0.0,0.0,0.0,0.0,0.0,0.0,0.0,0.0,0.0,0.0,0.0,0.0,0.0,0.0,0.0,0.0,0.0,0.0,0.0,0.0,0.0,0.0,-0.8892,-0.9136,-0.9008,-0.9061,-0.9079,-0.8965,-0.8845,0.0,-0.8611,-0.8595,-0.8633,-0.8747,-0.8981,-0.9275,-0.9622,-0.9873,-1.0112,-1.0373,-1.0617,-1.0933,-1.1389,-1.1547,-1.1683,-1.183,-1.1662,-0.9283,-0.3372,-0.3597,-0.2476,0.1334,0.1526,0.2098,0.3052,0.2098,0.1526,0.1526,0.1526,0.1526,0.1526,0.1526,0.1144,0.0191,0.0191,0.0193,0.0196,0.0196,0.0198,0.0202,0.0,0.0,0.0,0.0,0.0,0.0,0.0,0.0,0.0,0.0,0.0,0.0,0.0,0.0,0.0,0.0,0.0,0.0,0.0,-0.7711,-0.7584,-0.7234,-0.6957,-0.653,0.0,0.0,0.0,0.0,0.0,0.0,0.0,0.0,0.0,0.0,-0.601,-0.6088,-0.6083,-0.6388,-0.6584,-0.6681,-0.6353,-0.5845,-0.5108,-0.46,-0.3593,0.0,0.0,0.0,0.0,0.0,0.0,0.0,0.0,0.0,0.0,-0.0559,-0.1479,0.0,0.0,0.0,0.0,0.0,0.0,0.0,0.0,-0.8084,-0.8149,-0.8253,0.0,-0.8807,-0.8863,-0.8815,-0.8851,0.0,-0.872,-0.8622,-0.8595,-0.866,-0.8736,-0.8764,-0.9117,-0.9492,-0.9753,-0.9921,-1.0172,-1.0596,-1.0862,-1.109,-1.1291,-1.1422,-1.1656,-1.1876,-1.1774,-0.9728,-0.4594,-0.0764,0.1716,0.267,0.2671,0.2862,0.3052,0.2862,0.2671,0.2671,0.2671,0.2671,0.2671,0.2671,0.267,0.2288,0.1526,0.1157,0.1178,0.1178,0.1191,0.1212,0.0404,0.0,0.0,0.0,0.0,0.0,0.0,0.0,0.0,0.0,0.0,0.0,0.0,0.0,0.0,0.0,0.0,0.0,0.0,0.0,0.0,0.0,0.0,0.0,0.0,0.0,0.0,0.0,0.0,0.0,0.0,0.0,0.0,-0.6208,-0.6305,-0.6409,-0.6328,-0.6638,-0.6823,-0.6893,-0.6848,-0.6232,-0.5296,-0.4419,-0.358,0.0,0.0,0.0,0.0,-0.14,0.0,0.0,0.0,0.0,0.0,-0.189,-0.3621,0.0,-0.3505,-0.4175,-0.5973,0.0,0.0,0.0,0.0,-0.7975,-0.7997,-0.8117,-0.8329,-0.8541,-0.8547,-0.8698,-0.8687,-0.8687,-0.8677,-0.8671,-0.8671,-0.8769,-0.8889,-0.8997,-0.9318,-0.965,-0.9883,-1.0161,-1.0498,-1.0922,-1.1096,-1.1226,-1.134,-1.1514,-1.1754,-1.171,-1.0124,-0.7527,-0.405,0.0383,0.3052,0.3052,0.3052,0.3052,0.3052,0.3052,0.3052,0.3052,0.3052,0.3052,0.3052,0.3052,0.3052,0.3052,0.2491,0.2323,0.2357,0.2368,0.2393,0.2222,0.1616,0.0808,0.0,0.0,0.0,0.0,0.0,0.0,0.0,0.0,0.0,0.0,0.0,0.0,0.0,0.0,0.0,0.0,0.0,0.0,0.0,0.0,0.0,0.0,0.0,0.0,0.0,0.0,0.0,0.0,0.0,0.0,-0.6479,-0.6422,-0.6758,-0.6807,-0.6622,-0.6921,-0.7067,-0.7067,-0.7203,-0.6566,-0.5298,-0.4279,-0.3642,0.0,0.0,0.0,0.0,-0.2337,0.0,0.0,0.0,0.0,0.0,0.0,0.0,0.0,-0.7354,-0.7536,-0.7845,-0.7867,0.0,0.0,0.0,0.0,0.0,-0.8019,-0.8231,-0.8416,-0.8416,-0.8503,-0.859,-0.8611,-0.8698,-0.8774,-0.8796,-0.891,-0.9073,-0.9291,-0.9563,-0.9824,-1.0041,-1.0465,-1.0873,-1.1177,-1.1248,-1.1319,-1.1438,-1.1672,-1.1705,-1.1689,-0.7903,-0.4547,-0.2513,0.0959,0.3052,0.3052,0.3052,0.3052,0.3052,0.3052,0.3052,0.3052,0.3052,0.3052,0.3052,0.3052,0.3052,0.3054,0.3084,0.3116,0.3152,0.3182,0.3212,0.324,0.324,0.2225,0.0404,0.0202,0.0,0.0,0.0,0.0,0.0,0.0,0.0,0.0,0.0,0.0,0.0,0.0,0.0,0.0,0.0,0.0,0.0,0.0,0.0,0.0,0.0,0.0,0.0,0.0,0.0,0.0,0.0,0.0,-0.6688,-0.6428,-0.7033,-0.7077,-0.6622,-0.7171,-0.7437,-0.7442,-0.766,-0.7055,-0.5598,-0.4836,-0.4126,-0.3412,-0.3382,0.0,0.0,-0.301,0.0,0.0,0.0,0.0,0.0,0.0,0.0,0.0,-0.7231,-0.7354,-0.7595,-0.7589,0.0,0.0,0.0,0.0,0.0,-0.8019,-0.8231,-0.8416,-0.8416,-0.8503,-0.8617,-0.872,-0.8758,-0.8802,-0.8905,-0.9101,-0.9291,-0.9432,-0.9824,-1.0166,-1.0307,-1.0645,-1.0911,-1.0965,-1.1145,-1.1319,-1.1438,-1.1502,-1.1785,-1.2122,-0.7449,-0.3065,0.0587,0.2312,0.3052,0.3052,0.3052,0.3052,0.3052,0.3052,0.3052,0.3052,0.3052,0.3052,0.3052,0.3052,0.3052,0.3054,0.3084,0.3129,0.3183,0.3212,0.324,0.3269,0.3269,0.3051,0.2626,0.0808,0.0,0.0,0.0,0.0,0.0202,0.0,0.0,0.0,0.0,0.0,0.0,0.0,0.0,0.0,0.0,0.0,0.0,0.0,0.0,0.0,0.0,0.0,0.0,0.0,0.0,0.0,0.0,0.0,0.0,-0.6758,-0.7284,-0.7311,-0.691,-0.7317,-0.7519,-0.7519,-0.7272,-0.673,-0.5952,-0.5047,-0.4379,-0.3886,-0.3532,-0.3362,-0.3275,0.0,0.0,0.0,0.0,0.0,0.0,0.0,0.0,0.0,0.0,-0.7311,-0.754,-0.7665,0.0,0.0,0.0,0.0,0.0,-0.8019,-0.8182,-0.8383,-0.8638,-0.884,-0.8986,-0.9046,-0.9209,-0.9323,-0.9258,-0.9427,-0.9628,-0.9753,-1.0008,-1.0307,-1.0623,-1.0813,-1.0987,-1.1183,-1.1302,-1.1417,-1.1536,-1.1651,-1.0578,-0.7459,-0.537,-0.251,0.1962,0.2894,0.3052,0.3052,0.3052,0.3052,0.3052,0.3052,0.3052,0.3052,0.3069,0.3077,0.3077,0.3061,0.3069,0.3101,0.3133,0.317,0.3213,0.326,0.3287,0.33,0.33,0.3283,0.3053,0.2035,0.1826,0.1818,0.1818,0.1825,0.1831,0.0,0.0,0.0,0.0,0.0,0.0,0.0,0.0,0.0,0.0,0.0,0.0,0.0,0.0,0.0,0.0,0.0,0.0,0.0,0.0,0.0,0.0,0.0,0.0,-0.718,-0.7522,-0.7516,-0.7265,-0.7453,-0.7589,-0.7562,-0.6995,-0.6643,-0.6303,-0.5272,-0.4637,-0.4361,-0.3665,-0.3398,-0.3338,0.0,0.0,0.0,0.0,0.0,0.0,0.0,0.0,0.0,0.0,0.0,0.0,0.0,0.0,0.0,-0.7861,-0.7888,-0.7948,-0.81,-0.8247,-0.8475,-0.8959,-0.915,-0.9258,-0.9394,-0.9617,-0.9764,-0.9639,-0.9775,-0.996,-1.0085,-1.0253,-1.0503,-1.09,-1.096,-1.1079,-1.1411,-1.1433,-1.1476,-1.1623,-1.1791,-0.9914,-0.5149,-0.366,-0.1167,0.2748,0.3086,0.3052,0.3052,0.3052,0.3052,0.3052,0.3052,0.3055,0.3063,0.3086,0.3097,0.3097,0.3081,0.3097,0.3144,0.3182,0.3213,0.3245,0.3306,0.3332,0.3332,0.3332,0.3314,0.3285,0.3285,0.3269,0.3245,0.3251,0.326,0.3265,0.0,0.0,0.0,0.0,0.0,0.0,0.0,0.0,0.0,0.0,0.0,0.0,0.0,0.0,0.0,0.0,0.0,0.0,0.0,0.0,0.0,0.0,0.0,0.0,0.0,-0.7855,-0.7808,-0.7604,-0.774,-0.779,-0.7693,-0.7796,-0.7298,-0.6417,-0.5826,-0.5146,-0.4365,-0.3708,-0.3458,-0.3401,-0.3341,0.0,0.0,0.0,0.0,0.0,0.0,0.0,0.0,0.0,0.0,0.0,0.0,0.0,-0.7736,-0.7839,-0.7954,-0.8089,-0.8329,-0.8557,-0.8845,-0.9329,-0.9209,-0.9122,-0.9671,-0.9737,-0.9737,-0.9938,-1.0085,-1.0215,-1.0335,-1.0639,-1.0916,-1.1063,-1.109,-1.1172,-1.1422,-1.1373,-1.1218,-1.1453,-1.145,-1.1332,-1.0844,-0.2728,0.2747,0.3142,0.3086,0.3052,0.3052,0.3052,0.3052,0.3052,0.3052,0.3066,0.3095,0.3096,0.3097,0.3097,0.3125,0.3138,0.3145,0.3201,0.3243,0.3276,0.3337,0.3363,0.3363,0.3363,0.3345,0.3318,0.3318,0.3299,0.3276,0.3305,0.328,0.3238,0.0,0.0,0.0,0.0,0.0,0.0,0.0,0.0,0.0,0.0,0.0,0.0,0.0,0.0,0.0,0.0,0.0,0.0,0.0,0.0,0.0,0.0,0.0,-0.7624,-0.8073,-0.8119,-0.7986,-0.7841,-0.7757,-0.7703,-0.7589,-0.7633,-0.7423,-0.6883,-0.635,-0.5733,-0.5062,-0.4405,-0.3808,-0.3461,-0.3825,-0.3668,0.0,0.0,0.0,0.0,0.0,0.0,0.0,0.0,-0.7127,-0.7258,-0.7453,-0.7606,-0.7725,-0.7839,-0.8062,-0.8301,-0.8394,-0.8644,-0.9014,-0.9568,-0.9552,-0.9514,-0.9965,-1.0144,-1.0204,-1.0144,-1.0346,-1.0547,-1.0596,-1.09,-1.1107,-1.1003,-1.1177,-1.133,-1.1351,-1.1389,-1.06,-0.8243,-0.9982,-1.0007,-0.6432,-0.1174,0.2357,0.3142,0.3086,0.3052,0.3052,0.3052,0.3052,0.3052,0.307,0.3086,0.3097,0.3135,0.3155,0.3153,0.3146,0.3161,0.3198,0.3239,0.3275,0.3307,0.3369,0.3395,0.3395,0.3395,0.3377,0.3347,0.3328,0.3325,0.333,0.3324,0.3318,0.3311,0.0,0.0,0.0,0.0,0.0,0.0,0.0,0.0,0.0,0.0,0.0,0.0,0.0,0.0,0.0,0.0,0.0,0.0,0.0,-0.622,0.0,0.0,0.0,-0.7678,-0.8086,-0.8131,-0.816,-0.8102,-0.7881,-0.7616,-0.7464,-0.7502,-0.7453,-0.722,-0.6685,-0.6107,-0.55,-0.4815,-0.4095,-0.3521,-0.3892,-0.3722,0.0,0.0,0.0,0.0,0.0,0.0,0.0,0.0,-0.7035,-0.7154,-0.7475,-0.7606,-0.7687,-0.7915,-0.8193,-0.8443,-0.8557,-0.8818,-0.9198,-0.9753,-0.984,-0.9873,-1.0231,-1.0438,-1.053,-1.0449,-1.0655,-1.0851,-1.0851,-1.1079,-1.1221,-1.1058,-1.1275,-1.1449,-1.1239,-1.1498,-1.0559,-0.7824,-0.7781,-0.599,-0.1376,0.0983,0.2357,0.3142,0.3086,0.3052,0.3052,0.3061,0.3066,0.3066,0.3096,0.3116,0.3126,0.3167,0.3193,0.3201,0.318,0.3191,0.3231,0.3272,0.3302,0.3325,0.3385,0.3412,0.3412,0.3412,0.34,0.3378,0.3358,0.3356,0.3365,0.3354,0.3351,0.3348,0.0,0.0,0.0,0.0,0.0,0.0,0.0,0.0,0.0,0.0,0.0,0.0,0.0,0.0,0.0,0.0,0.0,0.0,-0.58,-0.622,-0.6607,-0.6912,-0.7353,-0.7637,-0.7633,-0.7874,-0.8182,-0.8341,-0.7881,-0.7578,-0.7339,-0.7464,-0.7453,-0.7231,-0.6768,-0.629,-0.5512,-0.4936,-0.4325,-0.3583,-0.3521,-0.3463,-0.3512,0.0,0.0,0.0,0.0,0.0,0.0,0.0,-0.6986,-0.7067,-0.7551,-0.7616,-0.7616,-0.8095,-0.8323,-0.8503,-0.8856,-0.9128,-0.9421,-0.99,-1.0025,-1.0117,-1.0476,-1.0558,-1.0623,-1.0867,-1.1014,-1.1101,-1.1101,-1.1194,-1.1275,-1.127,-1.1389,-1.1525,-1.1464,-1.1512,-1.1483,-1.1452,-0.4618,0.078,0.2983,0.3161,0.3142,0.3142,0.3086,0.3052,0.3052,0.3081,0.3097,0.3097,0.3127,0.3157,0.3187,0.3189,0.3202,0.323,0.323,0.323,0.3232,0.3294,0.3321,0.3325,0.3385,0.3412,0.3412,0.3412,0.3412,0.3412,0.3412,0.3393,0.337,0.34,0.3374,0.3326,0.0,0.0,0.0,0.0,0.0,0.0,0.0,0.0,0.0,0.0,0.0,0.0,0.0,0.0,0.0,0.0,0.0,0.0,-0.58,-0.622,-0.6512,-0.6607,-0.7034,-0.723,-0.7337,-0.7569,-0.7777,-0.7886,-0.7801,-0.7622,-0.7464,-0.7589,-0.7584,-0.747,0.0,-0.6793,-0.5692,-0.5907,-0.5264,-0.4325,-0.47,-0.448,-0.4153,0.0,0.0,0.0,0.0,0.0,0.0,0.0,0.0,0.0,-0.7551,-0.7731,-0.7828,-0.8144,-0.8503,-0.8818,-0.8921,-0.9307,-0.9753,-1.0068,-1.0215,-1.0373,-1.0732,-1.0677,-1.0623,-1.0867,-1.1014,-1.1101,-1.1101,-1.1264,-1.1373,-1.1302,-1.14,-1.1536,-1.1496,-1.1528,-0.9455,-0.4031,-0.0,0.2151,0.2008,0.2776,0.3142,0.3142,0.3086,0.3052,0.3052,0.3081,0.3097,0.3097,0.3148,0.3179,0.3189,0.3208,0.3221,0.323,0.323,0.323,0.3232,0.3294,0.3321,0.3325,0.3385,0.3412,0.3412,0.3412,0.3412,0.3412,0.3412,0.3407,0.34,0.3408,0.34,0.3384,0.0,0.0,0.0,0.0,0.0,0.0,0.0,0.0,-0.5425,-0.5425,-0.5425,-0.5425,0.0,0.0,0.0,-0.5425,-0.563,0.0,-0.58,-0.622,-0.6498,-0.6559,-0.6878,-0.7045,-0.702,-0.7217,-0.7371,-0.7415,-0.7562,-0.7568,-0.7448,-0.7573,-0.7616,-0.7595,0.0,-0.71,-0.6253,-0.6443,-0.5771,-0.4586,-0.4508,-0.406,-0.3515,0.0,0.0,0.0,0.0,0.0,0.0,0.0,0.0,0.0,-0.7481,-0.7709,-0.7877,-0.8263,-0.8649,-0.8992,-0.9188,-0.9568,-0.9981,-1.0269,-1.04,-1.0525,-1.0786,-1.0808,-1.0829,-1.102,-1.1118,-1.1183,-1.1232,-1.1357,-1.1438,-1.1378,-1.0175,-0.9738,-1.1206,-0.8856,-0.5239,-0.0581,0.1953,0.2963,0.2218,0.2781,0.3142,0.3142,0.3086,0.3052,0.3052,0.3092,0.3115,0.3115,0.3174,0.3205,0.3205,0.3221,0.323,0.323,0.323,0.3236,0.325,0.3299,0.3321,0.3325,0.3385,0.3412,0.3412,0.3412,0.3412,0.3412,0.3412,0.3412,0.3412,0.3412,0.3412,0.341,0.0,0.0,0.0,0.0,0.0,0.0,0.0,-0.5425,-0.5425,-0.5425,-0.5425,-0.5425,0.0,0.0,0.0,-0.5425,-0.563,-0.58,-0.58,-0.6213,-0.6512,-0.6654,-0.6746,-0.677,-0.6701,-0.6726,-0.6828,-0.6953,-0.7323,-0.7453,-0.7355,0.0,-0.7595,-0.7703,0.0,-0.7355,-0.6746,-0.6749,-0.5946,-0.4596,-0.3487,-0.2738,-0.2236,-0.2549,0.0,0.0,0.0,0.0,0.0,0.0,0.0,0.0,-0.7366,-0.7606,-0.7812,-0.8388,-0.8742,-0.9052,-0.9525,-0.9835,-1.0106,-1.0465,-1.0579,-1.0634,-1.0748,-1.0949,-1.1139,-1.1221,-1.1264,-1.1319,-1.1422,-1.1449,-1.1465,-1.1482,-0.8599,-0.7224,-0.9995,-0.4485,0.0,0.0196,0.198,0.3,0.3227,0.3176,0.3142,0.314,0.3088,0.3055,0.3052,0.3112,0.3145,0.3142,0.32,0.323,0.323,0.323,0.323,0.323,0.323,0.3246,0.3277,0.3307,0.3324,0.3332,0.3388,0.3412,0.3412,0.3412,0.3412,0.3412,0.3412,0.3412,0.3412,0.3412,0.3412,0.3412,0.0,0.0,0.0,0.0,0.0,0.0,-0.5425,-0.5425,-0.5425,-0.5425,-0.5425,-0.5425,-0.5425,-0.5425,0.0,-0.5425,-0.563,-0.58,-0.58,-0.6118,-0.6322,-0.6356,-0.6389,-0.6331,-0.6251,-0.6365,-0.6578,-0.6698,-0.7154,-0.741,0.0,0.0,0.0,-0.7703,0.0,-0.7469,-0.6846,-0.7262,-0.6219,-0.4309,-0.3352,-0.2492,-0.1911,-0.2513,-0.2776,0.0,0.0,0.0,0.0,0.0,0.0,0.0,-0.7339,-0.7606,-0.778,-0.8193,-0.8617,-0.9035,-0.9421,-0.9769,-1.0106,-1.0465,-1.077,-1.0992,-1.102,-1.1134,-1.1188,-1.1031,-1.1221,-1.14,-1.134,-1.1411,-1.1487,-1.152,-1.0799,-0.8509,-0.3139,-0.1121,0.057,0.2349,0.2178,0.2193,0.3197,0.3164,0.3133,0.311,0.3095,0.3077,0.3054,0.3133,0.3168,0.3144,0.32,0.323,0.323,0.323,0.323,0.323,0.323,0.3246,0.3277,0.3307,0.3347,0.3393,0.3407,0.3412,0.3412,0.3412,0.3412,0.3412,0.3412,0.3412,0.3412,0.3412,0.3412,0.3412,0.0,0.0,0.0,0.0,0.0,0.0,0.0,0.0,-0.5277,-0.5418,-0.5425,-0.5425,-0.5425,-0.5425,0.0,0.0,-0.563,-0.58,-0.58,-0.6091,-0.6261,-0.6099,-0.6122,-0.6008,-0.5901,-0.6062,-0.6268,-0.6453,-0.6812,-0.7143,0.0,0.0,0.0,-0.7709,0.0,-0.7755,0.0,-0.6788,-0.5167,-0.3157,-0.2135,-0.1313,-0.0646,-0.064,-0.0841,-0.1241,-0.3073,0.0,0.0,0.0,0.0,0.0,0.0,0.0,-0.7785,-0.8198,-0.8579,-0.897,-0.9443,-0.9791,-1.0123,-1.0536,-1.0873,-1.1085,-1.1031,-1.1199,-1.1319,-1.1139,-1.1248,-1.1384,-1.1395,-0.9829,-0.9326,-1.1167,-1.1585,-0.8762,-0.1116,0.0945,0.1924,0.3156,0.2793,0.2603,0.319,0.316,0.313,0.31,0.3097,0.3091,0.3074,0.3146,0.318,0.3165,0.3208,0.323,0.323,0.323,0.323,0.323,0.323,0.3254,0.3298,0.3329,0.3369,0.3412,0.3412,0.3412,0.3412,0.3412,0.3412,0.3412,0.3412,0.3412,0.3412,0.3412,0.3412,0.3412,0.0,0.0,0.0,0.0,0.0,0.0,0.0,0.0,0.0,-0.5345,-0.5425,-0.5425,-0.5425,-0.5425,-0.5425,0.0,0.0,0.0,-0.58,-0.6091,-0.6183,-0.5867,-0.5947,-0.5835,-0.5593,-0.578,-0.5991,-0.6236,-0.6497,-0.6844,0.0,0.0,0.0,-0.7709,0.0,0.0,0.0,0.0,-0.3771,-0.1764,-0.057,0.0223,0.0772,0.1429,0.1307,0.0537,-0.1795,-0.4302,-0.6511,-0.661,0.0,0.0,0.0,0.0,-0.7763,-0.822,-0.8535,-0.8867,-0.9449,-0.984,-1.0193,-1.0655,-1.0938,-1.1079,-1.0998,-1.1259,-1.1303,-1.0485,-1.0273,-1.0475,-1.1314,-0.8794,-0.7356,-0.9195,-0.9467,-0.719,-0.0376,0.2109,0.3126,0.3182,0.3215,0.322,0.3183,0.3157,0.3129,0.3092,0.3095,0.3097,0.3097,0.3155,0.3189,0.3189,0.3216,0.323,0.323,0.323,0.323,0.323,0.324,0.3275,0.3329,0.336,0.3388,0.3412,0.3412,0.3412,0.3412,0.3412,0.3412,0.3412,0.3412,0.3412,0.3412,0.3412,0.3412,0.3412,0.0,0.0,0.0,0.0,0.0,0.0,0.0,0.0,0.0,0.0,-0.5425,-0.5425,-0.5425,-0.5425,-0.5425,-0.5425,-0.563,-0.58,-0.58,0.0,0.0,-0.5634,-0.5775,-0.5612,-0.5294,-0.5567,-0.5871,-0.6111,-0.6453,0.0,0.0,0.0,0.0,-0.7595,0.0,0.0,0.0,0.0,0.0,0.0,0.0812,0.1602,0.1597,0.1686,0.134,0.0668,-0.0111,-0.3184,-0.6758,-0.6738,-0.6748,0.0,0.0,0.0,-0.7616,-0.7992,-0.8345,-0.872,-0.922,-0.9835,-1.0427,-1.0802,-1.0998,-1.1123,-1.1204,-1.1438,-1.054,-0.7064,-0.6473,-0.7513,-1.0799,-1.1167,-0.8656,-0.2543,-0.1468,-0.0558,0.2278,0.3099,0.3149,0.3185,0.3215,0.3212,0.3155,0.3145,0.3119,0.3063,0.3082,0.3097,0.3097,0.3155,0.3189,0.3189,0.3216,0.323,0.323,0.323,0.323,0.3231,0.3284,0.3326,0.3362,0.3392,0.3408,0.3412,0.3412,0.3412,0.3412,0.3412,0.3412,0.3412,0.3412,0.3412,0.3412,0.3412,0.3412,0.3412,0.0,0.0,0.0,0.0,0.0,0.0,0.0,0.0,0.0,0.0,0.0,-0.5488,-0.5488,-0.5562,-0.5471,-0.4984,-0.5519,-0.5969,-0.6051,-0.6103,-0.5944,-0.564,-0.5532,-0.5433,-0.5186,-0.5409,-0.5648,-0.5888,-0.6317,0.0,0.0,-0.7182,-0.7439,0.0,0.0,0.0,0.0,0.0,0.0,0.0,0.1565,0.1926,0.1817,0.1789,0.1669,0.1198,0.0353,-0.2193,-0.5366,-0.6551,-0.7027,-0.7154,-0.7448,0.0,0.0,0.0,-0.8214,-0.8524,-0.9139,-0.9682,-1.0166,-1.053,-1.0813,-1.1036,-1.1161,-1.1389,-1.105,-0.9295,-0.8957,-0.8217,-0.5623,-0.5048,-0.3971,-0.055,0.0,0.0754,0.2899,0.3141,0.3179,0.321,0.3224,0.3208,0.3149,0.3142,0.3125,0.3081,0.3106,0.313,0.3148,0.3189,0.3212,0.3212,0.3224,0.323,0.323,0.323,0.3239,0.3255,0.33,0.3337,0.3367,0.3397,0.3412,0.3412,0.3412,0.3412,0.3412,0.3412,0.3412,0.3412,0.3412,0.3412,0.3412,0.3412,0.3412,0.3412,0.0,0.0,0.0,0.0,0.0,0.0,0.0,0.0,0.0,0.0,0.0,-0.5008,-0.5008,0.0,0.0,0.0,-0.4905,-0.5563,-0.5938,-0.5712,-0.5569,-0.5683,-0.5454,-0.5337,-0.5186,-0.5339,-0.5518,-0.5735,0.0,0.0,-0.6479,-0.7091,-0.7364,0.0,-0.5593,0.0,0.0,0.0,0.0,0.0,0.0,0.2024,0.1915,0.1774,0.1781,0.1664,0.0498,-0.122,-0.3367,-0.6478,-0.7429,-0.7421,-0.7633,-0.766,0.0,0.0,0.0,-0.841,-0.8836,-0.9291,-0.984,-1.0368,-1.0732,-1.0873,-1.1041,-1.0414,-1.0276,-1.132,-0.9963,-0.6857,-0.1104,0.0,0.0,0.0,0.0377,0.1339,0.2553,0.2982,0.3208,0.323,0.3231,0.3208,0.3148,0.3142,0.3127,0.3089,0.3114,0.3145,0.3175,0.3204,0.3223,0.323,0.323,0.323,0.323,0.3238,0.3257,0.3287,0.3318,0.3348,0.3378,0.3401,0.3412,0.3412,0.3412,0.3412,0.3412,0.3412,0.3412,0.3412,0.3412,0.3412,0.3412,0.3412,0.3412,0.3412,0.0,0.0,0.0,0.0,0.0,0.0,0.0,0.0,0.0,0.0,0.0,-0.3407,-0.3407,-0.3411,-0.3415,-0.3342,-0.3499,-0.4042,-0.4996,-0.4851,-0.4977,-0.5731,-0.5755,0.0,-0.5186,-0.542,-0.5605,0.0,0.0,0.0,-0.6706,-0.7095,-0.7236,-0.7225,-0.758,-0.4947,-0.0371,0.0,0.0,0.0,0.0,0.2104,0.1976,0.1334,0.1475,0.1875,0.0528,0.0,-0.1023,-0.6319,-0.7823,-0.7423,-0.7665,-0.754,-0.7404,0.0,0.0,0.0,-0.8349,-0.8802,-0.9617,-1.0452,-1.065,-1.0645,-1.09,-0.8411,-0.7011,-1.0765,-0.5702,-0.0557,-0.0,0.0,0.0,0.0,0.1729,0.2725,0.1787,0.261,0.3231,0.3231,0.323,0.3208,0.3148,0.3142,0.3118,0.3059,0.3082,0.3114,0.3144,0.3174,0.3202,0.323,0.323,0.323,0.323,0.3258,0.3288,0.3318,0.335,0.338,0.341,0.3411,0.3412,0.3412,0.3412,0.3412,0.3412,0.3412,0.3412,0.3412,0.3412,0.3412,0.3412,0.3412,0.3412,0.3412,0.0,0.0,0.0,0.0,0.0,0.0,0.0,0.0,0.0,0.0,0.0,0.0,0.0,-0.3551,-0.3431,-0.2825,-0.2851,-0.3414,-0.4691,-0.4467,0.0,-0.4048,-0.5036,-0.5531,-0.537,-0.5438,0.0,0.0,0.0,-0.5484,-0.4288,-0.6315,-0.7187,-0.7127,-0.4142,-0.1333,0.1236,0.1118,0.0,0.0,0.0,0.0,0.2059,0.1367,0.0971,0.0,0.0,0.0,0.0,-0.6357,-0.8124,-0.7867,-0.7622,-0.7527,-0.7464,-0.7595,-0.6653,-0.559,-0.565,-0.5815,-0.6428,-0.9127,-1.0313,-1.071,-1.0808,-0.974,-0.9464,-1.1225,-0.5342,0.0,0.0,0.0,0.0374,0.1918,0.2704,0.3126,0.2604,0.3025,0.3232,0.3231,0.323,0.3208,0.3148,0.316,0.3155,0.3114,0.3138,0.3168,0.3197,0.3209,0.322,0.323,0.323,0.3239,0.326,0.327,0.33,0.3351,0.3362,0.3382,0.3412,0.3412,0.3412,0.3412,0.3412,0.3412,0.3412,0.3412,0.3412,0.3412,0.3412,0.3412,0.3412,0.3412,0.3412,0.3412,0.0,0.0,0.0,0.0,0.0,0.0,0.0,0.0,0.0,-0.2613,0.0,0.0,0.0,0.0,-0.2741,-0.2118,-0.2118,-0.251,-0.3444,-0.3292,-0.318,-0.3112,-0.3421,-0.4241,-0.5443,-0.4919,0.0,0.0,0.0,0.0,0.0,-0.6206,-0.6354,-0.4654,-0.1485,0.0708,0.0,0.0,0.0,0.2068,0.0,0.0,0.2247,0.0,0.0,0.0,0.0,0.0,0.0,-0.4169,-0.6099,-0.6828,-0.6497,-0.6324,-0.6306,-0.7215,-0.6319,-0.471,-0.33,-0.2682,-0.3124,-0.5593,-0.7378,-0.8978,-1.0453,-1.0774,-1.0165,-0.7995,-0.3636,0.0,0.0,0.0558,0.1504,0.2905,0.3112,0.3141,0.3223,0.3232,0.3232,0.3231,0.323,0.3208,0.3148,0.3171,0.3171,0.313,0.3165,0.3197,0.3215,0.3225,0.323,0.323,0.323,0.3245,0.3276,0.3285,0.3315,0.3366,0.3377,0.3392,0.3412,0.3412,0.3412,0.3412,0.3412,0.3412,0.3412,0.3412,0.3412,0.3412,0.3412,0.3412,0.3412,0.3412,0.3412,0.3412,0.0,0.0,0.0,0.0,0.0,0.0,0.0,0.0,-0.1258,-0.1258,0.0,0.0,0.0,0.0,0.0,-0.126,-0.1261,-0.1258,-0.1333,-0.1335,-0.1844,-0.2923,-0.1066,0.0,0.0,0.0,0.0,0.0,0.0,0.0,0.0,0.0,-0.4486,0.0,0.0,0.0686,0.201,0.0,0.2037,0.2072,0.0,0.2219,0.2256,0.0,0.0,0.0,0.0,0.0,0.0,0.0,-0.1848,-0.4111,-0.4118,-0.3881,-0.4006,-0.6269,-0.7025,-0.5929,0.0,0.0,0.0,0.0,-0.2349,-0.5511,-0.9517,-1.0303,-0.8484,-0.1383,0.0,0.0,0.0,0.1669,0.3037,0.3125,0.3141,0.3163,0.3223,0.323,0.3228,0.3228,0.323,0.3208,0.3149,0.3171,0.3164,0.3104,0.3156,0.319,0.319,0.3216,0.323,0.323,0.323,0.3245,0.3277,0.3306,0.3337,0.3369,0.3397,0.3412,0.3412,0.3412,0.3412,0.3412,0.3412,0.3412,0.3412,0.3412,0.3412,0.3412,0.3412,0.3412,0.3412,0.3412,0.3412,0.3412,0.0,0.0,0.0,0.0,0.0,-0.0544,-0.0389,-0.0555,-0.0806,0.0,0.0,0.0,0.0,0.0,0.0,-0.0827,-0.0755,-0.0912,-0.1261,-0.1277,-0.1134,-0.0902,-0.0326,-0.0489,-0.1559,0.0,0.0,0.0,0.0,0.0,0.0,0.0,0.0,0.0,0.0,0.0457,0.1298,0.1815,0.0,0.2072,0.2163,0.2232,0.0,0.0,0.1828,0.1239,0.0932,0.0937,0.0937,0.0908,-0.0,-0.1152,-0.1212,-0.1144,-0.1097,-0.1828,-0.1993,-0.1657,-0.0381,0.0,0.0,0.0,0.0,0.0,-0.2672,-0.2928,-0.2338,-0.0339,0.0,0.0359,0.1803,0.2018,0.2057,0.2848,0.3081,0.3123,0.3163,0.3186,0.32,0.32,0.3217,0.3216,0.3179,0.3201,0.3204,0.3165,0.3198,0.3219,0.3219,0.3225,0.323,0.323,0.323,0.3255,0.3309,0.3317,0.3347,0.3399,0.3408,0.3412,0.3412,0.3412,0.3412,0.3412,0.3412,0.3412,0.3412,0.3412,0.3412,0.3412,0.3412,0.3412,0.3412,0.3412,0.3412,0.3412,0.0,0.0,0.0,0.0,0.0,0.0,0.0,-0.0164,-0.0335,0.0,0.0,0.0,0.0,0.0,0.0,-0.0351,-0.0352,-0.0434,-0.0752,-0.0745,-0.0498,-0.0,0.0,0.0,0.0,-0.1132,-0.1146,0.0,0.0,0.0,0.0,-0.1175,0.0,0.0,0.0,0.0,0.0,0.0,0.0,0.0,0.2168,0.0,0.0,0.2423,0.2335,0.206,0.1921,0.1931,0.193,0.1899,0.1078,0.0,0.0,0.0,0.0,0.0,0.0,0.0,0.0,0.0,0.0,0.0,0.0,0.0,0.0,0.0,0.0,0.0,0.0516,0.1408,0.2641,0.233,0.2188,0.2762,0.2991,0.3046,0.3114,0.315,0.317,0.317,0.3183,0.3187,0.3171,0.3195,0.3206,0.319,0.3215,0.323,0.323,0.323,0.323,0.323,0.3242,0.3272,0.3321,0.3333,0.3365,0.3412,0.3412,0.3412,0.3412,0.3412,0.3412,0.3412,0.3412,0.3412,0.3412,0.3412,0.3412,0.3412,0.3412,0.3412,0.3412,0.3412,0.3412,0.3412,0.0,0.0,0.0,0.0,0.0,0.0,0.0,0.0,0.0,0.0,0.0,0.0,0.0,0.0,0.0,0.0,0.0,0.0,0.0,0.0,0.0,0.0,0.0,0.0,0.0,0.0,0.0,0.0,0.0,0.0,0.0,0.0,0.0,0.0,0.0,0.0113,0.0,0.0,0.0,0.2129,0.2191,0.2266,0.2356,0.2477,0.2545,0.2582,0.2639,0.2645,0.2791,0.281,0.1754,0.0302,0.0148,0.014,0.0133,0.0,0.0,0.0,0.0,0.0,0.0,0.0,0.0,0.0,0.0,0.0,0.0,0.0,0.134,0.2383,0.2728,0.2777,0.2829,0.2859,0.2887,0.2947,0.3066,0.3111,0.3133,0.3133,0.3138,0.3142,0.3142,0.3167,0.3183,0.3183,0.3209,0.3227,0.323,0.323,0.323,0.323,0.326,0.3291,0.3321,0.3351,0.3382,0.3412,0.3412,0.3412,0.3412,0.3412,0.3412,0.3412,0.3412,0.3412,0.3412,0.3412,0.3412,0.3412,0.3412,0.3412,0.3412,0.3412,0.3412,0.3412,0.0,0.0,0.0,0.0,0.0,0.0,0.0,0.0,0.0,0.0,0.0,0.0,0.0,0.0,0.0,0.0,0.0,0.0,0.0,0.0,0.0,0.0,0.0,0.0,0.0,0.0,0.0,0.0,0.0,0.0,0.0,0.0,0.0,0.0,0.0,0.0678,0.0,0.0,0.0,0.2223,0.2283,0.2346,0.2418,0.254,0.2619,0.2671,0.2707,0.2732,0.2739,0.2837,0.2404,0.1841,0.1209,0.103,0.0855,0.014,0.0,0.0,0.0,0.0,0.0,0.0,0.0,0.0,0.0,0.0,0.0,0.0,0.0321,0.0989,0.2496,0.2716,0.2765,0.2796,0.2826,0.2879,0.2975,0.3036,0.307,0.307,0.3114,0.3142,0.3142,0.3148,0.3152,0.3152,0.3179,0.3206,0.323,0.323,0.323,0.323,0.326,0.3291,0.3321,0.3351,0.3382,0.3412,0.3412,0.3412,0.3412,0.3412,0.3412,0.3412,0.3412,0.3412,0.3412,0.3412,0.3412,0.3412,0.3412,0.3412,0.3412,0.3412,0.3412,0.3412,0.0,0.0,0.0,0.0,0.0,0.0,0.0,0.0,0.0,0.0,0.0,0.0,0.0,0.0,0.0,0.0,0.0,0.0,0.0,0.0,0.0,0.0,0.0,0.0,0.0,0.0,0.0,0.0,0.0,0.0,0.0,0.0,0.0,0.0,0.0,0.0,0.0,0.0,0.1851,0.2273,0.2315,0.2387,0.2482,0.2601,0.2675,0.2717,0.2732,0.2758,0.2772,0.2695,0.2784,0.2549,0.2036,0.1837,0.1793,0.1311,0.0719,0.0,0.0,0.0,0.0,0.0,0.0,0.0,0.0,0.0,0.0,0.0,0.0,0.0317,0.1135,0.1643,0.1997,0.22,0.2569,0.2781,0.2841,0.2927,0.2984,0.2984,0.3025,0.3058,0.3073,0.3089,0.311,0.3141,0.3171,0.3194,0.3209,0.3223,0.323,0.323,0.3275,0.3306,0.3321,0.3366,0.3397,0.3412,0.3412,0.3412,0.3412,0.3412,0.3412,0.3412,0.3412,0.3412,0.3412,0.3412,0.3412,0.3412,0.3412,0.3412,0.3412,0.3412,0.3412,0.3412,0.0,0.0,0.0,0.0,0.0,0.0,0.0,0.0,0.0,0.0,0.0,0.0,0.0,0.0,0.0,0.0,0.0,0.0,0.0,0.0,0.0,0.0,0.0,0.0,0.0,0.0,0.0,0.0,0.0,0.0,0.0,0.0,0.0,0.0,0.0,0.0,0.0,0.0,0.0,0.2319,0.2353,0.2433,0.2544,0.2652,0.2722,0.2763,0.2763,0.278,0.2791,0.2731,0.2686,0.2813,0.26,0.2544,0.2482,0.2575,0.0,0.0,0.0,0.0,0.0,0.0,0.0,0.0,0.0,0.0,0.0,0.0,0.0,0.0,0.0,0.0792,0.1437,0.1622,0.2136,0.2656,0.2675,0.2776,0.286,0.2896,0.2931,0.296,0.2979,0.3018,0.3066,0.3122,0.3159,0.3182,0.3187,0.321,0.3224,0.323,0.329,0.3321,0.3321,0.3381,0.3412,0.3412,0.3412,0.3412,0.3412,0.3412,0.3412,0.3412,0.3412,0.3412,0.3412,0.3412,0.3412,0.3412,0.3412,0.3412,0.3412,0.3412,0.3412,0.3412,0.0,0.0,0.0,0.0,0.0,0.0,0.0,0.0,0.0,0.0,0.0,0.0,0.0,0.0,0.0,0.0,0.0,0.0,0.0,0.0,0.0,0.0,0.0,0.0,0.0,0.0,0.0,0.0,0.0,0.0,0.0,0.0,0.0709,0.0,0.2176,0.0,0.0,0.0,0.2394,0.0,0.247,0.2534,0.2602,0.2668,0.2762,0.2859,0.2859,0.286,0.2855,0.2793,0.2735,0.2686,0.2679,0.2635,0.2575,0.2517,0.0,0.0,0.0,0.0,0.0,0.0,0.0,0.0,0.0,0.0,0.0,0.0,0.0,0.0,0.0,0.0,0.0,0.1226,0.1856,0.2487,0.2462,0.2541,0.266,0.2819,0.2887,0.2913,0.2891,0.2964,0.3026,0.3059,0.3115,0.316,0.3187,0.3191,0.3204,0.323,0.329,0.3321,0.3321,0.3381,0.3412,0.3412,0.3412,0.3412,0.3412,0.3412,0.3412,0.3412,0.3412,0.3412,0.3412,0.3412,0.3412,0.3412,0.3412,0.3412,0.3412,0.3412,0.3412,0.3412,0.0,0.0,0.0,0.0,0.0,0.0,0.0,0.0,0.0,0.0,0.0,0.0,0.0,0.0,0.0,0.0,0.0,0.0,0.0,0.0,0.0,0.0,0.0,0.0327,0.1098,0.1025,0.0587,0.0,0.0,0.0,0.0,0.0804,0.1287,0.1497,0.2065,0.0,0.2199,0.0,0.2369,0.2506,0.2548,0.2632,0.2736,0.2743,0.2799,0.2879,0.2912,0.2913,0.2894,0.2868,0.2821,0.2772,0.2772,0.2388,0.2001,0.2448,0.241,0.174,0.046,0.0754,0.1339,0.0291,0.0,0.0,0.0,0.0,0.0,0.0,0.0,0.0,0.0,0.0,0.0,0.0,0.2074,0.2386,0.2372,0.245,0.256,0.2706,0.2776,0.2822,0.2845,0.2928,0.2986,0.2998,0.3088,0.3148,0.3161,0.3179,0.3201,0.323,0.329,0.3321,0.3321,0.3381,0.3412,0.3412,0.3412,0.3412,0.3412,0.3412,0.3412,0.3412,0.3412,0.3412,0.3412,0.3412,0.3412,0.3412,0.3412,0.3412,0.3412,0.3412,0.3412,0.3412,0.0,0.0,0.0,0.0,0.0,0.0,0.0,0.0,0.0,0.0,0.0,0.0,0.0,0.0,0.0,0.0,0.0415,0.0551,0.0,0.0,0.0131,0.0649,0.0243,0.0468,0.141,0.1631,0.1246,0.0413,0.05,0.0495,0.0499,0.1366,0.1566,0.1322,0.1894,0.2278,0.2283,0.0,0.2457,0.2563,0.2608,0.2707,0.2827,0.2822,0.2852,0.2904,0.2946,0.2953,0.2939,0.2931,0.2894,0.2853,0.2853,0.2284,0.1893,0.2542,0.2665,0.2124,0.0796,0.1099,0.1703,0.0905,0.0296,0.0,0.0,0.0,0.0,0.0,0.0272,0.0,0.0,0.0,0.2279,0.2106,0.0,0.2278,0.2262,0.2338,0.2446,0.2582,0.2658,0.2725,0.2785,0.2881,0.2938,0.2938,0.305,0.3118,0.3118,0.3155,0.3189,0.3217,0.3285,0.3321,0.3321,0.3381,0.3412,0.3412,0.3412,0.3412,0.3412,0.3412,0.3412,0.3412,0.3412,0.3412,0.3412,0.3412,0.3412,0.3412,0.3412,0.3412,0.3412,0.3412,0.3412,0.3412,0.0,0.0,0.0,0.0,0.0,0.0,0.0,0.0,0.0,0.0,0.0,0.0,0.0,0.0,0.0,0.0,0.1473,0.1771,0.0146,0.0,0.0726,0.2179,0.0807,0.0,0.0,0.1303,0.1887,0.1529,0.1716,0.1793,0.1764,0.1289,0.1349,0.201,0.2136,0.2265,0.2255,0.2372,0.2476,0.2567,0.2654,0.2746,0.2834,0.289,0.2931,0.2958,0.2961,0.298,0.2999,0.2969,0.2939,0.2913,0.2916,0.2875,0.2826,0.2823,0.2414,0.168,0.1342,0.0655,0.0479,0.2234,0.1254,0.0,0.0,0.0,0.0,0.0,0.1119,0.2207,0.2101,0.2271,0.2252,0.2001,0.214,0.0,0.0,0.2151,0.2275,0.2454,0.2552,0.263,0.2691,0.2806,0.2876,0.2876,0.2987,0.3055,0.3055,0.3112,0.3159,0.3189,0.3275,0.3321,0.3321,0.3381,0.3412,0.3412,0.3412,0.3412,0.3412,0.3412,0.3412,0.3412,0.3412,0.3412,0.3412,0.3412,0.3412,0.3412,0.3412,0.3412,0.3412,0.3412,0.3412,0.3412,0.0097,0.0,0.0,0.0,0.0,0.0,0.0,0.0,0.0,0.0,0.0,0.0431,0.1593,0.1632,0.1503,0.0898,0.1351,0.1647,0.1626,0.1181,0.1027,0.1586,0.1518,0.1478,0.1471,0.1726,0.1754,0.138,0.1454,0.154,0.1861,0.1699,0.1769,0.2102,0.2209,0.2202,0.0,0.0,0.257,0.2717,0.2826,0.2889,0.2916,0.2916,0.2935,0.2964,0.2984,0.3011,0.3036,0.3025,0.3001,0.2976,0.2977,0.2936,0.2889,0.2889,0.2661,0.2435,0.2261,0.2048,0.1668,0.115,0.0809,0.0636,0.0156,0.0,0.0293,0.1483,0.2012,0.224,0.227,0.2251,0.2204,0.2123,0.2101,0.208,0.0,0.2113,0.2215,0.2337,0.2482,0.2597,0.2657,0.2773,0.2852,0.2872,0.2966,0.3031,0.3051,0.3091,0.3135,0.3186,0.3275,0.3321,0.3321,0.3381,0.3412,0.3412,0.3412,0.3412,0.3412,0.3412,0.3412,0.3412,0.3412,0.3412,0.3412,0.3412,0.3412,0.3412,0.3412,0.3412,0.3412,0.3412,0.3412,0.3412,0.071,0.0409,0.0411,0.0715,0.0755,0.0694,0.05,0.0392,0.0405,0.0415,0.0432,0.0889,0.1935,0.2284,0.2317,0.1854,0.1706,0.2015,0.2461,0.1989,0.1668,0.179,0.2163,0.2259,0.2251,0.2082,0.1861,0.1596,0.153,0.1608,0.1942,0.1996,0.1944,0.2022,0.2102,0.2228,0.2383,0.2463,0.2596,0.2762,0.2882,0.2943,0.296,0.2939,0.2958,0.2995,0.3003,0.3026,0.3052,0.3052,0.3039,0.3025,0.3036,0.3006,0.2966,0.2966,0.2924,0.2874,0.2863,0.2816,0.2588,0.1361,0.1173,0.1154,0.0647,0.047,0.0767,0.1861,0.2243,0.2322,0.2363,0.2303,0.2228,0.2168,0.2123,0.2086,0.0,0.211,0.218,0.2251,0.2399,0.0,0.0,0.2709,0.2797,0.2838,0.2924,0.2988,0.3018,0.3059,0.311,0.317,0.3258,0.331,0.3321,0.3381,0.3412,0.3412,0.3412,0.3412,0.3412,0.3412,0.3412,0.3412,0.3412,0.3412,0.3412,0.3412,0.3405,0.3396,0.3396,0.3389,0.3382,0.3404,0.3412,0.3412,0.171,0.1284,0.1174,0.1894,0.2135,0.1943,0.1305,0.1352,0.1398,0.1308,0.1344,0.1371,0.1387,0.2052,0.2562,0.2562,0.2589,0.2605,0.2605,0.2578,0.2562,0.2562,0.2601,0.2398,0.2274,0.2223,0.2116,0.1977,0.1993,0.1919,0.1888,0.1918,0.1963,0.2023,0.2084,0.2211,0.2384,0.2446,0.256,0.2712,0.2831,0.2916,0.2968,0.2968,0.3003,0.305,0.3018,0.3026,0.3052,0.3052,0.3054,0.3059,0.3086,0.3078,0.3056,0.3055,0.3013,0.2962,0.2934,0.2882,0.2834,0.2833,0.209,0.1538,0.1353,0.1315,0.1449,0.1466,0.2044,0.245,0.2665,0.242,0.232,0.2262,0.2199,0.2147,0.212,0.2139,0.2169,0.2199,0.2307,0.0,0.0,0.0,0.2717,0.2778,0.2866,0.2928,0.2957,0.3018,0.308,0.3138,0.3227,0.3288,0.3321,0.338,0.3411,0.3412,0.3412,0.3412,0.3412,0.3412,0.3412,0.3412,0.3412,0.3412,0.3412,0.3412,0.3395,0.3369,0.3369,0.3351,0.3332,0.3389,0.3411,0.3412,0.1744,0.1664,0.1832,0.2032,0.2083,0.2149,0.1994,0.2076,0.2141,0.2184,0.2275,0.2338,0.2189,0.2396,0.2593,0.2592,0.2598,0.2602,0.2602,0.2596,0.259,0.259,0.2519,0.2473,0.2458,0.2318,0.22,0.2109,0.2033,0.197,0.1919,0.1928,0.1974,0.2054,0.2116,0.2243,0.2416,0.2477,0.2628,0.2836,0.2934,0.3009,0.3062,0.3062,0.3073,0.308,0.3026,0.3026,0.3052,0.3052,0.3067,0.3084,0.3069,0.3089,0.3115,0.3093,0.3074,0.3056,0.3026,0.2973,0.2923,0.2901,0.2672,0.2453,0.2445,0.2398,0.2357,0.2364,0.2462,0.2563,0.2577,0.25,0.2414,0.2354,0.2256,0.2193,0.2208,0.0,0.0,0.223,0.0,0.0,0.2474,0.2609,0.2717,0.2778,0.2866,0.2919,0.2927,0.3007,0.307,0.3108,0.3195,0.3268,0.3321,0.3359,0.3389,0.3412,0.3412,0.3412,0.3412,0.3412,0.3412,0.3412,0.3412,0.3412,0.3412,0.3412,0.3407,0.34,0.34,0.3396,0.3388,0.3381,0.3392,0.3412,0.1853,0.1887,0.207,0.2042,0.2235,0.2296,0.2223,0.2298,0.2373,0.2596,0.2511,0.2557,0.2571,0.2615,0.2643,0.2642,0.2665,0.2682,0.2682,0.2669,0.2661,0.2661,0.2604,0.2564,0.2547,0.2429,0.2316,0.2207,0.212,0.2048,0.1989,0.1975,0.2009,0.2086,0.2147,0.2267,0.2433,0.2587,0.2744,0.29,0.299,0.3055,0.0,0.3112,0.311,0.3095,0.3074,0.3069,0.3071,0.3071,0.3092,0.3119,0.3127,0.3153,0.3178,0.316,0.3156,0.3146,0.3103,0.3056,0.3017,0.3001,0.2951,0.2902,0.289,0.2851,0.2812,0.28,0.2736,0.2683,0.2682,0.2597,0.2503,0.2429,0.2339,0.2283,0.0,0.0,0.0,0.0,0.2352,0.2412,0.2446,0.2597,0.2724,0.2797,0.2861,0.2909,0.2934,0.2984,0.3039,0.3096,0.3172,0.324,0.33,0.3344,0.3375,0.3392,0.3405,0.3412,0.3412,0.3412,0.3412,0.3412,0.3412,0.3404,0.3392,0.3392,0.3384,0.3371,0.3371,0.3371,0.3371,0.3367,0.3377,0.3392,0.1994,0.0,0.2063,0.2127,0.2233,0.2467,0.2656,0.2559,0.2477,0.2898,0.2766,0.2623,0.298,0.285,0.2705,0.2705,0.2752,0.2784,0.2784,0.2758,0.2744,0.2744,0.269,0.2657,0.2653,0.2544,0.244,0.2345,0.2233,0.2144,0.208,0.2046,0.2063,0.2124,0.2185,0.2301,0.2469,0.2721,0.2864,0.293,0.3021,0.3078,0.3112,0.3138,0.3133,0.3112,0.3134,0.3129,0.311,0.311,0.3131,0.3168,0.3216,0.3236,0.3242,0.3238,0.3239,0.323,0.3175,0.3141,0.3119,0.3111,0.3067,0.3017,0.2986,0.2956,0.2926,0.2897,0.2842,0.28,0.2796,0.2695,0.259,0.2521,0.2453,0.2409,0.0,0.0,0.0,0.0,0.0,0.0,0.2447,0.2592,0.2721,0.2804,0.2853,0.29,0.2947,0.2961,0.3003,0.3084,0.3145,0.3208,0.3275,0.3328,0.336,0.3373,0.3395,0.3408,0.3412,0.3412,0.3412,0.3411,0.3408,0.339,0.3366,0.3362,0.3347,0.3326,0.3326,0.3326,0.333,0.3362,0.3365,0.3356,0.2086,0.0,0.0,0.2279,0.2353,0.2891,0.4596,0.3495,0.3166,0.4576,0.3593,0.3179,0.4686,0.3585,0.2767,0.2767,0.2777,0.2784,0.2784,0.2778,0.2776,0.2776,0.2742,0.271,0.2686,0.2615,0.2522,0.2408,0.2337,0.2259,0.2174,0.212,0.2125,0.2187,0.2248,0.2399,0.2617,0.2766,0.2876,0.2961,0.3052,0.3123,0.3172,0.3178,0.3178,0.317,0.315,0.3156,0.3172,0.3172,0.3208,0.325,0.3235,0.3265,0.33,0.3275,0.3285,0.3298,0.3262,0.3249,0.3232,0.3185,0.3145,0.3111,0.3081,0.305,0.302,0.299,0.2935,0.2886,0.2863,0.2759,0.2688,0.2722,0.2635,0.2571,0.0,0.0,0.0,0.0,0.0,0.2571,0.2571,0.2622,0.2672,0.2713,0.2836,0.2902,0.289,0.2958,0.3006,0.3022,0.3082,0.3165,0.3275,0.3285,0.3329,0.3404,0.3384,0.3388,0.3412,0.3412,0.3412,0.3411,0.3385,0.3371,0.3365,0.3339,0.334,0.3358,0.3358,0.3358,0.3362,0.3393,0.3356,0.3302,0.2206,0.0,0.0,0.0,0.3812,0.4243,0.5175,0.4595,0.4303,0.5294,0.3862,0.3067,0.3962,0.331,0.2814,0.2829,0.2844,0.2859,0.2875,0.2875,0.2868,0.2853,0.2825,0.2793,0.2763,0.2703,0.262,0.2517,0.2457,0.2388,0.2315,0.2253,0.2258,0.232,0.2412,0.2525,0.2657,0.281,0.2917,0.2994,0.3101,0.3171,0.3213,0.3245,0.3247,0.3234,0.3235,0.3255,0.3273,0.3225,0.3239,0.3279,0.3295,0.3321,0.3341,0.3326,0.3333,0.3337,0.3307,0.3299,0.3292,0.3264,0.3235,0.3208,0.3193,0.3155,0.3114,0.3084,0.3029,0.2964,0.2887,0.2826,0.2787,0.2784,0.2721,0.2677,0.2692,0.0,0.2626,0.0,0.0,0.0,0.0,0.2667,0.2713,0.2759,0.283,0.2878,0.2896,0.2936,0.2975,0.3006,0.3066,0.314,0.323,0.3261,0.3306,0.3365,0.3366,0.3382,0.3412,0.3412,0.3403,0.3388,0.3373,0.3348,0.332,0.3321,0.3321,0.3322,0.3354,0.3347,0.3325,0.3371,0.334,0.3287,0.3492,0.3559,0.0,0.4918,0.5542,0.5848,0.5918,0.6074,0.6016,0.6028,0.4478,0.3642,0.4595,0.426,0.4105,0.415,0.4183,0.4033,0.3697,0.3699,0.3503,0.2927,0.2898,0.2868,0.2838,0.2778,0.2706,0.262,0.2568,0.2495,0.2403,0.2382,0.2401,0.2457,0.2564,0.2639,0.2697,0.2857,0.2965,0.3036,0.315,0.3219,0.3254,0.3303,0.331,0.3298,0.3314,0.3336,0.3345,0.3273,0.3273,0.3313,0.336,0.3377,0.3377,0.3377,0.3377,0.3371,0.3347,0.334,0.3339,0.3332,0.3313,0.3294,0.3287,0.325,0.3206,0.317,0.3103,0.3021,0.2921,0.2891,0.2874,0.2845,0.2799,0.2772,0.2784,0.2733,0.2702,0.0,0.0,0.0,0.2679,0.272,0.2773,0.2834,0.2838,0.2859,0.2904,0.2919,0.295,0.3005,0.3066,0.313,0.3197,0.3243,0.3288,0.333,0.3348,0.3377,0.3412,0.3412,0.3395,0.3366,0.3366,0.3336,0.3287,0.3311,0.3307,0.329,0.3339,0.3328,0.3291,0.3339,0.3326,0.3292,0.7157,0.7313,0.7012,0.5549,0.6843,0.8158,0.8081,0.8185,0.8342,0.7933,0.6388,0.6706,1.0165,0.9182,0.8363,0.8453,0.8465,0.7742,0.591,0.5726,0.4988,0.3142,0.2928,0.2898,0.2871,0.281,0.2747,0.2684,0.2652,0.2693,0.2636,0.2601,0.2515,0.239,0.2615,0.2706,0.2818,0.2916,0.3009,0.3097,0.3189,0.3261,0.3313,0.3318,0.3336,0.3355,0.3329,0.3322,0.3324,0.3315,0.3351,0.34,0.3405,0.3408,0.3408,0.3408,0.3408,0.3407,0.3404,0.3403,0.3397,0.3369,0.336,0.3351,0.3324,0.3313,0.3292,0.3234,0.3131,0.304,0.3002,0.2949,0.2938,0.3014,0.2934,0.2881,0.2932,0.289,0.2844,0.2819,0.0,0.0,0.2773,0.2776,0.2804,0.2866,0.287,0.2872,0.2878,0.2928,0.2972,0.3006,0.3066,0.314,0.3225,0.3231,0.3277,0.3362,0.3337,0.3355,0.3412,0.3412,0.3395,0.3366,0.3366,0.3348,0.3317,0.332,0.332,0.3317,0.3324,0.3322,0.3317,0.3324,0.3322,0.3317,0.8012,0.8216,0.8407,0.8822,0.9678,1.0354,1.0224,1.0382,1.0605,1.0404,0.8719,0.8285,0.9825,0.9321,0.9015,0.9111,0.9119,0.8772,0.7888,0.7892,0.7139,0.5448,0.5396,0.4619,0.3131,0.287,0.2821,0.2801,0.2752,0.2676,0.2738,0.2607,0.2628,0.2643,0.2721,0.2793,0.2861,0.2951,0.3031,0.3104,0.3176,0.324,0.3296,0.3314,0.3329,0.3337,0.3325,0.3321,0.3321,0.3321,0.3337,0.3358,0.3358,0.3358,0.3358,0.3358,0.3358,0.3358,0.3358,0.3358,0.3355,0.3343,0.3339,0.3336,0.3324,0.3307,0.3287,0.3262,0.3178,0.3097,0.3067,0.3041,0.3025,0.3025,0.2984,0.2956,0.2961,0.2926,0.2894,0.2882,0.0,0.2863,0.0,0.2842,0.2859,0.2848,0.2863,0.2889,0.2924,0.2949,0.2992,0.3059,0.3085,0.314,0.323,0.3249,0.3285,0.3339,0.3345,0.3362,0.3385,0.3403,0.3395,0.3365,0.3328,0.3305,0.3295,0.3313,0.3299,0.327,0.3307,0.331,0.3294,0.3294,0.3294,0.3296,0.9908,1.0134,1.0508,1.1275,1.2137,1.2269,1.1765,1.2284,1.2735,1.2648,1.1566,1.0871,1.0732,1.0766,1.0816,1.0894,1.0899,1.0934,1.0829,1.0834,0.9892,0.7816,0.7935,0.7152,0.5098,0.4383,0.3593,0.2883,0.2814,0.2747,0.2686,0.2664,0.2682,0.2736,0.281,0.2863,0.2905,0.2995,0.3063,0.3116,0.3186,0.3239,0.3279,0.331,0.3321,0.3321,0.3321,0.3321,0.332,0.331,0.3307,0.3309,0.3318,0.3321,0.3321,0.3321,0.3321,0.3321,0.3321,0.3321,0.3321,0.3321,0.3321,0.3321,0.3321,0.3305,0.3284,0.3266,0.3206,0.3148,0.3116,0.3111,0.31,0.3066,0.3046,0.3026,0.3005,0.2968,0.2946,0.2956,0.2956,0.2936,0.2886,0.2919,0.2917,0.2859,0.0,0.2911,0.2935,0.2969,0.3013,0.3069,0.3097,0.3145,0.3217,0.3257,0.3291,0.3321,0.3352,0.3371,0.338,0.3393,0.3386,0.3363,0.3311,0.3288,0.3291,0.3322,0.3299,0.3249,0.33,0.3302,0.3275,0.3265,0.3279,0.3302,1.4,1.4183,1.3668,1.2107,1.3443,1.4048,1.2326,1.3653,1.4964,1.4964,1.5086,1.512,1.4984,1.5092,1.5174,1.5181,1.5181,1.5194,1.504,1.504,1.337,0.9244,1.0321,1.0511,0.9632,0.7774,0.5439,0.2905,0.2816,0.2869,0.2882,0.2882,0.2823,0.2829,0.286,0.2906,0.3152,0.3058,0.3114,0.315,0.3239,0.3275,0.3279,0.331,0.3321,0.3321,0.3321,0.3321,0.3317,0.3287,0.3276,0.3281,0.3311,0.3321,0.3321,0.3321,0.3321,0.3321,0.3321,0.3321,0.3321,0.3321,0.3321,0.3321,0.3321,0.3321,0.3303,0.3243,0.3208,0.3179,0.3148,0.3142,0.3152,0.3182,0.3135,0.3096,0.3096,0.3044,0.3017,0.3047,0.3051,0.3039,0.3007,0.3005,0.298,0.2919,0.0,0.2935,0.2878,0.2987,0.3037,0.3009,0.3096,0.3157,0.3189,0.3247,0.3291,0.3321,0.3352,0.3382,0.3411,0.3381,0.3367,0.3365,0.3335,0.3321,0.3322,0.3354,0.333,0.3279,0.3309,0.3302,0.3272,0.3242,0.3288,0.3352,1.4333,1.4577,1.4604,1.4139,1.46,1.4872,1.4351,1.4825,1.5269,1.5073,1.5479,1.5581,1.5241,1.518,1.5147,1.5147,1.5234,1.5301,1.5314,1.5314,1.4751,1.3614,1.3975,1.3939,1.3513,1.3063,1.2151,1.0971,0.9312,0.8048,0.6986,0.5551,0.4915,0.4871,0.3492,0.2987,0.3028,0.3099,0.3146,0.3176,0.3205,0.4031,0.5266,0.3864,0.5085,0.7518,0.5895,0.6301,0.7515,0.5876,0.5466,0.5066,0.3662,0.326,0.326,0.326,0.326,0.326,0.326,0.326,0.326,0.326,0.326,0.326,0.326,0.326,0.3254,0.3234,0.3208,0.3191,0.3201,0.3187,0.3176,0.3186,0.3172,0.3152,0.3131,0.3095,0.3065,0.3054,0.3033,0.3009,0.2979,0.2995,0.3007,0.3009,0.3056,0.305,0.2969,0.3021,0.3067,0.3099,0.3127,0.3167,0.3216,0.3277,0.3311,0.3322,0.3373,0.3392,0.338,0.335,0.3336,0.3335,0.3303,0.329,0.3292,0.3322,0.3311,0.3281,0.3332,0.3333,0.3303,0.3272,0.3292,0.3325,1.4733,1.4916,1.5065,1.5126,1.5208,1.5289,1.5343,1.5432,1.5301,1.5294,1.5455,1.5542,1.5455,1.5601,1.5361,1.5301,1.5388,1.5642,1.5642,1.5642,1.5662,1.5716,1.5863,1.5662,1.5495,1.5438,1.5107,1.3945,1.1662,1.0046,0.9232,0.7893,0.7364,0.7253,0.5094,0.42,0.4436,0.4311,0.4354,0.438,0.539,0.6417,0.7452,0.6246,0.7251,0.946,0.8052,0.8457,0.946,0.8052,0.7653,0.7452,0.6045,0.5645,0.5242,0.3633,0.323,0.3431,0.4236,0.4438,0.464,0.5443,0.5645,0.5645,0.5645,0.5645,0.5645,0.5645,0.5217,0.4804,0.4831,0.5215,0.5599,0.5599,0.5599,0.558,0.5722,0.4118,0.3515,0.4675,0.3864,0.3063,0.3032,0.3036,0.3035,0.302,0.3074,0.3084,0.3026,0.3063,0.3093,0.3108,0.3142,0.3183,0.323,0.3302,0.3339,0.3339,0.3388,0.3401,0.3382,0.3363,0.3343,0.332,0.33,0.3285,0.3279,0.3309,0.331,0.3296,0.3335,0.333,0.33,0.3269,0.3277,0.3296,1.5167,1.5201,1.5248,1.5398,1.5425,1.5472,1.5421,1.5442,1.5442,1.5255,1.5255,1.5462,1.607,1.6189,1.5818,1.5281,1.587,1.607,1.607,1.607,1.6133,1.6069,1.5938,1.5993,1.6062,1.5655,1.454,1.2903,1.094,0.9896,0.9896,0.9703,0.975,0.9645,0.7539,0.6612,0.6667,0.6536,0.6561,0.6765,0.8825,0.9861,0.9861,0.9661,0.9861,1.0062,1.0062,1.0062,1.0062,1.0062,0.9861,0.9861,0.9661,0.9661,0.8854,0.4839,0.3633,0.4035,0.6045,0.6648,0.705,0.926,0.9661,0.9661,0.9661,0.9661,0.9661,0.9661,0.8647,0.7637,0.7637,0.8847,0.9661,0.9861,0.9861,0.9832,0.9943,0.6349,0.478,0.7242,0.5,0.3372,0.3145,0.3118,0.3067,0.2986,0.3031,0.3063,0.3065,0.3116,0.3119,0.3061,0.3145,0.3204,0.323,0.3321,0.3367,0.337,0.3399,0.341,0.3405,0.3405,0.3373,0.3314,0.3314,0.3299,0.3279,0.3309,0.3322,0.3324,0.3324,0.3306,0.3275,0.3245,0.3253,0.3275,1.5303,1.5357,1.5404,1.556,1.5581,1.5401,1.5435,1.5442,1.5482,1.5185,1.5198,1.544,1.5967,1.6008,1.6015,1.5974,1.5981,1.6179,1.6179,1.6179,1.6192,1.6029,1.5995,1.5954,1.5906,1.5805,1.5515,1.4854,1.4398,1.4174,1.4168,1.2615,1.1859,1.1691,0.9824,0.8883,0.8906,0.899,0.8828,0.9028,0.9452,1.0658,1.1858,1.0258,1.1664,1.4271,1.2663,1.3267,1.4271,1.2663,1.2058,1.1858,1.0262,0.9661,0.946,0.8453,0.8252,0.8252,0.8854,0.8854,0.9059,0.9661,0.9661,0.9661,0.9661,0.9661,0.9661,0.9661,0.9456,0.9252,0.9252,0.9456,1.0066,1.1082,1.1282,1.1278,1.1249,1.0374,0.8944,0.6973,0.613,0.4915,0.334,0.3137,0.3142,0.3165,0.316,0.3165,0.3187,0.3182,0.316,0.3123,0.3186,0.3224,0.323,0.3321,0.3378,0.3401,0.3408,0.3388,0.3343,0.3343,0.3309,0.3251,0.3251,0.3261,0.3279,0.3309,0.3335,0.3355,0.3355,0.3337,0.3307,0.3276,0.3284,0.3302,1.5486,1.5513,1.554,1.5628,1.5689,1.5542,1.5535,1.5791,1.5866,1.5546,1.5552,1.5783,1.6069,1.6083,1.6083,1.6083,1.6083,1.6083,1.6083,1.6083,1.6083,1.6083,1.6083,1.6042,1.5961,1.5954,1.592,1.5839,1.5839,1.5839,1.5839,1.4649,1.4256,1.406,1.1946,1.1173,1.1178,1.1235,1.1059,1.1259,1.2263,1.3267,1.4271,1.3068,1.4071,1.5877,1.4869,1.5074,1.5884,1.4669,1.4271,1.4071,1.3068,1.2668,1.2668,1.2668,1.1263,0.9861,1.0858,1.1059,1.1463,1.2463,1.2668,1.2668,1.2668,1.2668,1.2668,1.2668,1.2668,1.2668,1.2668,1.2668,1.2873,1.3684,1.369,1.369,1.369,1.2825,1.1599,0.964,0.8573,0.7141,0.4966,0.4553,0.4158,0.3189,0.3189,0.3195,0.321,0.3209,0.32,0.3183,0.3227,0.3265,0.3292,0.3355,0.3396,0.3412,0.3412,0.3395,0.3363,0.3363,0.3329,0.3272,0.3272,0.3281,0.3296,0.3299,0.3335,0.3384,0.3341,0.3324,0.3315,0.327,0.3265,0.3275,1.5669,1.5669,1.5676,1.5703,1.5805,1.5886,1.5683,1.5995,1.6083,1.6083,1.6083,1.6083,1.6083,1.6083,1.6083,1.6083,1.6083,1.6083,1.6083,1.6083,1.6083,1.6083,1.6083,1.6083,1.6083,1.6083,1.6083,1.6083,1.6083,1.6083,1.6083,1.6083,1.6083,1.6083,1.4265,1.3461,1.3461,1.3461,1.3461,1.3461,1.5273,1.6083,1.6083,1.6083,1.6083,1.6083,1.6083,1.6083,1.6083,1.6083,1.6083,1.6083,1.6083,1.6083,1.6083,1.6083,1.3467,1.1063,1.2863,1.3461,1.3866,1.5678,1.6083,1.6083,1.6083,1.6083,1.6083,1.6083,1.6083,1.6083,1.6083,1.6083,1.6096,1.6144,1.613,1.613,1.6178,1.4543,1.3357,1.3261,1.1363,0.9496,0.7282,0.6628,0.5583,0.3764,0.3392,0.3208,0.3208,0.3231,0.3246,0.325,0.3272,0.3311,0.3373,0.3399,0.3412,0.3412,0.3412,0.341,0.3405,0.34,0.337,0.3321,0.3311,0.3313,0.3318,0.3288,0.3324,0.3389,0.3307,0.3294,0.3314,0.3253,0.3236,0.3242,1.5798,1.5818,1.5859,1.5988,1.6029,1.6049,1.6042,1.6062,1.6083,1.6083,1.6083,1.6083,1.6083,1.6083,1.6083,1.6083,1.6083,1.6083,1.6083,1.6083,1.6083,1.6083,1.6083,1.6083,1.6083,1.6083,1.6083,1.6083,1.6083,1.6083,1.6083,1.6083,1.6083,1.6083,1.5678,1.5678,1.5678,1.5678,1.5678,1.5678,1.5877,1.6083,1.6083,1.6083,1.6083,1.6083,1.6083,1.6083,1.6083,1.6083,1.6083,1.6083,1.6083,1.6083,1.6083,1.6083,1.5678,1.5273,1.5479,1.5678,1.5678,1.6083,1.6083,1.6083,1.6083,1.6083,1.6083,1.6083,1.6083,1.6083,1.6083,1.6083,1.6164,1.6415,1.6354,1.6361,1.6612,1.6121,1.5227,1.3399,1.2979,1.194,0.9676,0.7821,0.6583,0.6165,0.4326,0.33,0.33,0.3305,0.3318,0.3344,0.3325,0.3343,0.3404,0.341,0.3412,0.3412,0.3412,0.3399,0.3373,0.3347,0.333,0.3318,0.3266,0.3273,0.3318,0.3288,0.3299,0.333,0.3291,0.3294,0.3314,0.3253,0.3262,0.3299,1.5961,1.5974,1.6001,1.6069,1.6083,1.6083,1.6083,1.6083,1.6083,1.6083,1.6083,1.6083,1.6083,1.6083,1.6083,1.6083,1.6083,1.6083,1.6083,1.6083,1.6083,1.6083,1.6083,1.6083,1.6083,1.6083,1.6083,1.6083,1.6083,1.6083,1.6083,1.6083,1.6083,1.6083,1.6083,1.6083,1.6083,1.6083,1.6083,1.6083,1.6083,1.6083,1.6083,1.6083,1.6083,1.6083,1.6083,1.6083,1.6083,1.6083,1.6083,1.6083,1.6083,1.6083,1.6083,1.6083,1.6083,1.6083,1.6083,1.6083,1.6083,1.6083,1.6083,1.6083,1.6083,1.6083,1.6083,1.6083,1.6083,1.6083,1.6083,1.6083,1.6151,1.6374,1.6354,1.6381,1.6598,1.6564,1.6141,1.5184,1.5122,1.4282,1.2063,1.0987,0.9312,0.6836,0.5804,0.4564,0.3321,0.3321,0.3335,0.3366,0.3369,0.3384,0.3411,0.3412,0.3412,0.3412,0.3412,0.3396,0.3366,0.3352,0.3328,0.3295,0.3266,0.327,0.3294,0.3264,0.3279,0.3317,0.3269,0.3269,0.3291,0.3246,0.3247,0.3268,1.6083,1.6083,1.6083,1.6083,1.6083,1.6083,1.6083,1.6083,1.6083,1.6083,1.6083,1.6083,1.6083,1.6083,1.6083,1.6083,1.6083,1.6083,1.6083,1.6083,1.6083,1.6083,1.6083,1.6083,1.6083,1.6083,1.6083,1.6083,1.6083,1.6083,1.6083,1.6083,1.6083,1.6083,1.6083,1.6083,1.6083,1.6083,1.6083,1.6083,1.6083,1.6083,1.6083,1.6083,1.6083,1.6083,1.6083,1.6083,1.6083,1.6083,1.6083,1.6083,1.6083,1.6083,1.6083,1.6083,1.6083,1.6083,1.6083,1.6083,1.6083,1.6083,1.6083,1.6083,1.6083,1.6083,1.6083,1.6083,1.6083,1.6083,1.6083,1.6083,1.6144,1.6327,1.6334,1.6381,1.6598,1.6598,1.6632,1.6788,1.67,1.6047,1.4475,1.3778,1.2063,0.8539,0.7292,0.6046,0.4175,0.355,0.3352,0.3377,0.34,0.3412,0.3412,0.3412,0.3412,0.3412,0.3412,0.34,0.3377,0.3362,0.3335,0.3295,0.3275,0.3269,0.3273,0.3243,0.3258,0.3295,0.3249,0.3249,0.3272,0.3242,0.3235,0.3239,1.6083,1.6083,1.6083,1.6083,1.6083,1.6083,1.6083,1.6083,1.6083,1.6083,1.6083,1.6083,1.6083,1.6083,1.6083,1.6083,1.6083,1.6083,1.6083,1.6083,1.6083,1.6083,1.6083,1.6083,1.6083,1.6083,1.6083,1.6083,1.6083,1.6083,1.6083,1.6083,1.6083,1.6083,1.6083,1.6083,1.6083,1.6083,1.6083,1.6083,1.6083,1.6083,1.6083,1.6083,1.6083,1.6083,1.6083,1.6083,1.6083,1.6083,1.6083,1.6083,1.6083,1.6083,1.6083,1.6083,1.6083,1.6083,1.6083,1.6083,1.6083,1.6083,1.6083,1.6083,1.6083,1.6083,1.6083,1.6083,1.6083,1.6083,1.6083,1.6083,1.6178,1.6463,1.6395,1.6456,1.689,1.6822,1.6788,1.6944,1.6951,1.6951,1.6748,1.4826,1.3337,1.3127,0.9115,0.679,0.6578,0.4464,0.3407,0.3408,0.3411,0.3412,0.3412,0.3412,0.3412,0.3412,0.3412,0.3411,0.3407,0.335,0.3337,0.3355,0.327,0.325,0.3273,0.3243,0.3232,0.3236,0.3232,0.3249,0.3272,0.3242,0.3247,0.3268,1.6083,1.6083,1.6083,1.6083,1.6083,1.6083,1.6083,1.6083,1.6083,1.6083,1.6083,1.6083,1.6083,1.6083,1.6083,1.6083,1.6083,1.6083,1.6083,1.6083,1.6083,1.6083,1.6083,1.6083,1.6083,1.6083,1.6083,1.6083,1.6083,1.6083,1.6083,1.6083,1.6083,1.6083,1.6083,1.6083,1.6083,1.6083,1.6083,1.6083,1.6083,1.6083,1.6083,1.6083,1.6083,1.6083,1.6083,1.6083,1.6083,1.6083,1.6083,1.6083,1.6083,1.6083,1.6083,1.6083,1.6083,1.6083,1.6083,1.6083,1.6083,1.6083,1.6083,1.6083,1.6083,1.6083,1.6083,1.6083,1.6083,1.6083,1.6083,1.6083,1.6151,1.6354,1.6347,1.6435,1.6788,1.6788,1.6809,1.6965,1.6978,1.6978,1.6978,1.6131,1.5066,1.3785,1.2093,0.9768,0.7016,0.4685,0.3412,0.3412,0.3412,0.3412,0.3412,0.3412,0.3412,0.3412,0.3412,0.3401,0.3382,0.334,0.3317,0.3309,0.3273,0.3254,0.325,0.3276,0.3265,0.3232,0.3251,0.3254,0.3249,0.3255,0.3254,0.3251,1.6083,1.6083,1.6083,1.6083,1.6083,1.6083,1.6083,1.6083,1.6083,1.6083,1.6083,1.6083,1.6083,1.6083,1.6083,1.6083,1.6083,1.6083,1.6083,1.6083,1.6083,1.6083,1.6083,1.6083,1.6083,1.6083,1.6083,1.6083,1.6083,1.6083,1.6083,1.6083,1.6083,1.6083,1.6083,1.6083,1.6083,1.6083,1.6083,1.6083,1.6083,1.6083,1.6083,1.6083,1.6083,1.6083,1.6083,1.6083,1.6083,1.6083,1.6083,1.6083,1.6083,1.6083,1.6083,1.6083,1.6083,1.6083,1.6083,1.6083,1.6083,1.6083,1.6083,1.6083,1.6083,1.6083,1.6083,1.6083,1.6083,1.6083,1.6083,1.6083,1.6117,1.6218,1.6279,1.6395,1.6646,1.672,1.6809,1.6965,1.6978,1.6978,1.6978,1.6978,1.6341,1.485,1.4002,1.1671,0.7016,0.5322,0.4048,0.3412,0.3412,0.3412,0.3412,0.3412,0.3412,0.3412,0.3412,0.3401,0.338,0.335,0.3324,0.3303,0.3294,0.3279,0.3261,0.3294,0.3283,0.3246,0.3257,0.3249,0.3232,0.3254,0.3254,0.325,1.6083,1.6083,1.6083,1.6083,1.6083,1.6083,1.6083,1.6083,1.6083,1.6083,1.6083,1.6083,1.6083,1.6083,1.6083,1.6083,1.6083,1.6083,1.6083,1.6083,1.6083,1.6083,1.6083,1.6083,1.6083,1.6083,1.6083,1.6083,1.6083,1.6083,1.6083,1.6083,1.6083,1.6083,1.6083,1.6083,1.6083,1.6083,1.6083,1.6083,1.6083,1.6083,1.6083,1.6083,1.6083,1.6083,1.6083,1.6083,1.6083,1.6083,1.6083,1.6083,1.6083,1.6083,1.6083,1.6083,1.6083,1.6083,1.6083,1.6083,1.6083,1.6083,1.6083,1.6083,1.6083,1.6083,1.6083,1.6083,1.6083,1.6083,1.6083,1.6083,1.6083,1.6083,1.6212,1.6361,1.6503,1.6653,1.6809,1.6965,1.6978,1.6978,1.6978,1.6978,1.6978,1.6978,1.485,1.1671,0.7016,0.6804,0.5744,0.3411,0.3412,0.3412,0.3412,0.3412,0.3412,0.3412,0.3412,0.3412,0.3411,0.3381,0.3366,0.3365,0.3335,0.3321,0.3318,0.3288,0.3276,0.3272,0.3242,0.3231,0.323,0.3231,0.325,0.3276,1.6083,1.6083,1.6083,1.6083,1.6083,1.6083,1.6083,1.6083,1.6083,1.6083,1.6083,1.6083,1.6083,1.6083,1.6083,1.6083,1.6083,1.6083,1.6083,1.6083,1.6083,1.6083,1.6083,1.6083,1.6083,1.6083,1.6083,1.6083,1.6083,1.6083,1.6083,1.6083,1.6083,1.6083,1.6083,1.6083,1.6083,1.6083,1.6083,1.6083,1.6083,1.6083,1.6083,1.6083,1.6083,1.6083,1.6083,1.6083,1.6083,1.6083,1.6083,1.6083,1.6083,1.6083,1.6103,1.6212,1.6239,1.6239,1.6239,1.6239,1.6218,1.611,1.6083,1.6083,1.6083,1.6083,1.6083,1.6083,1.6164,1.6239,1.6239,1.632,1.6388,1.6388,1.6347,1.6395,1.6646,1.6625,1.6686,1.6951,1.6978,1.6978,1.6978,1.6978,1.6978,1.6978,1.485,1.2309,0.9345,0.7653,0.5744,0.3411,0.3412,0.3412,0.3412,0.3412,0.3412,0.3412,0.3412,0.3412,0.3411,0.3381,0.3366,0.3366,0.3356,0.3329,0.3292,0.3325,0.3302,0.3245,0.3257,0.3249,0.3232,0.3254,0.3254,0.3456,1.6474,1.6268,1.6069,1.6083,1.6076,1.6069,1.6069,1.6069,1.6069,1.6062,1.6062,1.6083,1.6137,1.6151,1.6157,1.6157,1.6164,1.6164,1.6157,1.6164,1.6144,1.6083,1.6083,1.6083,1.6083,1.6083,1.6083,1.6083,1.6083,1.6083,1.6083,1.6083,1.6083,1.6083,1.6083,1.6083,1.6083,1.6083,1.6083,1.6083,1.6083,1.6083,1.6083,1.6083,1.6083,1.6083,1.6083,1.6083,1.6083,1.6083,1.6083,1.6083,1.6083,1.6083,1.611,1.6266,1.6307,1.632,1.6381,1.6354,1.6286,1.6198,1.613,1.6083,1.6083,1.6083,1.6096,1.6157,1.6246,1.6327,1.6381,1.6463,1.6524,1.6524,1.6503,1.6544,1.6727,1.672,1.6775,1.6958,1.6978,1.6978,1.6978,1.6978,1.6978,1.6978,1.5704,1.358,1.0407,0.8925,0.6594,0.3411,0.3423,0.343,0.343,0.3442,0.3435,0.3412,0.3412,0.3412,0.3411,0.3393,0.3384,0.3384,0.3384,0.3363,0.3332,0.3356,0.3326,0.3268,0.3287,0.3275,0.3251,0.3283,0.3896,0.4704,1.707,1.6446,1.6042,1.6275,1.6062,1.6049,1.6049,1.6247,1.6446,1.6439,1.6439,1.6289,1.6433,1.6467,1.6481,1.6286,1.63,1.63,1.6273,1.6078,1.6024,1.609,1.6083,1.6083,1.6083,1.6083,1.6083,1.6083,1.6083,1.6083,1.6083,1.6083,1.6083,1.6083,1.6083,1.6083,1.6083,1.6083,1.6083,1.6083,1.6083,1.6083,1.6083,1.6083,1.6083,1.6083,1.6083,1.609,1.6103,1.6117,1.611,1.6103,1.6117,1.6123,1.6151,1.6307,1.6347,1.6374,1.651,1.6449,1.6347,1.6334,1.6225,1.6117,1.6103,1.6103,1.6144,1.63,1.6327,1.6374,1.6517,1.6551,1.6564,1.6564,1.6666,1.6754,1.6768,1.6876,1.6965,1.6978,1.6978,1.6978,1.6978,1.6978,1.6978,1.6978,1.6978,1.5072,1.0843,1.042,0.8302,0.3846,0.3662,0.3461,0.3461,0.3489,0.3475,0.342,0.342,0.342,0.342,0.342,0.342,0.342,0.342,0.3419,0.3414,0.3386,0.3356,0.3329,0.3329,0.3518,0.3701,0.3523,0.4982,0.685,1.7474,1.685,1.6439,1.7268,1.6651,1.6035,1.6035,1.7466,1.8702,1.8694,1.8694,1.8558,1.8513,1.9163,1.8598,1.7045,1.8427,1.8575,1.6897,1.6392,1.6117,1.6083,1.6083,1.6083,1.6083,1.6083,1.6083,1.6083,1.6083,1.6083,1.6083,1.6083,1.6083,1.6083,1.6083,1.6083,1.6083,1.6083,1.6083,1.6083,1.6083,1.6083,1.6083,1.6083,1.6083,1.6083,1.6083,1.6157,1.6279,1.6388,1.6354,1.6279,1.6388,1.6429,1.6456,1.6612,1.6653,1.6659,1.6693,1.668,1.6625,1.6503,1.6449,1.6395,1.6286,1.6259,1.63,1.6442,1.6476,1.6524,1.6673,1.6802,1.6883,1.6883,1.6809,1.6795,1.691,1.6856,1.6842,1.6965,1.6978,1.6978,1.6978,1.6978,1.6978,1.6978,1.6978,1.5754,1.3072,1.1157,0.9046,0.6298,0.4576,0.3493,0.3493,0.3499,0.3495,0.3483,0.3483,0.3483,0.3483,0.3483,0.3483,0.3483,0.3483,0.3469,0.3446,0.344,0.3419,0.3392,0.3392,0.4442,0.6113,0.6081,0.753,0.9824,1.8061,1.7848,1.765,1.7665,1.7657,1.765,1.765,1.8551,1.9219,1.9211,1.9211,1.93,1.9346,1.9946,1.9808,1.8785,1.9529,1.9222,1.6687,1.6212,1.6118,1.6191,1.6185,1.6157,1.6083,1.6083,1.6083,1.6083,1.6083,1.6083,1.6083,1.6083,1.6083,1.6083,1.6083,1.6083,1.6083,1.6083,1.6083,1.6083,1.6083,1.6083,1.6083,1.6083,1.6083,1.6083,1.6083,1.6178,1.6334,1.6476,1.6469,1.6422,1.6497,1.6524,1.6551,1.6707,1.6748,1.6768,1.6842,1.6809,1.6727,1.6653,1.6632,1.6592,1.6442,1.6408,1.6449,1.6598,1.6632,1.668,1.6829,1.6924,1.6978,1.6978,1.691,1.689,1.6971,1.691,1.689,1.6971,1.6978,1.6978,1.6978,1.6978,1.6978,1.6978,1.7046,1.6048,1.3968,1.2736,1.0412,0.7202,0.5922,0.4621,0.3524,0.3538,0.3544,0.3544,0.3516,0.3502,0.3502,0.3502,0.3502,0.3502,0.3502,0.3493,0.3479,0.3479,0.4107,0.5146,0.5166,0.666,0.8765,0.8545,1.0036,1.2364,1.8655,1.9058,1.9058,1.8069,1.8671,1.9289,1.9313,1.9243,1.934,1.9557,1.9557,1.9468,1.9363,1.9963,2.025,2.0328,2.0214,1.9259,1.6893,1.6467,1.6168,1.6179,1.6125,1.6045,1.6123,1.6096,1.6083,1.6083,1.6083,1.6083,1.6083,1.6083,1.6083,1.6083,1.6083,1.6083,1.6083,1.6083,1.6083,1.6083,1.6083,1.6083,1.6083,1.6083,1.6083,1.6083,1.6083,1.6178,1.6341,1.653,1.6585,1.6564,1.6592,1.6598,1.6625,1.6754,1.6788,1.6815,1.6944,1.689,1.6788,1.6788,1.6788,1.6754,1.6625,1.6578,1.6605,1.6754,1.6768,1.6795,1.6951,1.6978,1.6978,1.6978,1.6978,1.6978,1.6978,1.6978,1.6978,1.6978,1.6978,1.6978,1.6978,1.7005,1.7019,1.7019,1.7148,1.6382,1.4468,1.4128,1.223,0.8545,0.7506,0.6207,0.4218,0.3799,0.3589,0.3589,0.354,0.3516,0.3516,0.3516,0.3516,0.3516,0.3516,0.3516,0.3516,0.3516,0.4594,0.6515,0.7,0.8508,1.0616,1.1546,1.3078,1.4769,1.9256,1.9256,1.9256,1.9058,1.9264,1.9313,1.9251,1.9292,1.9573,2.0149,2.0173,2.0036,1.9395,1.9959,2.0271,2.032,2.0397,2.0076,1.9806,1.8041,1.6981,1.6838,1.6422,1.6091,1.6071,1.6151,1.6083,1.6083,1.6083,1.6083,1.6083,1.6083,1.6083,1.6083,1.6083,1.6083,1.6083,1.6083,1.6083,1.6083,1.6083,1.6083,1.6083,1.6083,1.6083,1.6083,1.6083,1.6178,1.6374,1.6781,1.6829,1.6741,1.6876,1.6917,1.6924,1.6944,1.6951,1.6951,1.6978,1.6965,1.6951,1.6951,1.6951,1.6944,1.6924,1.6815,1.6761,1.6917,1.6842,1.6795,1.6951,1.6978,1.6978,1.6978,1.6978,1.6978,1.6978,1.6978,1.6978,1.6978,1.6978,1.6978,1.6978,1.7093,1.7161,1.7161,1.7304,1.723,1.714,1.5184,1.3915,1.3348,0.9372,0.693,0.6711,0.4709,0.3589,0.3589,0.3583,0.358,0.358,0.358,0.358,0.358,0.358,0.358,0.358,0.358,0.3799,0.4239,0.6473,0.8691,1.1108,1.5225,1.6877,1.6975,1.9256,1.9256,1.9256,1.9256,1.9337,1.9219,1.9292,1.9687,2.0061,2.0356,2.0372,2.0225,1.9967,2.0063,2.032,2.032,2.0255,2.0214,2.0206,1.8233,1.6927,1.692,1.6728,1.6388,1.6105,1.6157,1.6083,1.6083,1.6083,1.6083,1.6083,1.6083,1.6083,1.6083,1.6083,1.6083,1.6083,1.6083,1.6083,1.6083,1.6083,1.6083,1.6083,1.6083,1.6083,1.6103,1.6266,1.6429,1.6598,1.6883,1.6937,1.689,1.6958,1.6978,1.6978,1.6978,1.6978,1.6978,1.6978,1.6978,1.6978,1.6978,1.6978,1.6978,1.6978,1.6931,1.6897,1.6965,1.6924,1.6897,1.6971,1.6978,1.6978,1.6978,1.6978,1.6978,1.6978,1.6978,1.6978,1.6978,1.6978,1.7012,1.7093,1.7087,1.7141,1.7311,1.7304,1.7399,1.7629,1.6544,1.5498,1.4292,1.2284,1.0508,0.9174,0.806,0.7611,0.7611,0.6274,0.4933,0.3589,0.3589,0.3589,0.3589,0.3589,0.3589,0.3814,0.5157,0.6493,0.7834,1.0281,1.2515,1.4958,1.6904,1.7724,1.765]}]]